GFSGL_250_rhum_000.txt.gz
RH
96 99 93 77 60 51 43 40 42 41 39 43 44 43 35 27 22 18 16 14 14 16 13 10 8 7 7 7 7 7 8 9 14 17 26 36 36 35 46 44 28 44 100
76 66 58 48 43 43 43 43 41 42 36 31 23 18 16 14 14 14 12 13 15 12 8 7 7 7 7 7 7 7 7 8 9 11 12 19 26 28 35 46 41 23 32
64 47 46 50 52 46 42 38 36 27 19 10 10 11 13 13 12 11 13 14 12 8 7 7 8 8 8 8 8 8 8 8 8 10 11 11 13 19 23 27 33 33 20
52 51 53 50 41 28 23 20 16 12 9 12 13 12 10 11 12 14 13 12 8 7 7 8 8 7 7 7 7 7 7 7 8 10 11 11 10 10 12 15 20 29 33
56 51 41 32 21 17 14 12 11 11 11 12 10 11 14 13 12 12 11 8 7 8 8 7 6 6 5 5 5 5 5 5 6 7 10 11 11 11 9 10 11 13 17
44 33 27 17 15 13 12 11 11 10 10 10 12 12 11 10 11 11 8 7 8 8 6 5 5 4 4 4 4 4 4 4 4 5 6 7 11 11 9 8 9 10 10
32 25 16 15 16 14 13 12 11 10 11 11 10 10 10 9 8 7 7 8 8 6 5 5 5 4 4 4 4 3 3 3 4 4 4 4 5 6 8 9 9 8 10
23 18 17 17 17 16 15 15 14 15 14 12 10 9 8 7 7 7 8 7 6 5 5 5 4 3 3 3 3 3 3 3 3 3 3 4 4 4 5 6 8 9 9
20 19 18 18 17 16 17 17 16 15 12 11 10 7 6 7 8 8 7 6 6 5 4 4 4 4 3 4 4 3 3 3 3 3 3 3 3 3 3 4 5 6 9
18 18 17 16 15 14 13 13 13 12 11 10 7 6 6 8 7 6 6 6 5 4 3 4 5 4 4 3 3 3 2 2 2 2 3 3 3 3 3 3 4 4 5
15 15 15 13 12 12 12 11 10 10 9 7 6 6 7 8 6 6 6 5 4 3 4 5 5 4 3 3 2 2 2 2 2 2 2 2 2 3 3 2 2 3 4
14 14 12 11 11 10 10 10 9 8 6 6 5 6 7 7 7 7 6 4 4 4 5 5 4 3 3 3 3 3 2 2 2 2 2 2 2 2 2 2 2 2 3
13 12 10 10 10 10 9 8 6 6 6 5 6 6 6 6 6 6 4 4 5 5 6 4 3 3 3 3 3 3 3 2 2 2 2 2 2 2 2 2 2 2 2
12 10 10 10 10 8 6 5 5 5 6 6 6 6 7 6 5 4 4 5 5 6 6 4 4 4 4 3 3 3 3 3 2 2 2 2 2 2 2 2 2 2 2
10 10 10 9 7 5 5 5 5 6 6 6 5 6 6 5 4 4 5 6 6 6 5 4 4 4 4 4 4 3 3 2 2 2 2 2 2 2 2 2 2 2 2
10 9 8 5 5 5 5 5 5 5 6 6 6 6 5 4 4 4 6 6 7 6 4 5 5 5 5 5 4 3 3 3 3 2 2 2 2 2 2 2 2 2 1
8 5 4 5 5 5 6 5 5 4 5 6 5 5 4 3 4 5 7 7 7 5 5 5 6 6 6 5 4 5 5 4 3 3 2 2 2 2 2 2 2 2 2
5 5 5 5 5 5 5 5 5 4 4 4 4 3 3 3 5 6 7 7 6 5 6 6 7 7 7 7 5 5 4 4 4 3 2 2 2 2 2 2 2 2 2
5 6 6 6 5 5 5 5 4 4 4 4 3 3 3 4 5 6 7 7 5 5 6 7 8 9 8 10 8 5 4 4 4 4 3 2 2 2 2 2 2 2 2
5 6 6 5 5 5 4 4 4 4 4 3 3 3 3 4 6 6 6 6 5 6 8 8 9 10 9 10 9 7 6 4 4 4 3 3 2 2 2 2 2 2 2
6 6 5 5 5 4 4 4 4 3 3 2 2 3 3 5 5 6 6 5 5 6 8 9 9 10 11 11 11 10 9 7 6 4 4 4 3 3 2 2 2 2 1
6 5 5 4 4 4 4 4 3 2 2 3 3 4 4 5 5 5 5 5 5 7 9 11 12 12 14 14 12 11 10 9 8 6 4 4 4 3 3 2 2 2 2
6 5 5 4 4 4 3 3 2 3 3 4 4 4 5 5 5 5 5 4 5 7 9 10 12 14 13 12 11 11 10 9 8 7 6 4 4 4 3 3 2 2 2
6 5 4 4 4 3 2 2 3 3 4 4 5 5 4 5 5 5 5 4 5 6 8 10 11 10 11 12 13 12 12 11 10 10 8 6 5 4 4 4 3 3 3
5 4 4 4 3 2 2 3 3 3 4 4 5 5 4 5 5 5 4 4 6 6 7 8 10 10 10 10 11 12 12 11 11 10 9 8 8 6 6 4 4 3 3
5 5 4 2 2 2 3 3 3 3 4 4 4 4 5 5 5 4 4 4 6 6 6 7 9 9 10 10 9 9 10 10 10 11 10 9 8 7 7 5 4 4 4

GFSGL_250_rhum_003.txt.gz
RH
81 71 64 58 48 55 63 63 57 40 26 23 18 17 17 15 14 13 12 11 12 12 10 10 10 10 11 13 13 12 11 10 14 20 20 19 22 21 23 29 33 37 44
76 65 58 56 56 60 62 56 36 25 22 18 18 18 17 15 15 14 12 10 10 11 13 12 12 11 11 11 9 7 7 7 7 9 11 11 11 14 14 18 26 35 39
64 46 55 56 61 63 54 35 27 22 18 17 16 15 15 15 13 11 11 12 14 16 14 11 10 10 9 8 6 6 6 7 7 8 9 10 9 9 9 10 15 23 33
50 62 66 60 62 56 36 28 23 20 17 16 16 16 16 16 16 15 15 15 14 12 10 10 8 7 6 6 6 7 7 8 8 8 8 9 9 8 8 8 10 13 22
68 64 62 57 41 31 26 24 21 17 16 16 16 16 16 15 15 14 13 13 11 10 9 7 6 6 7 7 7 7 6 7 7 7 8 8 10 8 7 7 8 8 11
60 56 49 35 26 19 16 14 14 13 13 13 13 13 13 13 13 12 12 12 10 7 6 6 7 7 6 6 6 6 5 5 5 5 5 6 8 10 9 7 7 7 7
48 41 31 22 17 15 13 13 12 12 12 12 11 11 11 10 10 10 10 8 6 6 6 7 7 6 6 6 5 5 4 4 4 4 4 4 4 5 8 9 7 7 8
34 23 17 15 14 13 12 12 12 12 11 11 10 10 10 9 9 8 7 6 6 6 7 7 7 6 6 5 4 4 3 3 3 3 3 3 4 4 5 6 7 7 8
22 16 14 12 11 11 11 11 11 11 11 10 10 10 9 8 7 7 6 6 7 7 7 7 7 6 4 4 4 3 3 3 3 3 3 3 3 4 4 4 5 6 7
14 12 10 9 9 10 10 11 10 10 10 10 9 8 6 6 6 6 6 7 7 7 7 6 6 4 4 4 4 4 4 3 3 3 3 3 3 2 3 3 4 5 6
11 9 9 9 10 10 10 10 10 9 8 7 6 5 5 6 6 6 7 7 6 7 6 5 4 4 5 5 5 4 3 3 2 2 2 2 3 3 3 3 3 3 4
8 8 8 9 9 9 8 8 7 6 5 5 5 5 5 6 7 6 6 7 7 6 5 5 5 5 5 5 4 4 3 3 3 2 2 2 2 2 2 3 3 3 3
8 9 9 9 8 8 7 5 4 5 5 5 5 5 6 6 6 6 6 7 6 6 5 5 5 5 4 4 4 4 4 3 3 2 2 2 2 2 2 2 2 2 3
8 8 8 8 7 5 4 4 5 5 5 5 5 5 5 6 5 6 6 6 6 5 5 6 6 5 4 4 4 4 4 4 3 3 2 2 2 2 2 2 2 2 2
8 8 7 5 4 4 4 5 5 6 6 5 4 4 5 5 5 5 6 5 4 5 6 7 6 5 5 5 4 4 3 3 4 3 3 2 2 2 2 2 2 2 2
8 6 4 4 4 5 5 5 5 5 5 4 4 4 4 4 4 4 4 4 5 6 7 7 6 5 6 5 5 5 4 4 3 3 2 2 2 2 2 2 2 2 2
5 4 4 4 5 6 6 5 4 4 4 4 4 4 4 4 4 3 3 4 6 8 8 6 5 6 6 6 6 6 5 5 4 4 3 3 2 2 2 2 2 2 2
4 4 4 6 6 5 5 4 4 4 4 4 4 4 4 3 3 3 4 5 7 8 7 6 6 7 6 7 8 9 9 7 6 5 4 3 3 2 2 2 2 2 2
4 5 6 6 5 5 5 5 4 4 4 4 4 3 3 3 3 3 4 6 7 7 7 5 7 8 7 10 10 10 9 8 6 6 5 4 3 3 2 2 2 2 2
6 7 6 5 5 5 4 4 4 4 3 3 2 2 2 3 3 3 5 6 7 7 6 6 8 8 8 12 12 12 10 8 6 6 5 4 3 3 3 3 2 2 2
7 6 5 5 5 4 4 4 4 3 2 2 2 3 3 4 4 5 6 6 6 6 6 7 8 8 9 12 11 13 12 10 8 7 6 5 4 3 3 2 2 2 2
6 6 5 5 4 4 4 4 3 2 2 3 3 3 4 4 5 5 5 5 6 6 6 7 8 9 10 12 14 14 13 10 9 8 8 8 6 5 3 3 2 2 2
6 5 5 5 5 5 3 2 2 2 3 3 3 4 4 5 5 5 5 5 6 6 6 8 9 9 11 12 13 14 14 13 11 9 8 8 7 5 5 4 3 2 2
5 5 5 5 5 4 2 2 2 3 3 3 3 4 4 5 5 5 5 5 5 5 5 7 9 9 10 12 12 12 12 12 11 10 9 8 7 6 5 4 4 3 3
6 5 5 5 4 3 2 2 3 3 3 3 4 4 4 4 5 5 5 5 5 5 5 7 8 9 10 11 11 10 9 10 10 10 10 9 7 6 6 6 4 4 3
6 5 5 4 3 3 3 3 3 3 3 4 4 4 4 4 5 5 6 5 5 5 5 6 7 8 8 10 10 10 10 9 9 8 8 8 8 7 6 5 6 5 4

GFSGL_250_rhum_006.txt.gz
RH
91 87 74 74 72 64 58 61 53 46 43 34 29 25 23 21 20 19 18 17 16 17 16 15 15 12 12 10 8 10 11 12 12 16 14 13 12 12 12 12 12 14 17
95 90 76 77 68 63 58 59 52 48 34 25 20 19 17 16 15 15 15 15 15 16 15 15 14 13 13 12 10 10 10 10 11 13 14 15 15 13 13 13 13 14 18
93 76 68 77 64 59 62 61 39 24 19 17 16 14 13 12 12 12 12 12 12 12 13 12 13 13 12 10 10 10 10 10 10 10 12 13 13 12 9 9 9 11 16
88 73 71 74 68 56 41 26 18 16 14 13 11 11 10 10 10 10 10 10 11 11 11 11 11 11 11 10 9 9 8 7 7 7 8 8 8 8 7 6 6 6 9
82 76 60 54 44 28 19 14 12 11 10 9 9 9 9 9 10 11 11 10 10 10 10 10 10 10 9 8 7 6 6 5 5 6 6 6 6 6 7 6 5 6 6
62 55 45 44 24 14 12 10 8 8 7 7 7 8 8 8 9 9 10 10 10 9 9 9 8 7 6 6 6 6 6 6 6 6 6 7 7 7 7 7 6 6 6
57 45 30 18 14 12 9 8 7 7 7 8 8 8 8 9 9 9 9 10 10 9 8 7 6 6 6 6 7 7 6 5 5 5 5 5 5 5 6 7 7 6 7
48 27 17 14 10 8 8 7 8 8 8 8 8 9 9 9 9 8 8 7 6 5 5 6 6 6 6 7 6 5 5 4 4 5 5 4 4 4 4 5 5 5 6
25 15 12 9 8 7 7 8 8 8 8 8 8 8 7 6 5 5 5 5 5 5 5 6 7 7 6 6 5 5 4 3 3 3 3 3 3 3 4 4 4 4 4
14 11 9 8 8 8 8 8 8 8 8 7 5 4 4 5 5 5 5 5 5 6 7 7 7 6 6 6 5 4 3 3 3 3 3 3 3 3 3 3 3 4 4
11 8 7 8 8 8 9 9 8 6 4 4 4 4 5 5 5 5 5 5 6 6 7 7 7 7 6 4 4 4 4 4 4 4 4 4 4 3 3 3 3 3 3
7 7 8 8 9 9 8 6 4 4 4 4 5 4 5 5 6 6 5 6 6 6 7 7 7 6 4 4 5 5 5 4 4 3 3 3 2 2 2 3 3 3 3
7 8 8 8 8 6 4 4 4 4 5 5 5 5 5 6 6 6 5 6 6 6 7 7 6 5 5 6 6 6 5 4 3 3 3 3 3 3 2 2 2 2 3
8 8 7 5 4 4 4 4 4 6 6 6 5 5 5 5 5 5 6 6 6 6 6 6 5 5 6 7 6 4 4 4 4 3 3 3 3 2 2 2 2 2 2
7 5 4 4 4 4 3 5 6 6 6 5 5 4 4 4 4 5 5 5 6 6 5 4 5 6 7 7 5 4 4 4 4 4 4 3 3 3 2 2 2 2 2
4 4 4 4 4 4 6 6 5 5 5 4 4 4 4 4 4 4 4 4 4 4 4 5 6 8 8 6 5 4 4 4 4 4 3 3 3 3 2 2 2 2 2
4 4 4 4 4 6 6 6 5 4 4 4 4 4 4 4 4 4 3 3 3 4 4 6 8 8 7 5 5 5 5 5 5 4 3 3 3 2 2 3 2 2 2
5 5 4 5 7 7 6 5 5 4 4 4 4 4 4 3 3 3 3 3 3 4 5 8 9 8 6 5 6 5 6 6 7 6 4 4 3 2 2 2 2 2 2
6 5 6 7 7 6 5 5 4 4 4 4 3 3 3 2 3 3 3 3 4 4 7 8 9 8 6 6 7 7 9 9 9 7 5 5 4 3 2 2 2 2 2
5 6 7 7 7 5 5 4 4 4 3 2 2 2 3 3 3 4 4 4 5 7 8 8 8 7 6 7 8 10 11 10 10 9 8 6 6 4 3 3 3 2 2
6 7 7 7 6 5 4 4 4 3 2 2 2 3 3 3 4 5 5 6 7 7 7 8 8 7 7 8 9 11 13 12 12 12 11 10 8 6 4 3 3 3 2
7 7 7 6 6 5 5 5 3 2 2 2 3 3 3 4 4 5 6 6 6 6 7 8 7 7 7 8 9 11 12 14 13 11 11 9 8 8 6 4 3 3 2
7 7 7 6 6 5 5 4 3 3 2 3 3 3 4 4 4 5 5 5 6 6 7 7 7 7 8 9 10 11 11 11 12 12 12 11 8 6 7 5 4 3 3
7 7 6 6 5 6 5 3 3 3 3 3 3 4 4 4 4 4 5 5 6 6 6 6 6 7 8 9 10 10 11 11 11 12 12 11 9 8 6 6 5 3 3
7 6 6 6 6 5 4 3 3 4 4 4 4 4 4 4 4 4 4 5 5 6 6 6 6 7 8 9 9 9 10 10 10 10 10 9 9 8 7 5 4 5 4
7 6 6 6 5 4 4 3 3 4 4 4 4 4 4 4 4 4 4 5 5 6 5 5 6 6 7 8 8 8 8 9 8 8 8 8 7 7 6 6 5 4 4

GFSGL_250_rhum_009.txt.gz
RH
97 100 100 99 91 91 83 81 74 61 46 36 29 22 15 13 12 10 10 9 9 9 9 10 10 10 11 11 11 12 13 13 14 19 17 16 15 14 11 10 10 9 8
100 100 99 99 98 88 78 61 53 44 28 19 14 12 10 9 8 7 7 7 7 8 8 8 9 9 10 11 11 11 11 11 12 14 15 15 14 13 12 11 11 10 9
100 100 100 100 97 81 70 51 29 18 14 11 9 8 6 6 6 6 6 7 7 7 8 8 9 10 10 10 10 11 11 11 11 12 14 14 13 13 12 10 10 10 8
100 98 98 87 81 58 39 20 15 12 10 7 6 6 6 7 7 7 8 7 8 8 8 9 9 9 9 9 10 10 10 10 10 10 11 11 12 12 13 12 10 9 9
98 92 82 65 36 23 18 14 12 9 7 6 7 7 8 8 8 8 8 9 9 8 8 8 9 9 9 9 9 9 9 8 8 8 8 8 9 9 9 9 9 8 8
78 77 57 28 16 14 12 10 8 6 6 7 7 7 8 8 8 8 9 9 9 9 9 9 9 9 9 10 9 9 8 7 6 6 6 6 6 6 6 6 6 6 6
72 58 21 14 12 10 8 7 7 7 8 8 8 8 8 7 6 6 6 6 6 7 7 8 7 8 7 7 7 6 6 6 5 5 6 6 6 6 6 7 6 5 5
54 20 13 12 10 7 6 7 7 7 7 8 8 7 5 4 4 4 4 4 4 4 5 5 6 5 5 6 5 5 5 5 6 7 6 6 6 5 6 6 6 6 5
17 13 12 9 7 7 7 7 6 6 5 4 4 4 4 4 4 4 4 4 4 4 5 5 5 5 5 6 5 6 6 6 6 6 6 5 5 5 4 5 5 4 4
12 11 9 7 7 7 7 6 4 4 4 4 3 3 4 4 5 5 5 4 4 5 5 5 6 6 6 6 6 6 6 6 5 5 4 4 4 3 3 4 4 4 4
10 8 6 6 7 6 4 3 4 4 4 4 3 4 5 6 6 5 4 4 5 6 6 6 6 6 6 6 6 6 6 4 4 4 4 4 4 4 3 3 3 3 3
7 6 6 6 4 3 3 4 4 4 4 4 5 5 5 5 5 5 4 4 5 6 6 6 6 6 7 7 7 6 4 4 5 4 4 4 4 4 4 4 4 4 3
6 7 6 4 3 3 4 4 4 4 6 6 5 4 4 4 4 5 5 5 5 6 6 6 7 7 7 7 6 5 5 6 6 5 4 3 3 3 3 3 3 3 3
7 6 4 4 4 4 5 4 5 6 6 5 4 4 4 4 4 4 4 5 5 5 6 6 6 7 7 6 5 5 7 7 6 5 4 4 4 3 3 3 2 2 2
5 4 4 4 4 5 4 5 6 5 5 4 4 4 3 3 4 4 4 4 5 5 5 6 6 6 5 5 6 7 7 6 5 5 4 4 4 4 3 3 3 2 2
4 4 4 5 5 5 5 5 5 5 4 4 4 4 4 4 4 4 4 4 4 5 5 5 4 4 5 6 8 7 7 5 5 5 5 5 4 4 4 3 3 2 2
5 4 5 6 5 5 6 5 4 3 4 4 4 4 4 3 3 3 3 3 3 3 3 4 4 5 7 8 8 8 6 5 6 6 5 5 4 4 3 3 3 2 2
5 5 6 6 6 6 6 5 4 4 4 4 4 3 2 2 2 3 3 3 3 3 3 4 4 6 8 9 8 8 6 6 6 8 7 7 5 4 3 3 3 3 2
6 6 6 6 7 6 6 5 4 4 4 4 3 2 2 2 3 3 3 4 4 4 4 4 5 7 8 9 8 7 6 8 8 9 10 9 6 4 4 3 3 3 3
6 6 6 6 6 6 6 5 4 4 4 3 2 2 2 3 3 4 4 5 5 5 5 6 8 9 9 9 8 7 8 9 10 11 10 9 8 6 4 4 3 2 2
6 6 6 6 6 6 6 5 5 5 4 3 3 3 3 3 3 4 5 6 6 7 7 7 8 8 9 9 8 8 10 10 10 12 12 11 9 7 6 5 4 3 2
6 6 7 6 6 6 6 6 6 4 3 3 3 3 3 3 4 4 5 6 6 6 6 7 7 8 8 8 8 8 10 11 11 12 14 13 10 9 6 6 6 4 3
6 7 7 6 6 6 6 6 5 4 3 3 4 4 4 4 4 4 4 5 5 6 6 6 7 7 8 8 8 9 10 10 10 11 12 11 10 9 8 6 5 5 4
7 7 7 6 6 7 7 5 4 4 4 3 3 4 4 4 4 4 4 4 5 5 6 6 7 7 7 7 7 8 8 9 9 9 10 9 8 7 8 7 6 4 4
6 7 7 6 7 7 5 5 5 5 4 4 3 3 4 4 4 4 4 4 5 5 6 6 6 7 6 6 6 7 8 8 8 8 8 8 8 7 6 6 6 6 4
7 7 7 7 6 5 5 6 6 5 5 4 3 3 4 4 4 5 5 5 5 5 5 6 6 6 6 6 6 6 7 7 7 7 8 7 7 6 6 6 5 5 4

GFSGL_250_rhum_012.txt.gz
RH
98 100 100 100 98 100 100 95 97 93 85 63 48 18 14 13 11 9 7 6 6 6 6 6 6 6 6 7 7 8 9 9 11 14 15 17 20 16 14 13 14 16 16
100 100 100 100 100 100 98 97 78 56 44 32 15 13 12 9 7 6 6 6 6 7 7 7 7 7 6 6 7 7 7 8 9 11 13 14 16 16 14 13 12 12 12
100 100 100 100 96 87 72 60 44 36 25 13 12 9 7 6 6 6 7 7 7 7 7 7 7 7 7 7 7 7 7 8 8 9 11 12 14 14 14 14 12 12 11
100 100 98 89 89 70 48 39 34 17 12 11 7 6 6 6 6 7 7 7 8 8 7 7 7 7 8 8 8 8 8 9 9 9 10 12 12 13 14 14 13 11 10
99 98 89 73 47 38 35 20 12 11 9 6 6 6 6 6 6 6 7 7 6 6 6 6 6 7 8 8 8 8 9 9 9 9 10 11 11 11 12 12 13 12 12
91 71 54 33 30 22 12 12 10 6 6 6 6 6 5 4 4 4 4 4 4 3 4 4 4 5 6 8 8 9 9 9 9 9 9 10 11 10 10 11 11 12 12
50 36 26 18 14 12 11 7 6 6 6 5 4 3 3 3 3 4 3 3 3 3 4 4 4 4 5 5 6 7 7 7 8 8 9 10 10 10 10 10 11 10 10
26 20 14 13 12 9 6 6 6 5 4 3 3 3 3 4 4 3 3 3 3 4 5 5 5 5 5 5 5 5 5 5 6 6 6 6 7 7 8 8 8 8 8
15 12 12 11 7 6 6 6 4 3 3 3 3 4 4 3 4 4 4 4 4 5 5 6 5 5 5 5 5 5 5 6 6 6 6 5 5 6 6 6 6 6 6
12 12 9 6 6 6 5 4 3 4 4 4 4 4 4 6 6 5 5 5 5 5 6 6 5 5 6 6 6 6 6 7 7 7 7 7 6 5 5 5 5 6 5
11 7 6 6 6 4 4 4 4 4 5 4 4 5 6 6 5 5 4 4 4 5 5 5 5 5 6 6 6 6 6 7 7 7 7 6 6 5 4 4 4 4 4
6 6 6 5 4 4 4 4 4 5 5 4 5 5 5 5 5 4 4 4 4 4 5 5 5 5 6 6 6 7 7 7 8 7 6 4 4 4 4 4 4 3 3
6 5 4 4 4 4 4 5 5 5 4 5 5 5 4 4 4 4 4 4 4 4 5 5 5 6 6 6 7 8 8 8 7 5 5 6 6 5 4 4 4 4 3
5 4 4 4 4 4 5 5 6 5 5 5 5 4 4 4 4 4 4 4 4 4 4 5 5 6 6 7 8 8 8 6 5 6 7 6 5 4 4 3 3 3 3
4 4 4 5 5 5 5 6 5 5 5 5 4 4 4 4 4 3 3 4 4 4 4 5 5 6 6 7 8 7 6 6 7 8 7 5 5 5 4 4 3 3 3
4 5 5 5 5 6 6 5 5 5 5 5 4 4 4 3 2 2 2 3 3 3 4 4 5 5 6 6 6 6 7 8 8 8 6 6 6 5 5 4 3 3 3
5 5 5 6 6 6 5 5 5 5 5 4 4 4 3 2 2 2 2 2 3 3 3 3 4 4 5 5 6 7 8 9 9 7 7 7 6 6 5 4 4 3 3
5 6 6 6 6 5 5 5 5 5 4 4 4 4 3 2 2 2 2 3 3 3 3 4 4 4 5 5 6 8 9 9 9 7 8 8 8 6 5 4 4 3 3
6 6 6 6 6 6 6 6 5 5 4 5 4 3 3 3 3 3 3 4 4 5 5 4 4 5 5 6 7 10 10 10 9 8 9 9 9 7 6 5 4 4 4
6 6 6 6 6 6 6 6 5 5 5 4 3 3 3 3 3 3 4 4 4 6 6 6 6 6 6 8 9 10 10 10 8 9 10 9 9 8 7 6 5 4 3
6 6 7 7 6 7 6 6 6 5 4 4 4 4 3 4 4 4 4 4 5 6 7 7 7 8 8 9 9 10 10 9 9 10 10 9 9 9 8 6 6 5 4
7 7 7 7 7 7 7 7 6 4 4 4 4 4 4 4 4 4 4 4 4 5 6 7 7 8 8 8 8 9 9 9 9 9 10 10 10 9 8 8 7 5 5
7 7 7 7 7 7 7 6 4 4 5 5 5 4 4 4 4 4 4 4 4 4 5 6 6 7 7 8 8 8 8 8 9 9 9 9 10 9 8 7 7 6 4
7 7 7 8 8 6 5 5 5 6 6 5 5 5 4 4 4 4 4 5 4 4 5 5 6 6 7 7 8 8 8 7 8 8 8 8 8 8 8 7 6 5 6
7 7 8 8 6 5 5 6 6 6 6 6 5 5 4 4 4 4 4 4 5 5 5 5 5 6 6 7 7 7 7 7 8 8 9 9 8 8 8 7 6 5 5
7 7 6 5 6 6 6 6 6 6 6 6 5 5 4 4 4 4 4 4 4 5 5 5 5 5 6 6 6 6 6 6 6 6 7 7 7 6 7 6 6 5 5

GFSGL_250_rhum_015.txt.gz
RH
90 73 69 96 100 100 91 68 62 69 60 60 44 36 25 17 13 12 11 9 7 6 6 6 6 6 6 7 7 6 6 6 6 6 6 7 7 9 10 11 13 12 16
78 97 100 100 100 86 86 64 62 54 44 28 19 15 13 12 11 8 6 6 6 6 6 6 6 7 7 7 7 7 7 7 6 7 6 6 6 7 9 9 11 12 12
100 99 94 94 80 62 54 51 43 26 18 15 12 12 11 8 6 6 5 6 5 5 5 4 5 6 7 8 8 8 7 7 7 7 7 6 6 6 7 8 9 11 11
95 94 85 63 51 51 44 37 22 16 13 12 12 8 6 5 6 5 5 4 3 3 3 3 3 4 5 7 7 8 8 7 7 7 7 7 6 6 7 7 8 8 9
85 59 52 47 44 38 33 20 14 12 12 10 6 6 6 5 5 3 3 3 3 3 3 3 3 3 4 4 4 5 7 7 8 8 8 8 8 7 7 7 8 8 9
50 59 53 42 32 23 17 14 12 11 8 6 6 5 4 3 4 3 4 3 3 3 3 3 3 4 4 4 4 4 4 6 7 8 8 9 8 8 8 8 8 8 9
43 37 30 23 19 15 13 12 9 6 6 5 4 3 3 3 4 4 4 4 4 3 3 3 4 4 4 4 4 4 4 4 5 7 9 10 10 9 9 9 9 9 9
32 24 19 18 14 12 9 6 6 5 4 3 3 4 4 4 5 4 4 4 4 4 5 5 6 5 5 5 4 4 4 4 5 6 7 8 10 10 10 10 10 10 9
20 17 14 11 9 6 5 5 5 4 4 4 4 4 5 4 4 5 5 4 4 4 5 5 5 5 5 5 5 5 5 5 5 5 5 6 6 7 8 10 10 10 9
14 12 10 7 6 5 5 4 4 4 4 4 4 5 5 4 4 4 4 4 3 4 4 5 5 5 6 6 6 5 5 5 5 5 5 6 6 6 6 6 6 6 6
11 8 6 5 5 4 4 4 4 5 4 5 5 5 4 5 4 4 4 4 3 3 4 5 5 5 5 6 6 6 6 6 6 7 7 7 7 7 7 7 7 6 6
8 5 5 5 4 4 4 5 5 5 5 5 5 5 5 5 4 4 3 3 3 3 4 4 4 4 6 6 6 7 7 7 7 8 8 7 7 7 7 6 6 6 5
6 5 4 4 4 4 5 5 6 5 5 5 5 5 4 4 4 3 4 4 4 4 4 4 4 4 6 6 7 7 8 8 8 8 8 7 7 6 5 5 4 4 4
5 4 4 4 4 5 5 5 6 5 5 5 5 5 4 4 4 4 3 3 3 3 4 4 4 5 5 7 7 8 8 9 9 8 7 6 5 6 6 6 6 5 4
4 4 4 5 5 5 6 5 5 5 5 6 5 5 4 4 4 3 3 2 2 3 3 4 4 5 6 6 7 8 9 9 9 7 6 6 7 8 6 5 4 4 3
4 4 5 5 6 6 6 6 6 6 6 5 5 4 5 4 4 3 2 2 2 2 3 3 4 4 5 6 7 8 9 8 7 6 7 8 9 7 5 5 4 4 4
4 5 6 6 6 6 6 6 6 6 6 5 5 5 5 4 3 3 3 2 2 3 3 3 3 4 4 4 5 6 7 7 7 8 9 10 8 6 5 5 5 5 4
5 5 6 7 7 6 6 6 6 6 6 6 6 4 4 3 3 3 3 3 3 4 4 4 4 4 4 4 5 6 6 7 7 10 10 10 9 7 7 7 6 6 5
5 6 7 7 6 6 6 6 6 6 6 6 4 4 4 4 3 4 4 4 4 4 5 5 5 5 5 5 5 6 7 7 9 10 10 10 8 9 8 8 7 6 6
6 6 7 7 6 6 6 6 7 6 6 4 4 4 4 4 4 4 4 4 4 5 5 6 6 6 6 6 6 6 7 10 10 10 10 9 8 9 9 9 8 6 6
6 7 6 6 6 6 7 7 6 5 4 4 5 5 5 5 4 4 4 5 5 5 5 6 6 7 8 8 8 8 9 10 10 10 10 9 8 9 8 8 9 8 6
7 7 6 7 7 7 7 6 5 4 5 5 6 6 5 5 5 4 4 4 5 5 4 5 5 6 7 8 8 9 9 10 10 10 9 8 8 8 8 8 8 9 8
7 7 7 7 7 7 5 5 5 5 5 5 6 6 6 5 5 4 4 4 4 5 5 4 4 5 6 6 7 8 8 8 8 8 8 8 7 8 8 8 8 8 7
7 7 7 7 6 5 5 5 5 5 5 5 5 6 6 5 5 4 4 4 4 5 5 5 5 5 5 6 6 7 7 7 7 7 7 7 7 8 8 8 8 7 6
7 7 7 5 5 5 5 5 5 6 5 5 5 5 5 4 4 4 4 4 4 5 5 5 5 5 5 5 5 6 6 7 7 7 6 6 7 7 6 6 7 6 6
8 7 5 5 5 5 5 6 6 5 5 5 5 5 4 4 4 4 4 4 4 4 4 4 5 5 5 5 5 5 5 6 6 6 6 5 5 6 6 6 6 6 6

GFSGL_250_rhum_018.txt.gz
RH
98 100 89 72 67 65 60 52 53 50 58 52 36 28 23 15 13 12 10 10 8 6 6 5 5 5 5 5 5 5 5 5 6 6 6 6 6 5 5 5 6 8 11
100 88 64 53 51 53 52 49 54 51 44 26 21 20 17 13 11 9 8 6 5 5 5 5 4 3 3 3 3 3 3 4 5 6 6 6 6 6 6 5 5 6 9
65 65 63 59 50 51 48 48 38 27 22 18 17 15 12 10 8 6 5 5 4 4 3 3 3 3 3 3 3 3 3 3 4 6 6 7 7 6 6 6 5 5 6
67 60 58 52 52 47 34 27 21 17 14 13 11 9 7 6 5 5 4 3 3 3 3 3 3 3 3 3 3 3 3 3 3 4 6 7 7 6 6 6 6 6 5
57 59 59 54 42 36 25 18 15 12 11 9 7 6 5 5 4 4 3 3 3 3 3 4 4 4 4 4 3 3 3 3 3 4 4 5 6 6 7 7 7 7 6
62 57 42 28 20 18 14 12 10 9 6 5 5 4 4 3 4 4 4 4 4 4 4 4 4 4 4 4 3 3 3 3 3 3 4 4 5 6 7 8 8 7 6
60 51 34 17 13 12 10 9 6 5 5 4 3 3 3 4 4 4 4 4 4 4 4 4 4 5 5 5 4 4 4 4 4 4 4 4 4 5 7 7 8 9 8
56 31 17 11 9 10 8 6 5 4 4 3 3 4 4 4 4 5 5 4 4 4 4 4 5 4 4 5 5 5 5 5 5 5 5 4 4 5 7 8 8 9 9
27 20 11 10 8 6 5 5 4 3 4 4 4 4 4 5 5 5 4 4 4 3 4 4 4 4 4 5 5 4 5 5 5 5 5 5 5 5 6 8 8 9 9
15 11 10 8 6 5 5 4 4 4 4 4 4 4 5 5 4 4 4 4 4 4 4 3 3 4 4 4 5 4 5 6 5 5 5 5 6 6 6 6 6 7 8
10 9 8 7 6 5 4 4 4 5 5 5 5 5 4 4 4 4 4 4 3 3 3 3 3 3 3 4 5 5 5 5 6 6 6 6 6 6 6 6 6 6 6
9 8 7 6 5 4 4 4 4 5 5 5 5 5 5 4 4 4 4 3 3 3 3 3 3 4 4 4 5 5 6 6 6 6 7 7 7 7 7 7 8 7 6
8 6 6 5 4 4 4 5 6 6 6 6 5 6 5 5 4 4 3 4 4 3 2 2 3 4 4 5 6 6 7 7 7 7 8 8 8 9 8 8 8 7 7
6 5 5 4 4 5 5 6 6 6 6 6 6 6 5 4 4 4 4 4 3 2 2 2 3 4 4 5 6 7 8 8 8 8 9 9 10 10 9 8 7 6 5
5 5 4 4 5 5 6 6 6 6 6 6 6 6 6 5 5 4 3 3 3 3 2 2 3 3 4 5 6 7 8 9 10 10 10 11 10 9 7 6 6 6 7
5 4 4 5 5 6 6 6 6 6 6 6 6 6 5 5 4 3 3 3 3 3 3 2 3 3 4 5 6 7 8 10 10 11 11 10 8 7 7 8 8 7 6
4 4 5 5 6 6 6 6 6 6 6 6 6 6 5 4 4 4 4 3 3 3 3 3 4 4 4 4 5 6 7 9 10 10 9 8 8 9 9 9 8 6 5
5 5 5 6 6 6 6 6 6 6 7 7 6 5 4 5 5 5 4 4 4 4 4 4 5 5 5 4 4 5 6 8 8 9 8 8 9 10 10 8 6 6 6
5 5 6 6 7 7 7 6 6 6 6 5 5 5 6 6 6 6 5 4 4 4 4 5 6 6 6 6 5 5 6 7 8 8 8 9 11 11 10 9 7 8 8
6 6 6 6 7 7 7 7 6 5 5 5 5 5 6 6 6 6 5 4 4 4 5 5 6 6 7 7 7 6 6 6 7 8 9 10 11 12 11 9 9 9 8
6 6 6 7 7 7 7 6 5 5 5 5 5 6 6 6 6 6 6 5 4 4 5 5 6 6 7 8 8 8 8 8 8 8 9 10 11 11 11 9 9 10 10
6 7 7 7 7 7 6 5 5 5 5 6 6 6 6 6 6 6 6 5 5 4 4 5 5 5 6 7 8 8 8 9 9 10 10 11 11 11 10 8 8 10 9
7 7 7 7 7 5 5 5 6 6 6 6 6 6 6 6 6 5 5 5 5 5 4 5 5 6 6 6 6 7 7 8 8 9 9 9 9 9 9 7 8 9 9
7 7 7 6 5 5 5 5 6 8 7 6 6 5 5 5 5 5 4 4 5 4 4 4 5 5 5 6 5 5 6 6 7 7 8 8 8 8 8 7 7 7 7
7 7 6 5 5 5 6 6 6 7 8 6 5 4 5 5 5 4 4 4 4 4 4 4 4 5 5 5 6 5 5 5 6 6 7 7 7 7 6 6 6 6 6
7 6 5 5 5 6 7 6 6 7 7 6 5 4 4 4 5 4 4 4 4 4 4 4 4 4 4 5 5 5 5 5 5 6 6 6 6 6 5 5 5 6 6

GFSGL_250_rhum_021.txt.gz
RH
61 71 78 81 79 84 86 76 61 56 55 52 32 20 12 10 10 9 8 7 5 4 4 4 4 4 3 3 3 3 3 3 3 4 4 5 5 5 5 5 5 5 6
77 77 84 87 92 78 66 56 58 56 45 32 16 11 9 9 9 7 5 4 4 4 4 3 3 3 3 3 3 3 2 2 2 2 2 3 3 4 5 5 5 5 4
94 100 98 76 57 55 51 49 37 25 21 14 10 10 9 7 6 5 4 4 3 3 3 3 3 3 3 3 3 3 3 3 3 3 2 2 2 3 4 5 6 6 5
86 68 59 53 44 47 40 28 16 12 10 9 8 6 5 4 4 4 3 3 3 3 3 3 3 3 4 4 4 4 4 4 4 3 3 2 2 2 3 4 6 6 6
68 60 54 54 47 35 21 13 9 8 9 7 5 4 4 3 3 3 3 3 4 4 4 4 4 4 4 4 4 4 4 3 3 4 3 3 3 3 3 4 6 7 7
67 62 56 48 42 23 11 9 8 7 4 4 3 3 3 4 4 4 4 4 4 4 4 4 4 4 4 4 4 4 4 4 4 3 3 3 3 3 3 4 6 8 8
74 68 56 39 22 11 9 8 6 5 4 3 3 3 3 4 5 5 4 4 4 4 4 4 4 4 4 4 4 4 4 5 5 5 4 4 3 3 3 3 4 7 9
69 50 35 28 10 8 8 6 5 4 4 4 4 4 4 5 5 4 4 4 4 4 4 4 4 3 3 4 4 4 4 4 5 5 5 5 5 4 4 4 4 4 8
54 38 27 15 9 8 7 5 4 4 4 4 4 4 5 5 5 5 4 4 4 4 3 3 4 3 3 4 3 4 4 4 5 5 5 6 5 5 5 4 4 4 5
43 32 22 9 8 7 5 4 4 4 4 4 5 5 5 5 5 5 4 4 4 4 3 3 3 3 3 3 3 4 4 4 5 5 5 6 6 5 5 5 5 5 5
31 25 10 8 7 5 4 4 4 4 4 5 5 5 5 5 5 5 4 4 4 3 3 4 4 3 3 4 4 4 4 4 5 6 6 6 6 6 5 6 6 6 6
24 10 8 7 5 4 4 4 4 5 5 6 6 5 5 5 4 4 4 4 4 4 4 3 3 3 2 3 4 4 5 5 6 6 6 6 6 6 6 6 6 6 6
10 8 8 6 5 4 4 4 5 6 6 6 6 5 5 5 5 4 4 4 4 3 3 3 3 2 2 3 4 5 5 6 6 6 7 7 7 7 7 7 7 7 6
8 8 7 5 5 5 5 5 6 6 6 6 6 6 6 6 5 4 4 3 3 3 3 3 3 2 3 3 4 5 6 6 7 7 8 8 8 8 8 8 8 8 8
8 8 6 5 5 5 6 6 6 6 6 6 6 7 6 5 4 4 3 3 4 3 3 4 3 3 3 3 4 5 6 7 8 8 8 9 9 10 10 10 10 9 9
8 6 5 5 5 6 6 6 7 7 6 6 6 5 5 5 4 4 5 5 4 4 4 4 4 3 3 4 4 5 7 8 8 9 10 11 11 11 12 11 9 7 6
6 6 5 5 6 6 7 7 6 6 6 6 5 4 4 4 5 5 5 6 5 5 4 4 4 5 5 4 4 5 6 8 9 10 11 11 12 12 11 8 7 8 8
6 6 5 6 6 7 8 8 7 7 6 5 5 4 5 5 5 5 6 6 6 5 4 4 5 6 6 6 5 5 6 7 8 10 10 10 10 10 8 8 9 10 10
6 5 6 6 7 8 8 7 8 7 5 5 6 6 6 6 6 6 6 7 6 6 5 4 5 5 6 7 7 6 6 6 8 9 10 10 10 9 8 8 10 10 10
6 5 6 7 8 8 7 7 6 6 6 5 5 6 7 6 6 6 6 7 6 6 6 5 4 5 6 7 8 8 8 7 7 8 9 9 9 8 8 9 10 11 10
5 6 7 8 8 8 7 6 6 6 6 6 6 7 6 6 5 5 5 5 6 5 5 5 5 5 5 6 6 8 8 8 8 8 8 8 8 9 9 10 10 10 11
5 6 7 8 7 7 6 5 6 6 7 7 7 6 6 6 5 5 5 5 5 5 5 5 5 4 5 5 6 6 7 8 9 9 9 8 8 9 9 10 11 10 10
6 7 8 7 7 6 5 6 6 7 7 8 7 7 6 5 5 5 5 4 4 4 4 4 5 4 4 5 5 6 5 6 7 8 9 9 9 9 9 9 9 8 8
6 7 7 6 6 5 6 6 7 7 7 7 6 6 6 5 5 5 5 5 5 4 4 4 4 4 4 4 5 5 6 5 5 5 6 7 8 8 8 8 8 8 7
7 7 6 6 5 6 7 7 7 7 7 6 6 6 5 5 5 4 4 4 4 4 4 4 4 4 4 4 4 5 5 5 5 5 5 5 6 6 7 7 7 7 6
6 6 6 5 5 7 7 7 7 6 6 6 6 6 4 4 4 4 4 4 4 4 4 4 4 4 3 3 3 4 4 4 5 5 5 5 5 5 6 6 6 6 5

GFSGL_250_rhum_024.txt.gz
RH
48 49 53 55 57 60 64 62 56 57 53 49 38 30 18 10 8 8 7 6 5 4 4 3 3 3 2 2 2 2 2 2 3 3 3 3 4 4 4 4 4 5 7
54 60 60 60 68 58 52 55 55 50 45 38 29 16 8 7 8 7 5 4 4 3 3 3 3 3 3 3 3 3 3 3 3 3 2 2 2 3 3 4 4 5 5
66 70 73 64 56 57 62 61 51 40 31 20 10 7 7 6 5 4 4 3 3 3 3 3 3 3 3 3 3 4 3 3 3 3 3 2 2 2 2 2 3 4 5
69 70 60 70 76 67 52 41 30 24 15 9 7 7 4 4 4 3 3 3 3 3 3 3 4 3 4 4 4 3 3 3 3 3 3 3 3 3 3 3 2 3 3
79 86 89 70 57 42 36 31 25 14 8 6 6 4 4 3 3 3 3 3 4 4 4 4 3 3 4 4 4 4 3 3 3 4 4 3 3 3 4 4 3 3 3
95 82 65 57 50 40 27 22 10 7 7 5 4 4 4 4 4 4 4 4 4 4 4 4 4 3 3 4 4 4 3 3 3 4 4 4 3 3 3 4 4 3 3
84 70 63 56 40 26 18 11 7 7 5 4 4 4 4 4 4 4 4 4 4 4 4 4 3 3 3 3 3 4 3 3 3 4 4 4 4 4 3 4 4 4 4
82 62 52 40 28 20 15 8 7 5 4 4 4 4 4 4 4 4 4 4 4 4 4 4 4 3 3 3 3 3 3 3 3 4 4 4 4 5 4 3 3 4 4
69 52 39 30 17 16 8 7 6 4 4 4 4 4 4 5 5 5 4 4 4 4 4 4 3 3 3 3 3 3 3 3 3 3 4 4 4 5 5 5 4 4 4
50 46 40 20 16 10 7 6 5 5 4 4 5 5 5 5 5 5 4 4 4 4 4 4 3 3 3 3 3 3 3 3 3 3 4 4 5 5 5 5 5 5 4
40 36 25 16 11 8 7 6 5 5 5 5 5 5 5 6 5 5 4 4 4 4 4 3 3 3 3 3 3 2 3 4 4 4 4 5 5 5 5 5 5 5 5
36 28 17 11 8 8 6 6 6 5 5 5 5 6 6 5 5 5 4 4 3 3 3 3 3 3 2 2 2 2 3 4 4 4 5 5 6 6 6 6 6 6 5
28 20 13 8 8 7 6 6 5 5 6 6 6 6 6 6 5 4 4 3 4 4 4 4 3 3 3 3 2 3 3 4 5 5 6 6 6 6 7 6 6 6 6
20 13 9 9 8 6 6 6 5 6 6 7 6 7 6 5 4 4 3 4 4 5 5 4 4 3 3 3 3 3 4 5 6 6 7 7 7 7 7 7 7 7 7
13 9 9 8 6 6 6 6 6 7 7 6 6 6 5 5 5 4 4 4 4 5 6 5 4 4 4 3 3 3 4 5 6 7 8 8 8 8 8 8 8 8 8
10 8 8 7 6 6 6 6 7 7 7 6 6 5 5 5 5 5 5 5 5 6 6 5 4 4 4 4 4 4 4 5 7 8 9 10 10 9 9 9 9 9 9
8 8 7 6 6 6 6 6 7 8 7 6 5 5 5 5 5 6 5 5 5 6 6 6 5 5 5 5 5 4 4 5 6 8 9 10 11 11 11 11 11 12 11
8 7 6 6 6 6 6 7 7 6 6 5 5 5 5 5 5 6 5 5 5 6 6 6 6 5 5 6 6 6 5 5 6 7 9 10 10 11 12 13 12 11 9
7 6 6 6 6 6 7 8 8 7 5 5 6 6 6 7 6 6 5 5 5 5 5 6 6 6 5 6 6 7 7 6 6 6 8 9 10 11 11 11 10 9 8
6 6 6 6 5 6 7 8 7 6 5 6 7 8 7 7 6 6 5 4 5 5 5 5 5 6 6 5 6 7 7 8 8 7 6 7 10 11 10 10 9 8 7
6 6 5 5 6 7 7 7 7 5 6 7 7 7 8 7 6 5 4 5 5 5 5 5 5 5 6 6 5 6 6 7 8 8 8 8 7 8 8 9 9 8 8
5 5 5 5 6 7 7 7 5 6 7 7 7 7 7 6 6 5 4 5 4 4 5 5 5 5 5 5 5 5 6 6 6 7 8 9 9 8 8 8 8 8 8
4 5 5 6 7 7 7 6 5 7 8 7 6 6 6 6 6 5 4 4 4 4 4 4 5 4 4 4 5 5 5 6 6 6 6 7 8 8 9 9 9 8 8
5 5 6 6 7 6 6 5 7 8 7 7 7 6 6 5 5 4 4 4 4 4 4 4 4 4 4 4 4 4 4 5 5 6 6 6 6 6 7 8 8 9 9
5 5 6 6 6 6 6 6 8 7 7 7 7 6 6 5 4 4 4 4 4 4 4 4 4 4 4 4 4 4 4 4 4 5 5 6 6 5 5 5 6 7 7
5 6 6 6 6 6 5 7 8 8 8 7 6 6 5 4 4 4 4 4 4 4 4 4 3 4 4 4 3 3 3 3 4 4 4 5 5 5 5 5 5 5 5

GFSGL_250_rhum_027.txt.gz
RH
43 42 43 41 45 56 59 53 55 50 44 49 53 48 34 25 14 8 6 6 6 5 4 3 3 3 3 3 3 3 3 2 3 3 3 2 2 2 3 4 4 5 7
41 42 50 64 66 58 55 53 48 55 58 51 39 24 20 11 7 6 6 5 3 3 3 3 3 3 3 3 3 3 3 3 3 3 3 3 2 2 2 3 4 4 4
66 63 65 65 62 63 65 66 60 52 39 25 20 17 9 7 6 6 4 3 3 3 3 3 3 3 3 3 3 4 3 3 3 3 3 3 3 2 2 3 3 3 4
63 67 67 68 69 70 66 52 42 28 20 16 12 7 7 6 5 4 3 3 3 3 3 4 4 4 4 4 3 3 3 3 3 3 3 3 3 3 3 3 4 4 3
68 67 66 76 76 67 50 42 24 18 13 9 8 7 6 5 4 4 4 3 4 4 4 4 4 4 4 4 4 4 3 3 3 3 4 4 3 3 3 3 4 4 4
67 77 87 78 72 49 47 32 19 13 10 8 8 6 5 4 4 4 4 4 4 4 4 4 3 3 3 3 3 3 4 3 3 3 3 4 4 3 3 4 5 4 4
92 86 79 69 55 54 32 22 15 10 9 8 6 5 5 4 5 5 4 4 5 4 4 4 3 3 3 3 3 3 3 3 3 3 3 3 3 3 3 4 4 5 4
79 75 64 56 53 36 25 16 11 9 8 7 6 5 4 5 6 6 5 5 5 4 4 4 4 3 3 3 3 3 3 3 2 2 3 3 3 4 4 4 4 5 4
87 67 58 52 37 30 19 12 10 9 7 6 5 5 5 6 6 6 6 5 4 4 4 4 3 3 3 3 3 3 3 3 3 3 3 3 3 4 4 4 5 5 5
66 54 51 34 25 20 14 10 9 8 6 5 5 5 6 7 6 6 5 5 4 4 3 3 3 3 2 2 2 3 3 3 3 3 3 3 3 4 4 4 5 5 6
56 48 36 29 18 14 10 9 8 7 6 6 5 5 7 7 6 6 5 4 4 4 3 3 3 3 3 3 2 2 2 2 2 3 4 4 4 4 4 5 5 6 7
50 37 30 19 14 10 9 8 7 6 6 5 5 7 7 7 6 5 4 4 4 4 4 4 4 4 4 3 3 3 2 2 3 3 4 4 4 5 5 6 6 6 6
43 34 20 14 10 9 8 7 6 6 6 5 6 7 7 6 5 4 4 4 5 4 4 4 4 5 4 3 3 3 3 3 4 4 5 5 5 6 6 6 6 6 6
30 20 15 11 9 8 7 6 6 6 5 6 7 7 7 5 4 4 4 5 5 5 5 5 5 5 4 4 4 3 3 3 4 5 6 6 6 7 7 6 6 6 6
18 15 11 9 8 7 6 6 6 5 5 7 8 7 6 5 5 6 6 5 6 5 5 5 6 6 5 4 4 4 3 3 4 6 6 7 8 8 8 7 7 7 8
15 11 10 8 7 6 5 6 5 5 6 7 7 6 5 5 6 7 7 7 6 5 5 5 6 6 5 4 5 4 4 4 4 5 7 8 9 8 8 9 9 9 9
12 10 8 6 6 5 5 5 4 5 7 7 7 6 6 6 7 7 7 6 6 5 5 5 5 6 6 5 5 6 5 5 4 5 6 8 10 10 10 10 11 11 11
10 7 6 5 5 5 4 4 5 6 7 7 7 6 7 7 6 6 6 6 6 5 4 5 5 5 5 6 5 5 6 6 6 5 6 8 10 11 12 12 12 12 12
8 6 5 5 5 4 4 5 5 6 7 6 6 6 7 7 6 6 6 6 5 5 5 5 5 5 5 5 6 5 6 7 7 7 6 6 8 10 11 12 12 12 13
5 5 5 4 4 4 5 5 6 7 7 6 6 7 7 7 7 7 7 6 5 5 5 5 5 5 5 5 5 6 6 6 7 8 7 8 7 7 8 9 11 12 12
5 6 5 5 5 5 5 6 6 7 6 6 8 8 8 8 8 8 7 6 5 4 4 4 5 5 5 5 5 5 6 5 6 7 8 8 8 8 7 7 8 9 9
6 5 5 5 6 6 6 6 6 6 6 7 8 8 8 8 8 8 7 6 5 4 4 4 4 5 5 5 5 5 5 5 5 5 6 7 8 8 8 8 7 7 7
5 5 6 6 6 6 6 6 6 6 6 8 8 8 8 8 7 6 5 5 4 4 4 4 4 4 5 5 5 4 4 5 5 5 5 6 6 7 7 8 8 8 8
4 6 6 6 6 6 6 6 6 6 7 9 8 8 8 7 5 4 4 4 4 4 4 4 4 4 4 5 5 5 4 4 4 5 5 5 5 6 6 6 6 7 8
6 6 6 6 6 5 6 6 5 6 8 9 8 8 7 5 4 4 4 4 4 4 4 4 4 4 4 4 4 4 4 4 4 4 4 4 4 5 5 5 5 5 5
7 6 6 6 5 5 5 5 6 7 9 9 8 8 6 5 4 4 4 4 4 4 4 4 4 4 4 4 4 4 4 4 3 3 3 4 4 4 4 5 5 5 5

GFSGL_250_rhum_030.txt.gz
RH
52 54 56 55 53 52 50 49 46 58 53 43 38 35 30 24 17 12 9 7 6 6 5 4 3 3 3 3 3 2 2 2 3 3 2 2 2 3 2 3 2 3 4
50 52 53 51 47 51 54 60 63 47 50 45 38 28 18 14 10 8 7 6 6 5 4 4 3 3 3 3 3 3 3 3 3 3 3 2 2 3 3 2 2 2 3
49 47 47 52 58 60 68 68 63 57 51 39 30 18 14 10 8 7 6 6 4 4 4 3 3 3 3 3 3 3 3 3 3 3 3 3 3 3 3 3 2 3 3
47 52 58 60 64 78 78 79 73 58 42 31 18 13 9 9 7 7 6 4 4 4 4 4 4 4 4 4 3 3 3 3 3 3 3 3 3 3 3 3 3 3 3
60 65 68 80 85 86 88 86 73 49 29 17 13 10 9 8 7 6 5 4 4 4 5 5 4 4 4 4 4 3 3 3 3 3 3 3 3 3 3 3 3 4 4
79 80 83 90 94 98 99 79 57 32 17 14 11 10 9 7 6 5 5 4 4 5 5 4 4 3 3 3 3 3 3 3 2 2 2 3 3 3 3 3 4 4 4
86 90 97 98 100 98 79 53 35 20 15 10 10 9 8 6 5 5 4 4 5 5 5 5 4 4 4 3 3 3 3 3 3 2 2 2 3 3 3 3 3 4 4
94 100 99 100 100 80 60 39 24 15 11 10 9 8 6 6 6 5 5 5 5 5 5 4 4 3 3 3 2 2 2 2 2 3 3 3 2 3 3 3 4 4 4
100 100 100 100 85 66 38 24 15 11 10 10 8 6 6 6 5 5 6 6 5 4 4 3 3 3 3 3 3 3 2 2 2 2 3 3 3 3 3 3 4 4 4
91 99 96 79 61 43 20 15 12 11 10 8 6 6 6 5 5 6 7 6 4 4 4 3 3 4 4 4 4 4 3 3 2 2 3 3 3 3 3 3 4 4 4
99 85 71 60 40 24 16 12 10 10 8 6 6 6 6 5 6 7 6 5 4 4 4 3 4 4 4 4 5 4 3 3 3 2 2 2 3 4 4 4 4 5 5
78 69 47 38 23 17 13 10 10 8 6 6 6 5 5 6 7 6 6 5 5 5 4 4 4 4 5 5 5 4 4 3 3 3 3 3 4 4 4 5 5 5 6
65 44 34 23 17 14 10 10 9 7 6 5 5 5 5 6 7 6 5 5 6 6 6 5 4 5 5 6 5 4 4 4 3 3 4 4 4 5 5 5 5 6 6
32 30 24 17 15 10 10 9 7 6 5 5 5 5 6 7 6 6 5 6 6 6 6 6 5 5 5 6 6 4 4 4 3 3 4 5 5 5 6 6 6 6 7
25 20 17 15 11 10 10 7 6 5 5 5 6 6 7 6 6 5 6 6 6 6 6 5 4 4 5 5 6 5 4 4 4 3 4 5 6 7 7 7 7 8 8
20 17 14 11 11 10 8 6 6 5 6 6 6 6 7 6 5 6 7 6 6 6 6 5 4 4 5 5 6 6 5 5 5 4 4 5 7 8 8 8 8 8 8
17 15 12 11 11 8 6 6 5 6 6 6 6 6 6 6 6 7 7 7 7 6 6 5 4 5 5 5 5 6 6 5 6 5 4 5 7 8 9 9 9 9 9
15 12 11 11 9 6 6 4 5 6 6 6 7 6 6 6 7 8 7 7 8 7 7 6 5 5 4 5 5 5 6 6 6 6 6 5 6 7 9 10 10 10 10
12 11 11 10 6 6 5 5 6 6 7 7 7 7 6 6 8 8 8 8 8 8 7 6 5 4 4 4 5 5 5 6 5 6 7 7 6 6 8 9 10 11 12
11 10 9 6 6 5 4 6 6 6 7 7 6 6 6 8 8 8 8 9 9 8 6 5 5 5 4 4 5 5 5 5 6 6 6 7 7 7 6 7 9 11 12
10 9 7 6 6 4 6 6 6 6 6 6 6 6 6 8 8 8 9 8 6 6 5 5 4 4 4 4 5 5 5 5 5 6 6 6 7 8 8 8 7 8 10
9 8 6 6 5 5 6 6 6 6 6 6 6 6 8 9 8 9 8 6 5 5 5 5 5 4 4 4 4 5 5 5 5 5 5 6 6 6 7 8 8 8 7
8 6 6 5 5 6 6 6 6 6 6 5 5 7 9 9 9 9 6 5 5 5 5 5 5 4 4 4 5 5 5 5 5 5 5 5 5 5 6 6 7 8 9
6 5 5 5 6 6 6 6 6 6 5 5 6 7 10 10 10 8 6 6 5 5 5 5 5 5 4 4 5 5 5 4 4 5 5 5 5 5 5 5 6 6 6
5 5 5 6 6 5 5 6 6 6 5 5 6 8 10 9 9 7 6 5 5 5 5 5 5 5 5 4 4 4 4 4 4 4 4 5 4 4 5 5 5 5 6
5 5 5 5 5 4 5 5 5 5 5 5 6 8 9 9 7 6 6 5 5 5 5 5 4 5 5 5 4 4 4 4 4 4 3 3 4 4 4 4 4 4 5

GFSGL_250_rhum_033.txt.gz
RH
60 64 60 52 48 47 52 56 66 72 74 66 57 57 46 40 28 17 12 9 8 6 6 5 4 4 3 3 3 3 3 3 4 4 4 2 2 2 3 2 3 2 2
57 51 47 44 50 54 62 72 76 78 66 61 69 65 54 33 17 12 10 8 6 6 5 4 4 4 3 3 3 4 3 3 4 4 4 3 2 2 2 3 3 2 2
53 46 50 54 62 70 77 78 78 72 82 84 66 53 33 18 13 10 8 6 5 5 4 4 4 4 4 4 4 4 3 3 3 3 3 3 3 2 2 3 3 3 3
52 50 54 67 75 82 79 83 85 93 81 68 51 32 17 13 11 9 7 6 5 5 4 4 4 4 5 4 4 3 3 3 3 2 2 3 3 2 3 3 3 3 3
48 53 69 78 84 82 87 93 93 70 46 40 30 17 13 11 10 7 6 5 5 5 4 4 5 5 4 3 3 3 3 3 3 2 2 3 2 2 2 2 2 3 3
54 73 78 85 88 91 98 97 81 55 36 26 18 14 10 10 8 6 5 5 5 4 4 5 5 4 3 3 3 3 3 3 2 2 2 2 3 2 2 2 2 3 3
72 83 90 97 97 98 90 78 61 46 26 17 14 10 10 8 6 6 5 5 4 4 5 6 4 3 3 3 3 3 3 2 2 2 2 2 3 2 2 2 3 3 3
93 99 100 100 98 91 84 56 53 28 15 13 10 10 9 6 6 5 4 4 4 5 6 6 4 3 4 4 3 3 3 3 3 3 2 2 2 3 3 2 2 3 3
100 100 99 97 90 86 65 48 25 15 13 11 10 10 7 6 5 5 5 5 5 6 6 4 4 4 4 4 3 3 3 4 4 3 3 2 2 3 3 3 2 3 3
100 99 93 92 89 70 47 30 17 14 12 10 10 8 6 6 5 5 6 5 6 6 4 4 4 5 5 4 4 4 4 4 4 3 3 2 2 2 3 3 3 3 4
94 90 88 93 66 38 27 18 14 12 11 11 10 7 7 6 6 6 6 7 7 6 4 4 4 4 4 4 4 4 5 5 4 3 3 3 2 2 3 3 4 3 4
88 84 85 64 36 24 17 14 12 11 11 10 8 7 6 6 6 6 6 7 7 5 5 5 4 4 4 4 4 4 6 5 4 4 3 3 3 3 3 3 4 4 4
88 75 57 33 25 21 15 13 11 10 10 9 7 6 6 7 7 6 7 7 6 5 6 5 5 4 4 4 4 4 6 6 4 4 3 3 3 4 4 4 5 5 4
74 53 37 26 22 18 14 12 11 10 10 7 7 6 7 7 7 7 7 6 6 7 6 5 6 5 4 4 4 4 5 6 4 4 3 3 4 5 5 6 6 5 5
43 32 28 26 21 14 13 10 11 10 9 6 6 6 7 8 7 7 7 6 6 6 6 6 6 6 5 4 4 4 5 5 5 4 4 3 4 5 6 7 7 6 6
30 22 25 24 20 14 11 10 10 10 7 6 6 7 7 7 7 7 6 6 7 7 6 6 6 6 5 4 5 5 5 5 5 5 5 4 4 5 6 7 8 8 7
33 26 17 16 14 11 9 10 10 7 7 6 7 7 6 7 7 6 6 6 8 7 7 7 6 6 5 4 4 5 5 5 5 5 5 5 4 5 6 7 8 9 9
26 19 15 14 11 9 9 10 8 6 6 6 8 7 6 7 7 6 6 8 9 8 8 7 6 5 5 5 5 5 5 5 5 5 5 6 5 5 5 7 9 9 9
15 13 12 10 9 9 9 9 6 6 6 7 8 7 7 7 6 6 7 9 9 9 8 6 5 4 4 4 4 5 5 5 5 5 6 6 6 6 5 6 8 10 10
14 12 10 9 8 8 9 6 6 6 7 8 8 7 7 7 6 6 8 10 10 9 6 5 5 5 4 4 4 4 4 5 6 6 5 6 6 7 7 6 6 8 10
10 10 9 8 8 8 6 6 6 6 7 7 7 7 7 7 7 7 10 11 10 9 6 6 6 5 5 4 4 4 4 5 5 6 6 5 6 6 6 7 7 7 7
9 8 8 8 8 6 5 6 6 7 6 6 6 7 7 7 7 8 11 12 10 8 6 6 5 5 5 5 5 4 4 5 5 5 6 5 5 6 6 6 7 8 7
8 7 7 7 6 5 6 6 6 6 5 5 5 6 7 7 8 9 11 12 10 7 6 6 5 5 5 5 5 5 5 5 5 5 5 5 5 5 5 5 5 6 8
6 7 6 5 5 6 6 6 6 5 5 5 5 5 6 6 8 9 11 11 10 7 6 5 5 5 5 5 5 5 5 5 5 5 5 5 5 5 5 5 5 5 5
6 5 5 5 5 6 6 6 5 5 5 5 5 5 6 6 7 9 10 9 8 7 6 6 5 5 5 5 5 5 5 4 4 4 4 4 4 4 5 4 4 5 4
4 4 5 5 6 6 5 5 5 6 6 5 5 5 5 6 7 8 9 8 7 6 6 6 5 5 5 5 5 5 4 4 4 4 4 4 4 4 4 4 4 4 4

GFSGL_250_rhum_036.txt.gz
RH
77 65 52 47 47 44 40 47 50 56 61 73 79 86 73 64 51 37 25 16 13 10 9 8 6 4 4 4 4 3 3 3 4 4 4 4 3 2 2 3 3 3 2
81 66 50 49 46 45 49 53 62 72 75 86 89 82 65 52 39 28 17 13 9 9 8 5 4 4 4 4 3 3 3 4 4 4 3 3 3 2 2 2 3 3 3
75 57 53 49 47 50 59 67 79 80 85 84 86 68 47 34 26 18 13 10 9 7 5 4 4 4 4 3 3 4 4 4 3 3 3 3 3 3 2 2 3 3 3
68 59 58 56 61 73 70 79 78 86 90 92 79 56 37 29 16 12 9 9 7 5 5 4 4 4 4 4 5 4 4 3 3 2 2 3 3 3 2 2 2 3 3
70 73 76 71 79 74 75 80 89 93 95 79 62 38 28 19 13 10 8 8 6 5 4 4 4 5 4 5 5 4 3 3 3 3 2 2 2 2 2 2 2 2 2
88 87 75 76 74 72 80 96 98 92 78 59 53 29 19 13 10 9 8 6 6 5 5 5 5 5 5 5 4 3 3 3 3 3 2 2 2 2 2 2 2 2 2
82 79 74 73 74 87 99 100 99 77 52 52 37 19 14 11 9 9 7 6 5 5 6 5 5 6 5 4 3 4 4 3 3 3 2 2 2 2 2 2 2 2 2
77 73 71 76 98 100 98 100 79 59 49 27 19 15 11 9 9 8 6 5 5 6 6 5 6 5 4 4 4 4 3 3 3 3 3 3 3 3 2 2 2 2 2
71 70 80 100 97 100 98 83 60 49 31 23 15 12 10 9 8 7 6 5 6 6 6 6 6 5 5 5 4 4 4 3 4 4 4 4 3 3 2 2 2 2 3
68 81 99 98 100 100 89 70 38 24 18 15 12 11 9 9 8 6 6 6 7 6 6 6 5 5 5 4 4 4 4 3 4 4 4 4 3 3 2 2 2 3 3
85 95 99 100 100 90 59 40 24 18 14 11 11 10 9 9 8 6 6 7 7 6 6 6 5 6 5 4 4 4 4 3 4 4 4 3 3 3 2 2 2 3 3
98 99 100 100 80 56 37 24 19 15 13 11 11 10 8 8 6 6 7 7 7 7 6 6 6 6 5 5 5 4 4 4 4 5 4 4 4 3 3 3 3 3 3
100 100 98 75 56 33 22 22 17 13 12 10 11 9 9 7 6 6 8 7 6 6 6 6 6 6 6 6 5 4 4 4 4 5 5 4 4 3 3 4 4 4 4
100 98 84 55 31 20 19 16 14 12 11 10 10 8 8 6 6 7 7 6 6 7 6 7 7 7 6 5 5 5 4 4 4 4 5 4 4 3 4 4 4 4 4
94 76 51 35 28 24 16 13 11 10 10 10 9 9 6 6 6 8 7 6 6 7 6 8 8 8 7 6 5 5 4 4 4 4 5 5 4 4 4 5 5 5 6
73 49 38 29 22 15 12 12 11 10 10 10 9 7 6 6 7 7 7 6 6 6 7 9 8 8 6 6 5 4 4 4 4 5 5 5 5 4 4 5 6 6 6
37 30 21 16 12 11 12 10 10 9 9 10 8 6 6 7 7 7 7 6 7 7 8 10 9 8 5 5 4 4 4 4 4 5 5 5 5 5 4 5 6 7 7
32 18 15 13 11 11 11 10 9 8 9 9 6 6 6 7 6 7 7 7 7 7 9 10 9 7 5 5 5 4 4 4 4 4 5 5 6 6 6 5 6 7 8
15 12 11 12 10 10 10 8 8 8 8 6 6 7 7 6 6 6 7 7 7 8 10 11 10 7 6 6 5 4 4 5 4 4 5 5 5 6 6 6 5 6 8
12 13 11 10 9 10 8 8 8 7 6 6 6 7 7 6 6 6 7 7 7 8 10 12 11 7 6 6 5 5 4 5 5 4 4 5 6 6 6 7 7 6 7
10 10 9 8 9 8 8 8 6 5 6 6 7 7 5 6 6 6 6 7 7 8 11 12 11 8 7 6 5 5 5 5 5 5 5 4 5 6 6 6 7 7 6
9 9 8 8 8 8 7 5 5 6 6 6 7 6 6 6 6 6 6 6 7 9 10 11 11 10 8 6 6 5 5 5 5 5 5 5 5 5 6 6 6 6 8
8 7 7 7 6 6 5 5 6 6 6 6 5 5 6 8 7 6 6 6 7 8 10 10 10 9 8 7 6 6 5 5 5 5 5 5 5 5 5 6 6 6 6
6 6 6 5 5 5 5 6 6 6 6 5 5 6 7 8 7 6 6 7 7 8 9 9 9 9 7 7 6 5 5 5 5 5 5 5 4 4 4 5 6 5 6
5 4 4 4 5 5 6 6 6 5 4 4 5 6 7 8 8 7 7 7 8 8 8 8 8 7 6 6 6 5 5 5 5 5 5 5 4 4 4 4 4 5 5
4 4 5 5 5 5 5 4 4 4 5 5 6 7 8 8 8 7 8 8 8 7 7 7 7 6 6 6 5 5 5 5 5 5 5 5 4 4 4 4 4 4 4

GFSGL_250_rhum_039.txt.gz
RH
52 56 71 78 90 92 89 83 73 70 64 65 67 70 72 68 71 71 61 52 36 30 18 14 11 8 7 6 4 4 4 3 4 4 3 3 3 3 3 3 3 3 2
52 63 72 91 94 85 80 71 70 66 67 69 74 72 71 79 78 72 50 32 28 20 13 10 8 7 6 4 4 4 4 4 4 4 4 4 4 3 2 2 2 3 3
60 64 77 97 84 77 70 66 65 67 69 74 68 83 85 95 71 52 33 22 18 13 10 8 7 6 4 4 4 5 4 4 4 4 4 3 2 2 2 2 2 2 2
59 72 86 82 75 83 71 66 68 68 78 73 90 88 91 68 52 29 21 14 12 10 8 7 6 5 4 5 5 5 5 5 4 3 2 2 3 2 2 2 2 2 2
70 85 86 77 84 75 69 72 68 73 74 96 98 88 63 38 36 21 13 12 10 8 7 7 5 5 5 5 5 5 5 4 3 3 3 3 2 3 2 2 2 2 2
81 87 82 82 74 70 73 72 74 80 99 97 93 70 43 28 18 13 11 10 8 8 7 6 5 5 6 6 5 5 4 4 3 3 3 3 3 3 2 2 2 2 2
76 78 81 80 72 73 76 80 81 90 92 94 77 46 31 19 13 11 11 9 8 7 6 5 5 6 6 6 5 4 4 4 4 3 3 3 3 3 3 3 2 2 2
78 84 79 69 72 78 86 79 91 96 99 74 43 32 21 13 11 11 9 8 8 7 6 5 6 6 6 6 4 4 4 4 3 3 3 3 3 3 3 3 3 3 2
79 73 69 77 78 84 91 89 93 99 69 45 30 21 13 11 11 9 8 8 8 6 5 6 6 6 6 5 5 5 4 4 4 3 3 3 3 4 3 3 3 2 2
70 73 77 82 96 87 96 100 94 56 44 36 20 14 13 11 10 8 8 8 7 5 6 7 6 5 5 4 5 5 4 4 4 3 3 3 4 4 3 3 3 2 2
71 76 88 100 89 97 94 90 57 44 32 24 17 13 11 9 8 8 8 8 6 6 7 7 6 6 5 5 6 6 5 4 4 4 4 4 4 4 3 3 2 2 2
78 86 95 96 99 95 90 61 42 26 16 15 14 12 9 8 9 8 8 7 6 6 8 7 6 5 5 6 6 6 6 5 4 4 4 4 4 4 3 3 3 3 2
86 93 93 88 77 59 49 33 21 14 13 13 11 10 9 9 8 8 7 6 6 7 8 7 6 5 6 7 7 6 6 5 4 4 4 4 4 4 4 3 3 3 3
89 96 90 81 64 46 33 24 21 15 13 12 10 9 9 8 8 8 6 6 7 7 8 7 6 6 7 8 8 5 4 4 4 4 4 4 4 4 4 3 3 4 4
80 71 67 45 32 24 23 20 14 12 11 9 9 10 8 8 7 6 6 7 7 6 7 7 7 7 8 9 8 5 4 4 4 4 4 4 4 4 4 4 3 4 5
76 69 50 37 29 28 19 13 12 10 10 10 9 8 8 8 6 6 7 8 7 6 7 8 7 8 10 10 9 5 5 4 4 4 4 4 5 4 4 4 4 4 5
52 41 32 27 21 14 12 11 12 11 11 8 8 8 8 6 6 6 7 8 6 6 6 7 7 8 11 12 10 6 5 5 4 4 4 4 5 5 5 5 4 4 5
28 21 15 13 12 11 11 10 10 9 9 8 8 7 6 6 6 7 8 7 6 6 6 7 7 8 11 12 10 6 5 5 5 5 4 5 5 5 5 5 5 4 5
20 17 14 11 9 9 9 9 8 8 8 7 6 6 6 6 7 7 7 6 6 6 6 7 7 9 11 12 10 7 6 5 5 5 5 5 5 5 5 5 5 5 5
10 10 9 9 9 8 9 8 8 8 6 6 5 6 6 7 7 7 6 6 8 7 6 7 7 8 10 11 10 7 6 6 5 5 5 5 5 5 6 6 5 5 6
9 8 8 8 8 8 8 7 6 6 5 5 6 6 6 7 7 6 5 7 8 7 6 7 8 8 10 10 9 8 6 5 6 5 5 5 5 5 5 6 6 6 6
8 8 8 7 7 7 6 5 5 5 5 6 6 6 6 6 5 5 6 8 8 7 7 7 8 8 10 10 9 9 6 6 5 6 6 6 5 5 6 6 6 6 6
8 7 7 6 6 5 5 5 5 6 6 6 6 5 5 5 5 6 7 8 8 8 7 8 8 8 9 9 8 8 7 6 5 5 6 6 6 6 5 6 6 6 6
6 5 5 4 4 5 5 6 6 6 5 5 5 5 5 5 6 7 7 8 8 8 8 8 9 9 8 8 8 8 6 6 5 5 5 6 6 6 6 5 5 6 6
4 4 4 4 5 5 5 5 4 4 4 5 5 5 5 6 6 7 7 7 8 8 7 7 8 8 7 7 8 6 6 5 5 5 5 5 5 6 6 5 5 5 5
4 4 5 5 5 4 4 4 4 5 5 5 5 6 6 6 6 6 6 6 6 7 7 6 6 6 6 6 6 6 5 5 5 5 5 5 5 5 5 5 5 4 4

GFSGL_250_rhum_042.txt.gz
RH
41 45 44 49 53 53 58 76 80 82 75 68 63 66 72 83 74 65 64 72 75 57 43 28 18 12 10 8 6 6 5 5 4 4 4 4 4 4 4 3 3 3 3
65 56 53 55 56 56 68 81 77 79 72 67 68 78 82 73 73 73 85 85 60 44 26 19 14 10 8 7 6 6 5 4 3 4 5 4 4 4 4 4 4 3 3
73 57 59 63 62 63 76 79 74 69 68 73 81 82 74 74 89 95 77 59 38 24 16 13 10 8 7 6 6 5 4 4 4 4 4 4 4 3 3 3 2 2 2
70 66 61 59 60 71 80 78 69 67 70 78 79 77 79 87 92 74 57 40 20 14 12 9 8 7 6 6 5 4 4 5 4 4 4 4 3 3 2 2 2 2 2
68 62 52 58 71 73 77 72 67 69 76 82 77 81 88 87 71 49 29 19 15 12 10 8 8 7 6 5 4 4 5 5 5 4 3 3 3 3 2 2 2 2 2
54 51 60 71 70 78 79 73 74 78 80 78 78 86 84 67 54 34 25 15 12 10 9 8 7 7 6 5 5 5 4 4 4 3 3 3 3 3 3 3 3 2 2
55 62 69 71 82 83 82 81 75 79 78 75 83 87 68 46 28 19 13 11 10 9 9 8 7 7 5 5 6 6 5 4 4 4 3 3 3 3 3 2 3 3 3
68 71 74 83 91 85 80 77 71 68 82 82 80 55 37 29 21 15 11 11 10 9 8 7 7 6 5 6 6 5 5 4 4 4 4 4 3 3 3 3 3 3 3
74 80 88 81 80 77 71 71 74 73 75 72 53 38 30 21 15 14 12 11 10 8 8 8 6 5 6 6 6 5 4 5 5 4 4 4 3 3 3 3 4 3 3
86 87 87 92 85 75 68 75 77 74 67 52 36 22 16 12 13 12 11 11 10 8 8 7 6 6 6 6 6 5 4 6 5 4 4 4 3 3 3 4 4 3 3
90 88 92 84 70 65 69 66 66 68 51 32 24 18 14 15 13 11 9 10 9 8 7 6 6 6 6 6 6 5 6 6 6 5 4 4 3 4 4 4 4 3 3
90 88 80 71 68 64 72 75 70 47 29 22 17 16 16 13 11 10 9 8 8 8 6 6 6 7 6 6 7 5 7 7 6 4 4 4 3 4 4 4 3 3 3
87 84 73 68 68 75 76 63 45 35 29 18 13 10 10 9 10 10 9 8 8 6 6 6 7 7 6 6 6 6 8 7 6 4 4 4 3 4 4 4 4 3 3
84 73 64 65 64 64 48 34 26 18 15 12 9 8 8 8 8 8 9 8 6 6 6 7 7 6 6 6 6 6 8 8 5 4 4 4 4 4 4 4 4 3 3
71 70 66 61 55 40 30 24 22 16 10 9 8 9 8 8 7 7 7 6 6 6 6 7 7 6 6 6 6 6 9 8 6 4 4 4 4 4 4 4 4 3 3
62 57 58 50 33 24 23 18 13 11 9 9 8 7 7 7 7 6 6 6 6 7 7 7 6 6 6 6 7 7 10 9 6 5 5 4 4 4 4 4 4 4 3
57 43 32 26 22 16 10 9 9 10 9 9 8 7 6 6 5 5 6 6 7 7 7 6 6 7 6 6 7 8 10 10 6 5 5 4 4 4 4 4 4 5 4
38 25 17 15 13 10 9 10 9 8 9 9 7 7 5 5 5 6 6 6 7 6 6 6 7 8 7 6 7 8 10 10 7 6 5 5 4 4 4 4 5 5 5
22 20 16 14 12 10 9 8 8 7 7 6 5 5 5 6 5 6 6 6 6 6 5 6 8 8 6 6 7 8 9 10 9 6 5 5 5 4 4 4 5 5 5
13 10 9 8 9 8 8 8 7 6 5 4 5 5 6 6 6 6 5 5 5 6 6 7 8 9 7 7 7 8 9 10 9 7 6 5 5 5 5 4 4 5 5
9 8 8 7 7 6 6 6 5 5 5 5 6 6 6 6 5 5 5 5 6 6 7 8 9 9 8 8 8 8 8 9 8 8 6 5 5 5 5 5 5 5 6
7 7 7 7 6 5 5 4 4 5 6 6 6 5 5 5 5 5 6 6 6 6 7 8 9 9 9 8 9 8 9 9 8 8 6 6 5 5 5 5 5 5 5
7 6 6 5 4 4 4 4 5 6 5 5 5 5 5 5 6 6 6 6 7 7 7 8 8 8 8 8 8 9 8 8 8 8 6 6 6 5 5 6 6 5 5
5 5 4 4 4 4 5 5 5 4 4 4 4 5 5 5 6 6 6 6 6 6 7 7 6 7 8 7 7 8 7 7 7 7 7 6 6 6 5 5 6 5 5
4 4 4 4 4 4 5 4 4 4 4 4 5 5 5 5 5 5 5 5 5 5 5 6 6 6 7 7 6 6 6 6 6 6 6 6 5 5 5 5 5 5 5
4 4 4 4 4 4 4 3 4 4 4 4 4 4 4 4 4 4 4 4 4 4 5 5 5 5 5 6 6 5 5 6 6 5 5 5 5 5 5 5 5 5 5

GFSGL_250_rhum_045.txt.gz
RH
60 63 53 62 64 61 76 67 62 50 64 73 66 56 66 72 77 77 70 65 63 73 69 57 39 27 17 12 10 7 6 5 5 5 4 4 4 3 3 3 3 3 4
65 65 60 66 69 67 60 53 52 64 73 68 57 67 74 79 72 64 60 65 77 67 50 39 29 17 12 10 8 6 6 5 5 5 4 4 4 4 4 4 3 4 4
78 73 73 65 60 54 53 59 65 72 71 62 70 73 74 70 64 59 66 69 65 55 45 36 22 15 10 8 7 6 5 6 5 4 4 4 4 4 3 3 4 3 3
77 66 54 59 58 58 55 63 72 73 64 69 71 71 73 62 61 60 67 70 52 37 27 18 12 10 8 8 8 6 6 5 4 4 4 4 4 3 3 3 2 2 2
71 59 61 56 58 55 58 74 69 70 67 70 75 76 65 62 63 72 60 39 30 21 14 11 9 8 7 9 7 6 6 4 4 5 5 4 3 3 3 3 3 3 2
71 65 57 65 60 63 71 74 76 72 71 75 78 72 66 57 62 52 40 30 21 14 10 10 9 8 8 8 7 6 5 5 5 5 4 3 3 3 3 3 3 2 2
66 58 66 64 68 75 82 81 77 75 84 89 78 63 54 61 51 38 29 19 15 14 10 9 9 9 8 7 7 5 5 6 6 6 5 4 4 4 3 3 2 2 2
60 67 70 74 79 82 80 79 86 89 93 77 57 62 60 55 53 37 23 17 13 11 9 9 9 8 8 7 6 5 5 5 5 5 4 5 5 4 4 3 3 2 2
70 66 70 76 78 80 86 90 92 80 64 60 65 68 59 45 32 26 16 12 11 10 9 9 9 8 7 6 5 6 6 5 5 6 5 6 6 4 4 3 3 3 3
77 79 80 82 87 89 90 82 67 64 60 61 63 48 34 26 20 16 11 10 11 10 9 8 8 7 6 6 6 6 6 5 5 6 5 7 6 4 4 3 3 3 3
85 84 84 83 88 84 78 67 64 63 61 52 41 29 21 17 14 12 10 9 9 9 8 8 7 6 5 6 6 7 5 5 6 6 6 6 5 3 3 3 3 3 3
84 76 76 77 74 72 65 64 62 57 48 34 25 19 13 10 9 10 10 9 8 7 8 6 6 6 6 6 7 6 5 5 6 6 7 6 4 4 3 3 4 4 3
70 71 70 71 68 70 60 62 52 42 33 23 14 11 10 9 8 8 8 8 7 6 6 5 6 6 6 7 6 5 6 6 6 6 8 8 4 4 4 3 4 4 4
67 64 65 67 61 60 56 43 33 24 18 12 10 10 9 8 8 8 7 6 6 5 5 6 6 6 6 6 6 6 6 6 6 7 9 7 4 4 4 3 4 4 4
66 67 64 56 53 47 36 32 22 12 10 9 8 8 8 7 7 6 5 5 5 5 5 6 6 6 6 6 5 6 7 6 6 7 10 7 4 4 4 4 4 4 4
70 59 53 52 40 32 28 20 13 9 10 8 7 6 6 5 5 5 5 5 6 6 6 6 5 6 5 5 6 8 7 6 6 8 9 7 4 4 4 4 4 4 4
61 50 47 34 29 21 15 11 9 9 9 7 6 5 5 5 4 5 6 6 6 6 6 5 5 5 5 6 7 8 7 6 6 8 9 8 5 4 4 4 4 4 4
48 42 32 25 17 13 11 9 8 7 7 7 5 4 4 5 5 5 6 6 6 5 5 5 6 6 6 7 8 9 8 7 7 8 9 8 6 4 4 4 4 4 5
34 25 20 15 11 10 8 7 7 6 6 6 6 4 4 6 6 6 5 5 5 5 6 6 6 6 6 8 9 9 9 7 8 8 9 8 6 5 4 5 4 4 5
22 18 12 9 8 8 6 5 4 5 5 5 5 5 6 6 5 4 5 5 6 6 6 7 7 7 7 8 9 9 9 8 8 8 9 9 7 5 4 5 5 4 4
14 10 9 8 7 5 4 4 4 4 4 5 6 6 6 6 5 5 5 5 6 6 6 7 7 7 7 8 8 9 9 9 9 9 9 9 8 6 5 5 5 5 4
9 8 7 6 5 4 4 4 4 5 4 4 5 4 4 4 4 5 5 6 6 6 6 6 6 7 7 7 8 8 9 9 9 9 8 8 8 6 6 5 5 5 5
7 6 6 4 4 4 4 4 4 5 4 4 4 4 4 4 5 5 5 5 5 5 6 5 5 5 6 6 6 7 8 8 8 8 7 8 8 7 6 5 5 5 5
5 4 4 4 4 4 4 4 4 4 4 3 3 4 4 4 4 4 4 4 4 4 4 4 5 5 5 6 6 6 7 7 6 7 7 7 7 7 6 6 5 5 5
4 4 3 4 4 4 4 3 3 3 3 3 4 4 4 3 3 3 3 3 3 4 4 4 4 5 5 5 5 5 6 6 6 6 6 6 6 6 6 5 5 5 4
4 4 4 4 3 3 3 3 3 3 3 3 3 3 2 2 3 3 3 3 3 3 4 4 4 4 4 5 5 5 5 6 6 5 5 5 5 5 5 5 5 5 5

GFSGL_250_rhum_048.txt.gz
RH
47 50 50 48 50 58 66 69 60 59 60 67 58 52 56 66 67 67 68 74 75 77 62 54 55 50 44 32 23 14 10 6 6 7 5 5 4 5 4 3 3 3 3
48 45 47 49 61 70 73 69 62 56 57 57 55 62 66 67 72 75 74 73 69 60 56 58 50 42 30 20 15 10 7 6 6 6 5 5 5 4 4 4 4 4 3
60 55 58 73 74 66 60 55 58 60 61 59 67 71 72 79 78 73 67 60 54 57 56 48 44 32 25 16 11 9 8 7 6 6 5 5 4 4 4 5 5 4 3
62 59 62 56 52 57 60 67 67 60 62 69 73 75 72 74 76 64 58 56 58 52 40 34 27 22 18 11 9 8 8 7 6 5 5 5 4 4 5 4 4 3 2
58 58 53 56 66 72 72 70 69 68 74 74 74 69 76 66 62 56 58 55 47 40 32 24 18 14 11 8 9 8 8 7 6 6 4 4 4 5 4 4 3 3 3
55 53 63 69 76 74 76 77 78 78 72 64 69 72 63 57 58 58 55 45 33 29 24 17 12 10 9 9 8 8 7 8 6 5 4 4 4 4 4 3 4 4 3
60 67 78 83 79 79 80 81 78 68 66 74 66 58 59 61 58 51 41 37 29 21 16 11 9 9 9 8 7 7 7 6 6 5 5 5 5 4 4 3 4 4 4
72 78 87 85 82 80 80 76 66 73 67 64 65 60 64 60 45 40 34 28 20 13 10 10 9 9 8 7 7 6 5 5 5 6 6 6 5 5 4 4 4 4 3
73 83 87 90 83 84 80 71 69 67 69 68 62 65 65 47 36 29 22 15 12 10 8 9 8 8 8 7 6 5 5 5 5 6 6 5 5 5 5 5 5 3 3
89 100 98 86 93 83 72 73 78 80 74 70 62 57 45 33 22 16 12 10 9 9 8 7 7 7 6 5 5 5 5 5 6 6 6 5 5 5 6 7 5 3 3
99 96 84 91 86 71 77 82 82 79 68 56 51 38 28 20 14 10 10 9 8 8 7 6 6 5 5 5 5 6 6 6 6 6 5 5 5 6 7 7 4 3 3
91 83 88 89 76 85 88 87 81 61 54 49 35 28 19 14 10 8 9 8 7 6 5 5 5 5 5 6 6 7 6 6 6 5 6 6 5 5 8 7 4 3 3
80 85 90 83 84 90 90 77 59 53 41 31 26 18 12 10 9 8 8 6 5 5 5 5 5 6 6 6 6 6 5 6 5 6 7 6 5 6 7 6 4 4 3
82 88 76 82 91 91 72 57 53 38 29 23 15 11 10 9 8 7 6 6 5 5 5 5 6 6 6 6 5 5 5 5 6 7 7 6 6 6 8 6 4 4 3
84 74 83 93 92 71 57 47 30 28 20 13 11 9 8 7 5 6 6 5 5 5 6 6 6 6 5 5 5 5 6 6 7 8 7 6 6 7 8 6 4 4 3
74 83 96 90 66 55 43 28 24 17 13 10 8 7 5 4 4 5 5 6 6 6 6 6 5 5 5 6 6 6 6 6 8 9 8 7 7 7 8 6 4 4 4
92 99 84 63 57 44 28 20 16 13 12 10 7 5 4 4 4 4 6 6 6 7 6 5 5 6 6 6 6 6 7 7 8 9 9 7 7 7 8 7 4 4 4
93 78 63 56 43 30 20 14 11 8 6 6 6 5 4 4 5 5 6 6 6 6 6 6 6 6 6 6 7 7 7 7 8 10 9 8 8 7 8 6 5 4 4
76 62 49 36 26 17 12 9 7 5 5 5 5 5 4 5 5 5 5 5 5 5 5 6 6 6 6 6 7 7 7 7 8 9 9 9 8 7 8 7 5 5 4
62 47 36 24 15 11 9 6 4 4 4 5 5 5 4 5 4 4 4 4 5 5 5 6 6 6 6 6 6 7 7 7 7 8 9 9 9 8 8 7 5 5 5
43 33 20 14 11 8 6 5 4 4 4 5 5 4 4 4 4 4 4 4 5 5 6 6 6 5 5 6 6 6 7 7 7 7 8 8 9 9 8 7 6 5 5
28 20 13 10 7 5 4 4 4 4 4 4 4 3 3 3 3 4 4 4 4 5 5 5 4 4 4 5 5 5 5 6 6 7 7 8 8 8 8 7 6 5 5
18 13 10 6 5 4 4 4 4 3 3 3 3 3 3 3 3 4 4 4 3 3 3 3 4 4 4 4 4 4 5 5 6 6 6 8 7 7 8 7 6 5 5
12 8 5 4 4 4 4 4 4 3 3 3 3 3 3 3 3 2 2 2 3 3 3 3 4 4 4 4 4 5 4 5 5 6 6 6 7 7 7 7 6 5 5
8 5 4 4 4 4 4 3 3 3 3 3 3 3 3 2 2 2 2 2 3 3 3 3 3 4 4 4 4 4 4 4 5 5 6 6 6 6 6 6 6 6 5
5 4 4 4 4 3 3 3 3 3 3 3 2 2 2 2 2 2 2 2 2 2 3 3 3 3 4 4 4 4 4 4 4 5 5 6 6 6 5 5 5 5 5

GFSGL_250_rhum_051.txt.gz
RH
59 54 48 49 45 44 46 53 62 60 55 68 66 62 64 60 60 61 58 58 63 70 69 56 57 58 51 41 33 26 20 13 9 9 8 7 6 6 6 5 4 4 4
60 61 52 44 42 49 60 61 57 71 80 73 61 62 65 66 64 62 64 68 75 72 59 62 60 50 38 28 21 17 11 8 7 8 7 6 6 5 6 5 4 3 3
47 50 59 63 66 64 58 56 58 60 63 70 77 74 77 78 71 76 82 77 68 58 50 47 43 36 26 19 13 10 8 8 7 7 7 6 5 5 5 4 4 3 3
93 96 92 75 66 56 57 54 54 72 83 86 84 89 89 76 80 83 78 72 60 50 42 36 29 23 17 12 9 9 8 7 8 6 6 6 5 5 4 4 3 4 4
96 85 66 64 60 57 53 59 74 88 90 87 95 96 82 79 85 83 72 54 47 38 29 27 22 15 11 9 8 8 8 7 6 6 5 5 4 4 4 4 5 4 4
77 67 68 60 52 58 69 82 89 94 90 95 97 86 83 76 79 64 54 49 37 30 27 18 13 10 9 8 8 7 7 6 6 5 4 4 4 4 4 5 5 4 3
71 74 69 66 65 76 87 92 95 88 93 93 87 76 81 86 68 56 48 40 33 24 17 12 10 9 8 6 6 6 5 5 4 4 4 4 4 4 5 5 4 4 4
67 64 62 68 82 92 97 91 81 86 91 80 78 87 93 69 58 53 43 31 25 16 11 10 9 8 6 5 5 4 4 4 4 5 5 5 5 5 5 4 4 4 4
75 78 80 86 96 92 89 82 94 98 88 86 96 98 72 61 60 48 31 22 17 11 9 8 7 5 5 5 5 4 4 5 5 6 6 5 5 6 5 4 4 4 3
82 87 95 95 93 84 83 96 93 87 87 96 95 80 67 61 47 32 21 17 14 9 7 6 5 5 5 5 5 5 5 5 6 6 5 5 5 5 5 5 4 4 4
95 100 98 82 79 82 94 91 90 91 98 100 93 72 63 47 31 22 15 12 10 8 6 5 5 5 5 5 6 6 6 5 5 5 4 5 5 5 6 6 5 4 5
98 91 80 79 84 96 95 90 92 97 99 94 73 67 55 38 25 17 11 10 8 6 5 5 5 5 6 6 6 6 5 5 5 5 5 5 5 6 7 6 5 5 6
95 81 80 89 97 94 93 94 100 95 90 73 63 52 40 27 17 11 9 7 6 5 5 5 6 6 7 7 6 5 5 5 5 6 5 5 6 6 6 5 5 6 5
80 80 89 94 93 91 91 92 83 82 67 64 55 34 21 15 11 8 7 6 5 5 6 6 6 7 6 6 5 5 5 6 6 6 6 6 6 7 6 6 6 7 5
80 87 90 88 88 90 90 78 78 73 65 49 32 18 13 10 8 6 6 5 5 6 6 6 6 5 5 5 5 5 6 6 6 7 6 6 7 8 7 6 6 7 5
88 87 86 85 88 88 74 72 67 64 56 37 22 13 9 6 5 5 5 6 6 6 6 5 5 5 5 5 5 6 6 6 7 7 7 7 7 8 8 6 6 6 6
87 89 88 89 87 72 72 64 58 62 49 33 18 9 6 5 5 5 5 5 6 4 5 5 4 4 5 5 5 6 6 6 6 7 7 7 7 8 8 7 7 7 5
91 85 87 82 70 64 52 49 38 23 15 12 10 7 6 5 5 5 4 4 5 4 4 4 4 4 5 5 6 6 6 6 6 6 7 7 8 8 8 8 7 6 5
84 84 77 68 54 46 45 35 21 14 10 6 6 6 5 5 5 4 4 3 4 4 4 4 4 5 5 5 5 5 5 5 6 6 6 7 7 8 8 8 8 7 6
84 74 62 51 46 39 31 22 15 10 7 5 5 5 5 5 4 3 3 3 4 4 4 4 5 5 4 4 4 4 4 4 5 5 5 6 7 7 8 8 8 7 7
72 61 51 39 32 26 18 14 9 6 5 4 5 5 5 4 3 3 3 3 4 4 4 4 4 4 4 3 3 4 4 4 4 4 5 6 6 6 8 8 7 7 7
49 40 33 28 22 16 12 8 6 4 4 5 5 4 4 3 3 3 3 3 3 3 3 3 3 3 3 3 3 4 4 4 4 4 5 5 6 6 7 7 6 6 7
35 29 25 18 14 11 7 5 4 4 5 4 4 3 3 3 3 3 2 2 2 2 2 3 3 3 3 3 3 4 4 4 4 4 4 4 5 6 6 6 6 6 6
27 22 16 12 10 7 5 4 4 5 4 4 3 3 3 3 3 2 2 2 2 2 2 3 3 3 3 3 3 3 4 4 4 4 4 4 5 6 6 6 6 6 6
18 14 11 8 6 4 4 4 5 4 3 3 3 3 3 3 2 2 2 2 2 2 2 2 2 2 3 3 3 3 3 4 4 4 4 4 4 5 5 6 6 6 5
13 10 7 5 4 4 4 4 4 3 3 3 3 2 2 2 2 2 2 2 2 2 2 2 2 2 2 3 3 3 3 3 4 4 4 4 4 4 5 5 5 5 5

GFSGL_250_rhum_054.txt.gz
RH
92 86 100 92 60 48 47 48 47 51 54 58 58 68 74 72 69 69 70 73 72 81 80 79 66 55 47 38 31 24 20 16 11 9 8 6 6 6 6 6 5 4 4
80 100 100 80 59 65 68 58 63 58 57 65 66 66 68 65 78 80 77 77 90 89 80 76 65 50 41 31 24 17 14 11 8 8 7 6 5 4 5 5 4 4 4
98 100 82 78 70 78 85 82 64 61 67 66 68 72 70 87 86 84 88 93 87 92 93 69 52 48 36 22 16 13 10 9 8 6 6 5 4 4 4 4 4 3 3
92 71 74 88 79 88 90 76 72 72 71 69 84 79 87 89 90 94 93 93 100 93 70 57 53 38 22 18 13 10 9 8 6 5 4 4 4 4 4 4 3 3 3
76 88 88 80 80 91 82 71 74 76 77 88 87 93 90 91 92 99 100 98 88 81 71 52 37 27 20 15 10 8 7 6 5 5 4 4 4 4 4 4 4 4 4
81 79 79 94 97 84 76 73 66 74 86 86 94 85 96 99 98 100 99 88 83 73 52 40 33 21 14 10 8 6 5 5 5 4 4 4 4 4 4 4 5 5 5
98 100 100 92 79 75 72 69 78 78 80 86 86 97 100 99 99 95 87 87 77 56 42 38 26 15 10 7 6 5 4 4 5 4 4 5 5 5 5 4 5 5 5
100 89 71 70 68 68 67 72 72 78 87 97 100 100 98 98 91 84 85 76 60 50 43 28 16 11 7 6 5 5 4 5 5 6 6 5 5 4 4 4 4 4 5
69 65 63 68 68 72 76 78 82 88 91 100 100 94 96 87 91 88 74 67 57 45 28 16 10 7 6 5 5 5 5 6 6 6 6 5 4 4 4 4 4 4 4
63 65 70 76 82 85 88 89 94 97 100 100 93 86 93 100 87 79 71 58 38 25 16 11 6 6 6 5 6 5 5 6 6 6 6 5 5 5 5 4 4 4 5
64 72 77 84 88 96 96 95 100 100 99 94 92 100 100 87 83 77 56 33 24 16 12 7 6 5 5 6 6 6 6 6 5 6 6 5 5 6 6 5 5 5 5
80 87 95 96 98 93 94 100 100 94 91 98 100 100 94 84 63 50 35 23 15 11 8 6 6 5 6 6 6 6 5 6 5 6 6 6 6 6 6 6 6 6 6
94 100 100 99 95 94 100 98 96 98 99 100 100 97 83 64 52 37 23 16 12 8 6 6 6 6 6 6 6 5 5 5 5 5 6 6 6 6 6 6 7 7 7
100 100 99 94 92 99 97 97 99 100 100 100 89 70 52 43 36 27 18 12 8 6 6 6 6 6 5 5 5 5 5 5 5 6 6 6 6 6 7 6 7 8 8
100 94 82 87 95 96 99 100 100 100 92 76 61 43 28 23 22 17 13 9 6 5 5 7 6 5 5 4 5 5 5 5 5 6 6 6 6 6 7 7 7 8 7
83 76 86 90 96 99 99 100 98 91 83 73 53 35 24 18 12 10 8 6 5 5 5 5 4 4 4 4 4 4 5 5 6 6 6 6 6 6 6 7 7 8 7
78 89 95 96 97 96 94 87 85 88 76 61 42 33 22 14 12 7 5 5 6 5 5 4 4 4 4 4 4 4 5 5 5 5 5 6 6 6 6 7 7 7 7
87 92 88 95 96 91 80 70 54 50 39 36 37 24 16 12 8 5 5 6 5 5 4 4 4 4 4 4 4 4 4 4 4 4 4 5 5 6 6 7 7 7 7
88 90 95 92 84 80 63 51 46 32 20 16 13 13 10 7 5 4 5 5 4 3 4 4 4 4 3 4 4 3 3 3 4 4 4 4 5 5 5 6 6 7 8
94 92 86 81 75 59 53 38 23 19 15 12 10 7 6 5 5 5 5 4 3 3 4 3 3 3 3 3 3 3 3 3 4 4 4 4 4 5 5 6 6 6 7
87 85 76 64 53 45 30 19 18 14 11 10 7 5 4 4 5 5 4 3 3 3 3 3 2 2 3 3 3 3 3 3 3 4 4 4 4 5 5 5 5 6 6
76 67 55 47 38 26 18 17 13 10 8 6 5 4 4 4 4 3 3 3 3 2 2 2 2 2 3 3 3 3 3 3 3 4 3 4 4 4 5 5 5 6 6
57 47 44 36 24 18 15 11 9 7 6 4 4 4 4 3 3 3 3 3 3 2 2 2 2 2 3 3 3 3 3 3 3 3 3 4 4 4 4 5 5 5 5
47 44 31 21 17 13 11 9 7 5 4 4 4 4 3 3 3 3 3 2 2 2 2 2 2 2 2 2 2 3 3 3 3 3 3 4 4 4 4 4 5 5 5
34 23 17 14 12 10 9 7 5 4 4 4 4 3 3 3 3 2 2 2 2 2 2 2 2 2 2 2 2 2 2 3 3 3 3 3 4 4 4 4 5 5 5
20 16 13 11 9 8 6 4 4 4 4 3 2 2 2 2 2 2 2 2 2 2 2 2 2 2 2 2 2 2 2 3 3 3 3 3 4 4 4 4 4 5 5

GFSGL_250_rhum_057.txt.gz
RH
44 63 89 100 100 100 100 100 83 76 72 76 61 67 69 65 59 63 63 65 70 75 73 71 76 84 93 92 83 70 49 34 24 16 9 7 4 4 3 3 3 3 3
60 77 97 100 100 100 100 96 91 99 85 71 75 83 79 67 74 64 67 65 74 74 75 82 92 92 90 85 72 52 36 24 14 9 7 5 4 3 3 3 3 3 3
82 84 99 100 100 100 79 100 100 81 80 78 86 83 76 76 70 68 78 94 89 86 90 91 92 88 81 73 55 40 28 20 11 8 6 5 4 4 3 3 3 3 3
86 91 100 100 100 100 97 80 84 83 90 96 91 81 87 84 81 86 86 81 84 91 92 91 88 78 77 64 44 31 26 13 9 7 5 5 4 4 4 4 4 3 4
82 86 94 81 81 74 75 74 80 85 99 96 89 96 84 82 89 93 90 92 95 97 92 88 79 81 74 50 33 28 18 11 8 6 5 5 4 4 4 4 5 4 4
82 79 66 64 75 71 70 79 96 100 97 97 94 84 80 85 90 82 81 87 88 87 88 80 81 82 52 34 29 22 13 7 7 6 5 5 5 5 5 5 5 4 4
64 62 66 71 74 89 99 100 96 80 85 83 81 82 87 83 77 80 87 93 91 86 84 80 82 56 33 25 21 14 8 7 6 6 6 5 5 5 5 5 4 4 4
67 72 76 85 99 100 97 79 74 81 83 77 75 78 85 88 83 88 92 96 89 87 84 83 56 37 26 19 14 9 6 6 6 6 7 6 5 5 5 5 4 4 5
84 92 99 100 92 74 74 75 82 83 77 79 83 90 88 90 94 99 93 86 89 90 86 58 39 28 19 13 9 6 6 6 7 6 7 6 5 5 5 5 5 5 5
97 89 80 73 73 74 82 89 88 83 84 90 88 90 94 99 93 91 86 85 86 82 61 46 30 18 12 10 7 6 6 7 6 6 6 5 6 5 5 5 5 5 5
75 74 76 80 87 89 86 80 80 85 91 91 94 95 88 91 94 94 90 80 66 48 42 28 18 12 8 7 6 6 7 7 5 5 5 5 5 5 5 5 6 5 5
79 80 84 88 90 91 86 88 91 95 91 87 94 92 96 96 94 92 85 64 45 28 21 16 12 9 6 6 6 6 6 5 4 4 4 4 5 5 5 6 6 6 6
84 84 86 88 88 89 95 98 97 86 85 92 90 92 99 100 100 85 59 47 30 18 14 10 8 6 5 5 6 6 5 4 4 4 4 4 5 5 5 6 6 6 6
77 80 87 85 90 94 92 93 90 90 88 90 90 100 99 83 65 49 42 25 23 18 12 8 5 5 5 6 6 5 4 4 4 4 4 4 5 5 6 6 6 6 6
84 85 82 87 81 82 87 84 86 91 90 94 93 81 66 54 46 30 19 16 13 10 8 6 5 5 5 5 4 4 4 4 4 4 4 4 5 5 5 6 5 6 6
82 85 82 94 96 87 85 97 98 94 90 85 69 53 41 34 23 14 12 11 9 6 5 5 5 5 4 4 4 4 4 4 4 4 4 4 4 5 5 5 4 5 6
99 97 98 92 88 90 99 99 96 95 89 71 61 43 33 20 14 12 10 8 6 5 5 5 5 4 3 3 4 4 4 3 3 3 3 3 3 4 4 4 4 5 5
93 90 83 89 92 95 92 90 92 76 72 61 45 34 21 16 12 9 6 5 5 5 5 4 3 3 3 3 4 4 3 3 3 3 3 3 3 4 4 4 4 5 5
73 78 85 90 90 86 88 86 73 63 49 32 25 18 16 14 11 8 5 4 5 5 4 3 3 3 3 3 3 3 3 3 3 3 3 3 3 4 4 4 4 5 5
85 87 94 87 87 85 81 70 60 44 29 19 15 12 12 11 9 6 5 5 4 4 3 3 3 3 3 3 3 3 3 3 3 3 3 3 3 4 4 4 4 4 5
90 93 92 89 86 81 63 58 41 29 19 14 11 9 7 6 5 5 5 4 3 3 3 3 3 2 3 2 3 3 3 3 3 3 3 3 3 4 4 4 4 4 5
93 90 90 88 69 59 50 38 28 19 13 10 9 7 5 4 4 4 4 3 3 3 3 3 2 2 2 2 2 3 3 3 3 3 3 3 3 3 4 4 4 4 4
92 92 80 63 53 46 34 24 17 12 9 8 6 5 4 4 4 3 3 3 2 2 3 2 2 2 2 2 2 2 2 3 3 3 3 3 3 3 4 4 4 4 4
83 68 55 51 39 29 21 14 11 9 7 6 4 4 4 4 3 3 3 3 2 2 2 2 2 2 2 2 2 2 2 3 3 3 3 3 3 3 4 4 4 4 4
58 54 46 33 25 18 13 10 8 6 5 4 4 4 3 3 3 3 3 2 2 2 2 2 2 2 2 2 2 2 3 3 3 3 3 3 3 3 3 4 4 4 4
46 36 26 20 15 11 10 8 6 4 4 4 4 3 3 3 3 2 2 2 2 2 2 2 2 2 2 2 2 2 2 2 3 3 3 3 3 3 3 4 4 4 4

GFSGL_250_rhum_060.txt.gz
RH
61 49 45 53 66 96 100 100 100 100 100 100 93 94 93 77 51 54 78 66 70 82 88 82 65 69 68 61 70 81 73 70 67 67 54 41 23 17 10 6 4 4 4
52 45 37 41 63 79 87 100 100 100 100 100 100 96 96 100 100 100 86 75 84 88 77 73 79 83 85 82 88 82 74 68 61 52 45 28 18 11 7 5 4 4 5
34 33 34 43 64 82 95 100 100 100 100 100 100 100 96 89 90 82 85 80 96 98 88 83 97 82 78 90 82 78 71 62 49 35 27 19 13 8 6 5 5 5 4
29 34 39 49 72 85 100 100 100 100 100 100 100 91 87 96 88 87 88 99 97 95 86 89 76 85 96 86 79 70 62 54 38 24 18 15 11 6 5 5 5 5 4
69 66 79 75 85 92 97 100 100 100 100 89 78 84 90 92 92 88 100 100 100 86 85 82 83 90 89 83 68 65 60 41 25 18 15 13 8 5 5 6 6 5 4
80 87 77 92 100 100 100 98 97 78 67 65 86 90 98 98 99 97 91 94 76 79 84 86 91 89 89 69 70 62 48 31 20 15 13 10 5 5 6 6 5 5 4
42 58 70 80 86 88 83 70 63 66 84 92 97 90 92 100 100 100 92 85 90 86 88 90 91 87 68 73 54 43 35 25 20 13 10 6 5 5 6 5 5 5 4
61 66 69 68 67 67 68 74 85 96 98 91 86 93 100 99 93 82 82 86 87 91 92 94 86 78 68 45 40 32 22 19 12 10 6 5 6 5 6 5 4 4 4
67 70 69 68 69 72 80 86 84 84 84 87 100 100 99 87 77 81 87 83 89 91 95 85 76 68 54 39 29 18 17 12 7 6 5 6 6 5 5 4 4 4 4
66 70 72 74 75 78 86 90 87 90 98 100 97 82 78 79 81 80 83 87 90 88 84 85 74 53 48 25 17 14 11 7 5 5 6 6 5 5 4 4 5 4 4
82 82 86 89 90 88 88 93 100 100 93 81 76 81 84 80 87 87 89 88 78 75 84 66 52 34 23 19 13 10 6 4 5 6 5 5 4 5 4 4 5 4 4
100 100 100 99 100 100 99 94 88 87 83 83 88 89 82 98 92 90 86 86 87 78 57 43 31 23 16 12 9 6 4 5 5 6 4 4 4 4 4 4 5 5 5
98 92 93 99 100 100 100 98 96 88 87 93 91 84 92 85 87 87 90 92 87 72 52 36 21 15 11 8 6 5 5 5 5 4 4 3 4 4 4 4 4 5 5
82 90 99 100 91 84 83 88 85 81 83 88 80 75 78 83 81 77 79 83 70 50 35 23 17 12 7 5 5 5 5 4 4 4 4 3 4 4 3 4 4 4 4
95 78 90 99 99 97 87 74 72 84 81 77 77 78 83 85 78 78 70 53 36 27 18 13 10 6 5 4 5 5 4 3 4 4 3 3 3 3 3 3 4 4 4
92 88 90 99 100 99 87 74 82 77 79 71 72 79 77 69 69 52 37 30 22 15 12 8 6 4 4 5 5 4 3 3 4 3 3 3 3 3 3 3 3 4 4
84 87 96 100 98 92 76 71 69 74 75 83 85 74 68 60 43 34 28 20 14 11 7 5 4 4 5 4 3 3 3 3 3 3 3 3 3 3 3 3 3 3 4
92 88 82 87 84 78 73 75 77 86 93 81 68 70 55 38 30 22 14 12 10 7 4 4 5 4 4 3 3 3 3 3 3 3 3 3 3 3 3 3 3 3 4
93 89 92 85 78 72 80 88 94 86 74 64 61 46 42 31 22 13 11 8 6 5 4 5 4 3 3 3 3 3 3 3 3 2 3 3 3 3 3 3 3 3 4
98 88 79 71 76 85 93 91 78 66 60 50 42 37 29 22 14 11 9 7 5 5 5 4 3 3 3 3 3 3 2 2 3 2 2 3 3 3 3 3 3 4 4
76 73 70 77 91 84 75 71 59 54 46 41 34 25 18 12 10 8 6 5 5 5 4 3 3 3 2 2 2 2 2 2 2 2 2 2 3 3 3 3 3 3 4
73 78 87 79 71 69 61 53 47 42 39 32 24 16 11 8 6 5 5 5 4 3 3 3 2 2 2 2 2 2 2 2 2 2 2 2 2 3 3 3 3 3 4
88 84 70 67 62 52 49 46 42 36 27 20 13 10 8 6 5 5 4 4 3 3 3 2 2 2 2 2 2 2 2 2 2 2 2 2 3 3 3 3 3 3 4
71 64 61 53 52 48 44 37 29 22 15 10 8 6 5 4 4 4 3 3 3 2 2 2 2 2 2 2 2 2 2 2 2 2 2 3 3 3 3 3 3 3 3
58 55 53 48 44 39 30 22 16 11 8 7 5 4 4 4 3 3 3 2 2 2 2 2 2 2 2 2 2 2 2 2 2 2 2 2 3 3 3 3 3 3 3
50 46 40 38 32 22 16 12 9 7 5 4 4 4 3 3 2 2 2 2 2 2 2 2 2 2 2 2 2 2 2 2 2 2 2 2 2 3 3 3 3 3 3

GFSGL_250_rhum_063.txt.gz
RH
72 69 54 48 74 64 59 63 83 100 96 96 91 93 100 100 82 82 94 89 77 94 98 96 97 80 79 87 76 72 76 79 66 70 65 71 64 46 29 22 20 14 11
47 41 61 45 46 52 52 48 56 69 99 100 100 100 100 100 100 100 100 100 100 100 88 85 78 87 94 92 78 79 73 66 67 65 77 69 50 39 29 20 14 11 9
56 54 58 51 40 35 34 35 44 56 71 81 95 100 100 100 100 100 100 98 98 86 94 92 100 100 79 79 77 80 77 76 72 76 68 54 42 30 18 14 10 10 7
40 40 37 34 33 42 46 47 41 46 64 83 93 99 100 100 100 96 99 91 92 100 96 98 89 88 94 92 81 83 78 77 78 71 56 42 31 19 15 9 8 7 5
46 48 55 55 55 60 65 68 69 66 80 88 91 95 100 99 100 90 85 99 98 97 100 88 93 92 95 88 89 85 83 81 75 57 41 25 19 16 11 8 6 5 5
54 66 77 65 48 50 52 52 62 77 85 93 100 100 95 84 91 99 93 96 100 93 83 90 93 91 83 88 94 94 94 83 65 50 32 21 16 14 10 7 5 5 6
49 61 61 64 72 80 91 97 99 96 90 85 89 98 100 99 97 96 93 85 89 99 99 98 96 87 86 85 78 82 74 69 55 41 30 23 14 11 7 5 5 5 5
46 58 69 74 78 82 80 84 88 92 90 92 96 97 98 96 94 94 100 100 100 95 91 95 78 80 88 87 81 66 54 44 29 22 17 16 11 7 5 5 5 5 4
51 57 61 63 68 75 80 84 87 91 97 100 100 99 100 100 99 88 83 80 78 85 84 81 88 79 79 78 68 62 49 42 27 13 10 9 6 4 5 5 4 4 4
47 49 60 79 88 97 100 98 98 100 100 100 100 96 90 97 86 80 70 64 63 74 89 93 78 72 76 73 63 54 39 28 18 12 8 5 4 5 5 4 3 3 4
53 64 84 98 96 93 100 100 99 98 100 100 100 100 100 100 91 82 75 68 70 82 86 78 77 79 74 62 50 37 26 15 12 8 5 4 5 5 4 4 3 3 4
96 97 100 100 100 100 100 98 100 100 100 100 100 100 100 92 75 73 72 71 74 78 74 79 83 73 56 46 34 25 15 10 8 5 5 5 4 4 4 4 4 4 3
100 100 95 97 95 98 97 95 100 100 100 100 100 97 87 80 76 80 79 78 79 81 85 77 60 52 45 34 24 16 10 6 5 5 5 4 3 3 4 4 3 3 3
96 93 87 85 90 100 100 100 100 100 99 91 85 74 73 79 84 82 80 83 78 79 66 56 52 42 31 22 16 10 6 5 5 5 4 3 3 3 3 3 3 3 3
96 100 100 95 96 100 100 100 100 98 87 76 71 80 84 86 78 73 70 71 63 55 50 42 32 24 17 12 8 5 5 5 4 4 3 3 3 3 3 3 3 3 3
96 86 88 97 99 98 95 100 92 84 84 92 93 88 82 72 67 63 61 54 52 42 34 28 20 13 9 6 5 5 5 4 3 3 3 3 3 3 3 3 3 3 3
89 94 99 97 94 96 92 86 81 89 91 87 84 72 63 59 56 55 54 46 36 30 22 15 11 8 6 4 4 4 4 3 3 3 3 3 3 3 2 2 3 3 3
97 98 96 87 79 78 78 77 78 80 77 60 60 67 65 54 56 50 40 32 26 18 12 9 7 5 5 4 4 3 3 3 3 3 3 2 2 2 2 2 3 3 3
82 80 82 77 72 68 61 58 61 63 70 70 60 55 55 56 49 42 33 23 16 11 9 6 5 5 4 4 3 3 3 3 3 3 2 2 2 2 2 2 3 3 3
67 61 47 45 43 41 46 60 79 87 79 70 59 53 51 45 37 30 21 15 10 8 6 5 5 4 4 3 3 3 3 2 2 2 2 2 2 2 2 2 3 3 3
45 51 53 44 42 52 71 94 95 78 71 63 52 51 45 34 27 19 13 9 7 5 5 5 4 3 3 3 2 2 2 2 2 2 2 2 2 2 2 2 3 3 3
89 84 77 78 88 100 99 92 76 71 63 51 48 40 30 24 17 11 8 6 5 5 4 4 3 3 2 2 2 2 2 2 2 2 2 2 2 2 2 3 3 3 3
92 84 85 99 99 95 89 67 66 54 47 43 34 25 19 14 10 6 5 5 4 4 3 3 2 2 2 2 2 2 2 2 2 2 2 2 2 2 2 3 3 3 3
83 98 100 100 97 75 65 57 47 42 37 27 20 15 11 8 5 5 4 4 3 3 2 2 2 2 2 2 2 2 2 2 2 2 2 2 2 2 2 3 3 3 3
100 99 95 83 64 57 47 43 38 30 21 16 12 8 6 4 4 4 3 3 2 2 2 2 2 2 2 2 2 2 2 2 2 2 2 2 2 2 2 3 3 3 3
84 74 63 56 46 42 37 31 21 16 12 8 6 4 4 3 3 3 2 2 2 2 2 2 2 2 2 2 2 2 2 2 2 2 2 2 2 2 2 2 3 3 3

GFSGL_250_rhum_066.txt.gz
RH
62 56 48 45 42 66 70 93 90 90 72 65 60 56 58 63 67 84 100 100 100 100 97 100 99 100 96 92 91 97 87 82 77 75 77 86 84 67 60 56 55 49 32
47 47 95 91 85 100 93 76 66 58 54 59 57 47 43 51 92 100 100 100 100 100 100 97 100 100 100 99 95 90 90 83 71 71 88 82 76 64 62 61 62 38 23
64 96 100 79 82 74 64 57 48 43 40 35 34 34 38 46 57 72 78 89 94 98 97 100 100 99 100 100 98 93 72 69 74 75 67 66 70 70 61 57 39 23 16
72 68 62 68 76 44 44 44 40 39 40 39 46 63 58 66 72 76 88 97 100 100 100 100 98 100 93 79 74 72 71 64 60 63 64 74 70 63 58 41 23 15 11
75 70 63 67 45 45 44 49 45 45 48 53 57 70 86 95 100 100 100 100 100 100 95 93 98 80 76 73 85 78 72 67 70 74 84 67 63 58 39 24 20 9 9
59 62 57 60 52 45 43 48 55 60 62 64 67 69 70 72 78 84 87 92 94 98 100 96 82 86 89 86 69 65 68 70 70 73 70 79 64 45 30 21 12 9 8
79 77 78 72 59 44 42 49 59 64 63 67 75 81 88 93 93 97 100 100 100 92 92 99 99 94 89 73 69 72 76 76 82 79 76 59 37 35 24 12 8 7 5
86 87 88 78 51 47 51 54 51 54 67 85 96 100 98 100 100 99 91 88 98 100 100 96 89 96 85 78 76 79 81 88 87 68 51 38 30 21 13 8 6 5 5
90 90 83 67 48 45 46 47 49 70 98 100 100 100 95 93 97 100 100 94 94 90 94 93 83 84 81 77 82 80 86 84 70 58 43 28 20 13 9 6 4 5 5
98 98 97 92 91 91 92 92 92 100 97 96 90 87 96 97 99 92 87 83 89 88 89 92 88 86 84 84 83 77 66 66 54 45 34 19 13 9 7 4 5 5 4
98 100 100 98 92 95 100 100 100 99 96 86 84 82 85 97 100 100 88 82 84 85 84 94 92 86 83 83 75 71 62 47 39 26 18 11 8 6 5 5 5 4 3
95 99 100 100 100 100 100 98 94 100 95 98 96 94 91 98 86 84 82 89 94 98 98 92 90 85 75 68 64 55 42 30 21 15 11 9 6 4 5 5 4 4 3
81 95 98 100 100 99 98 100 100 100 100 99 94 92 89 80 80 81 88 94 87 84 87 83 74 61 60 59 52 39 26 19 14 11 8 5 4 5 4 3 4 4 4
95 100 100 100 100 99 100 97 97 94 94 90 84 85 83 82 83 81 83 76 76 79 80 72 62 61 57 44 36 28 21 14 10 7 6 5 5 4 3 3 4 3 3
80 95 97 100 100 100 100 99 95 95 91 94 98 87 82 89 93 76 66 62 64 75 71 62 55 48 40 34 27 20 14 8 5 5 5 4 4 3 3 3 3 3 3
85 97 100 100 100 100 99 94 95 94 95 86 74 65 60 62 62 57 54 64 65 68 58 47 42 34 28 22 17 12 8 5 4 4 5 3 3 3 3 3 3 3 3
91 100 100 100 95 92 96 100 98 90 84 68 65 52 50 49 52 62 63 59 67 57 45 40 31 24 17 13 9 6 5 4 4 3 4 3 3 3 3 3 3 3 3
92 97 100 93 85 75 66 66 62 57 51 47 51 60 66 71 68 73 85 80 59 44 35 28 19 14 11 8 6 5 5 4 3 2 3 3 2 2 3 2 2 2 2
91 95 94 90 87 81 72 60 48 44 46 58 66 61 68 79 88 95 85 57 46 36 25 18 13 9 7 5 5 4 3 3 2 3 2 2 2 2 2 2 2 2 2
100 100 98 92 80 66 55 54 62 71 79 80 78 81 91 91 90 71 50 38 28 20 15 11 8 6 5 4 4 3 3 2 2 2 2 2 2 2 2 2 2 2 2
88 71 63 60 62 72 78 80 83 90 93 91 93 96 97 84 74 46 36 25 18 12 8 6 6 5 4 3 3 2 2 2 2 2 2 2 2 2 2 2 2 2 2
72 71 81 88 95 92 88 94 100 100 100 100 97 81 75 64 42 32 23 15 10 7 6 5 4 4 3 2 2 2 2 2 2 2 2 2 2 2 2 2 2 2 2
88 97 100 99 96 100 100 100 100 100 92 87 76 64 48 36 28 18 12 8 6 5 4 4 3 3 2 2 2 2 2 2 2 2 2 2 2 2 2 2 2 2 2
87 87 94 100 100 100 100 98 96 83 73 64 48 38 32 21 12 8 6 5 4 4 3 2 2 2 2 2 2 2 2 2 2 2 2 2 2 2 2 2 2 2 2
100 100 99 94 97 98 87 81 75 64 48 38 30 21 12 9 6 5 4 4 3 2 2 2 2 2 2 2 2 2 2 2 2 2 2 2 2 2 2 2 2 2 2
95 90 87 85 79 76 70 67 54 35 29 23 14 9 6 5 4 4 3 3 2 2 2 2 2 2 2 2 2 2 2 2 2 2 2 2 2 2 2 2 2 2 2

GFSGL_250_rhum_069.txt.gz
RH
38 55 46 43 49 100 100 98 99 100 100 100 100 100 96 79 59 54 56 51 53 48 59 70 81 86 90 90 86 95 93 81 75 94 77 83 92 70 66 64 64 59 58
100 100 100 99 100 100 100 99 100 100 100 100 100 100 85 54 45 39 42 46 58 78 76 73 72 79 91 94 86 92 92 84 72 81 97 79 82 81 76 69 74 72 63
100 98 100 94 95 100 100 100 100 100 100 100 100 86 52 45 44 44 42 45 57 68 77 83 86 87 83 85 85 73 70 84 90 83 96 99 88 77 71 75 72 65 49
98 93 100 100 99 100 100 100 94 94 97 85 50 44 44 44 48 52 55 58 58 61 69 75 77 78 84 71 68 83 88 87 88 89 85 77 76 80 79 70 61 49 40
100 100 100 100 90 78 72 72 65 54 56 49 43 41 42 48 52 54 57 65 76 87 84 74 76 84 85 77 79 82 77 79 82 78 76 82 94 83 69 55 42 34 22
72 77 64 61 59 58 51 46 62 68 58 54 45 41 44 49 50 54 79 87 75 76 92 84 81 73 66 71 74 75 78 83 83 84 93 91 78 79 62 50 39 31 19
48 53 48 46 51 53 51 52 59 69 73 61 46 46 47 48 53 78 82 91 95 83 82 78 74 74 77 74 84 84 94 92 91 91 83 81 65 60 56 42 33 20 11
46 54 67 74 83 80 77 87 88 84 82 77 76 82 91 91 96 99 93 93 83 79 79 74 76 77 79 84 97 100 99 99 90 86 74 62 58 50 42 29 19 11 8
47 38 37 38 44 58 67 80 93 96 95 96 99 100 100 100 100 88 80 90 74 76 75 76 86 88 94 87 80 84 92 82 71 61 61 58 47 38 29 18 12 8 6
62 53 43 37 39 51 72 80 92 95 96 98 100 99 94 88 81 77 80 75 73 80 93 94 93 91 87 94 92 85 70 58 54 62 59 52 38 26 18 11 7 5 5
75 69 67 58 44 48 59 77 88 96 90 86 83 82 80 80 84 81 82 91 94 94 98 99 87 81 80 76 71 62 51 47 52 47 43 34 27 17 11 8 5 5 5
83 75 66 63 56 51 57 72 78 74 82 84 86 85 85 91 95 92 87 89 96 88 80 74 73 75 66 63 64 56 47 47 41 35 27 21 14 10 7 5 5 4 4
84 79 75 70 64 58 52 66 83 99 97 99 99 97 97 100 100 98 97 96 93 95 79 79 74 65 62 59 68 60 45 45 34 26 20 13 9 6 5 5 4 4 3
84 87 81 72 68 61 55 57 84 99 100 100 100 100 100 94 90 80 80 86 78 72 66 63 58 61 63 65 77 70 50 35 23 17 12 8 6 5 4 4 3 3 3
99 96 87 86 78 66 61 65 94 100 100 100 99 97 92 88 81 72 70 60 54 50 64 71 76 78 79 80 70 56 41 27 17 11 7 6 5 4 3 3 3 3 3
100 99 87 93 87 65 60 77 91 100 99 99 99 94 84 81 77 68 51 41 48 65 69 80 88 76 72 63 51 37 26 17 12 8 5 5 4 3 3 3 2 3 3
99 84 76 84 80 65 59 76 83 84 90 93 88 78 78 73 48 36 50 66 77 81 82 90 84 68 50 40 27 20 15 11 8 6 4 3 3 3 2 3 2 2 2
91 76 81 74 68 59 65 81 92 96 98 83 76 69 59 47 45 55 76 90 93 91 86 77 63 48 32 23 17 11 8 7 5 4 3 2 2 2 2 2 2 2 2
82 74 69 63 59 52 63 81 86 95 82 70 60 58 63 67 86 99 98 98 98 94 85 70 47 30 21 14 10 7 6 4 4 3 3 2 2 2 2 2 2 2 2
86 79 64 59 52 54 70 72 64 66 60 69 73 75 80 92 100 100 100 98 92 74 55 35 24 16 11 8 6 5 4 3 3 2 2 2 2 2 2 2 2 2 2
74 71 64 63 53 70 78 89 81 74 76 81 87 90 100 100 93 93 91 82 60 41 27 18 12 8 6 5 4 3 3 3 2 2 2 2 2 2 2 2 2 2 2
68 67 63 58 58 62 62 63 71 75 86 94 100 98 90 92 98 90 72 50 34 22 14 9 7 6 4 4 3 3 3 2 2 2 2 2 2 2 2 2 2 2 2
69 66 59 45 46 52 66 75 80 93 100 96 89 92 92 90 65 51 37 24 16 11 7 6 5 4 3 3 2 2 2 2 2 2 2 2 2 2 2 2 2 2 2
56 52 44 36 44 60 77 94 95 88 87 84 88 89 69 50 35 23 17 13 8 6 5 4 3 3 2 2 2 2 2 2 2 2 2 2 2 2 2 2 2 2 2
50 46 41 45 62 71 74 78 78 74 79 71 60 47 33 22 15 12 8 6 5 4 3 3 2 2 2 2 2 2 2 2 2 2 2 2 2 2 2 2 2 2 2
40 37 39 47 56 63 64 64 62 61 51 37 28 20 14 11 7 5 5 4 3 2 2 2 2 2 2 2 2 2 2 2 2 2 2 2 2 2 2 2 2 2 2

GFSGL_250_rhum_072.txt.gz
RH
60 60 100 100 100 100 100 100 100 90 100 100 100 100 100 100 100 100 64 79 100 100 99 66 49 49 50 51 55 63 72 79 82 94 89 86 76 76 78 71 71 71 72
100 100 99 76 100 85 84 100 88 100 100 100 100 100 100 100 86 100 79 100 100 99 59 52 53 57 62 62 72 91 97 98 70 69 75 83 87 82 79 80 76 69 67
100 100 100 100 77 100 100 100 100 87 100 100 100 100 100 100 100 100 90 100 97 71 51 49 52 58 58 71 80 93 77 73 68 68 75 75 80 82 76 77 74 74 81
100 98 89 100 100 80 100 100 100 98 86 100 100 100 100 100 100 84 99 100 80 59 47 45 53 50 55 78 78 77 72 73 70 64 70 75 76 78 82 82 88 81 69
91 98 96 100 100 100 100 100 100 100 100 100 98 100 100 100 97 99 84 76 68 56 48 48 47 56 84 82 78 75 70 72 66 70 71 78 79 80 76 82 73 62 54
72 89 100 100 100 94 100 100 90 100 93 98 99 94 90 80 72 66 59 74 66 53 60 78 89 83 75 80 66 73 64 67 70 74 96 86 78 72 68 61 57 51 41
37 40 51 57 72 92 94 95 94 89 85 73 59 57 59 58 54 61 78 83 93 98 88 75 71 79 76 65 64 82 81 79 89 92 80 75 65 60 60 52 47 48 38
33 32 32 31 31 30 29 29 30 31 31 30 31 38 48 54 73 93 98 91 79 74 86 94 83 72 75 78 76 76 89 91 90 79 71 69 63 49 38 40 38 32 24
53 52 52 46 39 39 39 39 35 37 37 35 37 38 53 75 88 78 78 83 79 84 78 76 76 80 79 75 77 88 100 98 87 71 71 66 61 54 46 39 41 24 15
54 59 66 57 53 55 62 65 59 46 46 50 47 46 49 51 55 72 75 78 80 79 81 85 87 83 86 88 84 88 94 81 77 60 67 74 68 74 59 45 28 16 9
57 64 63 60 66 72 74 68 64 52 49 50 52 44 46 56 75 85 92 86 88 85 81 89 92 91 90 84 80 71 61 64 63 66 70 71 76 61 45 33 19 10 7
59 69 66 66 75 87 82 76 76 68 58 56 51 51 49 55 73 81 81 88 96 94 98 100 98 90 83 81 66 61 58 54 60 76 79 65 55 45 27 18 11 7 5
71 82 73 81 83 85 84 84 82 70 70 63 52 54 55 64 76 84 97 99 100 100 93 85 81 86 72 57 48 53 48 81 68 64 62 52 34 24 17 9 7 6 5
87 76 63 90 97 94 94 100 96 82 86 74 58 55 49 52 61 77 85 90 88 83 79 79 77 66 55 58 62 52 69 64 66 63 41 28 20 14 9 6 6 4 4
100 84 72 94 98 97 100 100 94 90 86 71 62 60 50 48 64 80 83 81 94 90 86 75 64 55 55 58 76 75 73 72 63 42 27 19 12 8 6 5 4 3 3
90 76 79 88 100 100 100 100 93 94 87 67 65 62 50 48 61 72 80 87 88 86 71 54 56 68 77 88 85 83 79 70 48 32 22 13 8 5 5 4 3 3 3
78 82 90 100 100 100 100 100 96 92 80 70 64 61 58 50 56 66 78 76 71 62 57 60 82 92 91 84 78 78 72 46 28 22 13 9 6 4 4 4 3 3 3
94 100 100 100 100 100 96 98 90 86 82 69 68 61 56 46 50 55 60 64 57 57 69 85 85 83 77 74 68 53 36 24 17 11 7 5 4 4 3 3 3 2 2
100 100 100 100 100 100 100 95 91 87 80 64 55 53 53 50 54 64 61 57 69 83 90 85 77 73 68 57 40 26 18 12 8 6 4 4 3 3 3 2 2 2 2
100 100 100 100 100 100 97 95 92 88 69 55 54 53 46 38 42 52 56 67 81 84 74 77 71 58 46 31 22 15 10 6 5 4 3 3 3 2 2 2 2 2 2
100 100 100 97 96 99 90 88 88 77 56 51 45 37 32 35 47 62 71 72 66 67 68 60 43 31 23 14 9 7 5 4 3 3 3 3 2 2 2 2 2 2 2
100 99 97 98 100 87 79 83 79 60 46 42 37 34 40 49 54 53 55 56 57 52 38 26 20 16 9 7 5 4 4 3 3 3 2 2 2 2 2 2 2 2 2
92 93 94 95 81 82 87 85 55 41 39 38 35 36 42 46 47 47 46 42 33 23 17 13 9 6 5 4 3 3 3 3 3 2 2 2 2 2 2 2 2 2 2
85 86 90 83 83 84 76 48 43 41 33 30 36 42 43 41 36 31 24 19 14 11 8 5 4 4 3 3 2 2 2 2 2 2 2 2 2 2 2 2 2 2 2
90 85 81 83 76 60 48 38 30 26 31 40 40 34 29 25 20 15 13 9 6 5 4 3 2 2 2 2 2 2 2 2 2 2 1 2 2 2 2 2 2 2 2
80 75 73 58 51 38 28 26 26 32 34 30 25 22 17 12 10 7 5 4 4 3 2 2 2 2 2 2 2 2 2 2 1 1 1 2 2 2 2 2 2 2 2

GFSGL_250_rhum_075.txt.gz
RH
77 99 99 94 90 96 100 100 100 100 93 81 78 78 100 100 98 100 100 100 100 98 100 98 100 100 100 100 100 98 88 80 60 55 53 53 73 97 93 86 80 76 79
100 100 99 92 98 100 94 91 100 100 100 99 100 100 100 100 100 100 100 100 100 100 100 100 100 100 100 100 100 98 83 59 51 50 55 84 100 100 88 79 87 84 89
100 100 100 100 97 68 69 63 92 100 100 100 100 100 78 100 100 100 100 100 100 100 100 100 100 100 100 100 99 86 67 61 64 84 100 100 95 89 82 79 88 95 87
76 100 100 100 92 71 62 86 94 99 100 100 100 100 100 100 100 100 100 100 100 100 100 100 100 100 100 86 74 76 75 91 100 100 90 94 81 76 65 66 81 92 97
42 65 100 100 100 100 100 100 100 100 100 100 100 100 100 100 100 100 96 100 100 100 100 100 97 93 90 91 84 92 100 100 98 99 96 81 72 68 67 79 89 95 87
49 89 100 100 100 100 100 100 94 100 100 100 100 100 100 92 93 100 100 100 91 74 68 65 66 65 78 92 92 100 100 100 97 85 80 78 80 90 87 92 83 76 73
63 90 99 92 71 55 67 81 84 99 100 100 100 100 88 60 44 38 37 38 37 33 36 44 52 70 85 90 98 97 91 84 83 80 89 94 97 90 87 82 74 68 55
53 58 61 50 44 37 35 35 36 41 41 39 38 39 40 41 41 40 40 40 36 34 37 40 47 71 86 96 91 92 88 74 78 97 92 93 90 87 80 68 62 54 53
48 57 53 45 46 46 46 50 49 52 50 44 46 49 53 54 56 54 53 49 39 38 40 44 49 55 85 97 91 90 87 90 96 95 94 80 77 77 70 67 58 54 42
62 62 64 66 68 60 53 50 52 62 63 61 58 60 71 69 66 75 67 58 50 46 40 44 54 72 90 86 90 98 98 100 100 97 85 84 78 73 63 57 41 49 35
62 68 66 69 70 72 81 66 61 54 60 69 82 82 84 80 84 87 76 72 62 54 53 45 48 68 85 93 98 93 91 96 92 87 83 80 72 63 63 52 46 37 26
66 72 66 66 79 94 84 70 71 62 66 74 86 97 90 93 96 88 87 79 74 66 57 51 45 49 62 74 80 82 90 92 83 81 79 68 59 65 60 61 54 36 23
75 79 66 71 72 91 91 88 82 67 68 77 99 94 94 95 96 98 90 85 82 69 59 55 51 46 52 67 81 86 81 79 86 83 65 60 62 64 65 55 50 25 13
71 82 84 74 77 88 92 92 86 72 66 95 100 99 98 100 100 100 90 91 88 74 57 55 55 49 51 60 72 77 81 86 75 60 61 66 62 57 56 43 25 15 9
85 71 82 84 81 84 89 92 83 64 97 100 100 99 97 100 100 99 99 100 94 74 60 57 56 48 46 54 69 75 75 64 58 52 55 50 45 40 35 21 12 9 6
86 78 78 79 89 100 91 84 72 80 100 100 100 100 100 100 100 99 99 99 90 66 57 53 44 42 46 54 58 58 56 55 55 48 44 39 30 25 21 14 8 6 4
94 84 74 90 98 90 80 77 78 100 100 100 96 94 100 100 100 100 95 98 84 60 49 44 44 42 43 53 56 54 60 53 43 41 35 24 20 14 10 8 6 4 4
89 83 77 94 98 100 80 100 100 100 100 99 96 100 100 100 100 99 98 95 76 48 42 39 36 44 49 48 50 44 42 39 32 24 20 14 10 8 7 5 4 4 3
75 71 74 92 84 75 100 100 100 100 100 100 100 98 100 100 100 100 100 87 50 40 34 34 40 47 45 38 34 33 29 25 20 14 9 8 6 5 4 3 3 3 3
66 67 91 75 94 100 100 100 100 100 100 93 95 100 100 97 99 100 91 54 40 37 33 35 39 38 31 28 26 23 18 12 8 7 6 5 4 3 3 3 3 3 2
76 76 86 100 100 100 93 97 99 88 78 89 98 92 88 97 98 76 51 43 31 27 31 34 33 29 23 19 14 11 8 6 6 4 3 3 3 3 3 3 2 2 2
93 100 100 100 88 82 84 78 76 80 88 78 76 78 75 66 49 43 36 24 26 30 32 29 20 17 13 9 6 5 5 4 3 3 3 2 2 2 2 2 2 2 2
96 84 80 77 93 90 74 74 86 76 68 70 63 63 50 38 35 26 22 24 26 25 18 14 11 7 6 5 4 3 3 2 2 2 2 2 2 2 2 2 2 2 2
75 78 88 94 98 88 80 74 75 73 65 64 51 35 32 26 21 21 22 21 16 11 8 6 5 4 3 2 2 2 2 2 2 2 2 2 2 2 2 1 2 2 2
80 80 82 81 79 72 66 64 64 59 40 32 30 26 20 19 19 18 13 9 6 5 4 3 3 2 2 2 2 2 2 2 2 2 2 2 2 2 1 1 2 2 2
68 65 62 58 57 56 53 49 33 28 28 25 20 17 16 16 12 8 6 4 4 3 3 2 2 2 2 2 2 2 2 2 2 1 1 2 2 1 1 2 2 2 2

GFSGL_250_rhum_078.txt.gz
RH
79 86 97 100 100 100 100 100 90 88 96 86 69 85 91 86 60 49 50 47 57 60 83 100 100 100 100 100 100 100 100 100 100 100 100 100 100 97 100 100 100 96 96
88 82 96 93 97 96 93 84 83 96 100 89 78 65 54 52 42 59 57 78 99 100 100 100 100 100 100 100 100 100 100 100 100 100 100 100 100 100 100 99 96 96 97
88 79 64 58 72 82 68 81 99 100 94 72 89 86 66 68 55 57 61 98 100 100 100 100 100 100 100 100 100 100 98 93 86 92 97 100 100 100 100 100 100 99 98
44 74 75 69 55 44 50 76 81 79 72 75 61 69 78 98 100 100 100 100 92 89 100 100 100 100 93 73 52 43 42 44 66 94 96 100 100 100 100 100 100 100 100
38 46 76 100 90 89 77 57 65 73 77 96 100 100 100 100 100 100 100 100 100 100 100 100 85 60 46 42 37 35 40 48 67 90 93 91 99 100 100 100 100 100 100
42 45 63 81 82 100 100 100 100 100 100 100 100 100 100 100 100 100 100 100 88 75 60 51 44 53 58 59 52 46 42 42 48 59 79 90 94 98 100 100 98 96 100
46 48 46 53 61 73 78 67 52 52 52 50 53 63 69 68 60 57 52 50 52 56 52 58 60 62 67 66 68 58 50 46 45 54 77 91 94 95 93 95 91 96 99
56 61 61 49 48 48 48 51 53 52 54 55 53 53 53 53 54 53 52 54 56 53 58 73 81 72 77 73 76 76 58 51 50 49 46 62 77 78 80 88 95 99 93
50 51 60 59 51 49 48 47 47 46 49 52 51 53 56 58 55 53 54 54 59 64 68 72 81 87 88 82 87 85 74 58 54 54 52 46 49 64 76 82 80 69 68
45 47 46 47 50 47 53 64 63 63 56 53 55 57 59 63 57 56 54 52 59 74 78 82 81 86 93 92 92 96 93 72 55 55 54 52 51 49 48 49 52 53 63
50 53 56 53 51 54 56 68 66 66 69 67 74 83 84 86 87 69 53 63 88 83 90 92 92 96 100 100 100 100 99 82 61 57 54 50 45 46 50 53 58 63 65
88 82 62 56 68 76 74 78 80 79 79 76 81 94 92 90 83 65 54 79 93 100 100 97 89 96 99 99 100 100 100 90 59 52 51 46 44 49 55 59 63 64 61
83 96 76 69 68 74 82 84 91 90 89 84 83 95 90 84 71 61 62 93 100 100 100 100 100 100 100 100 100 100 100 92 61 52 45 40 42 51 58 61 61 51 35
60 75 82 78 80 75 90 82 96 100 100 88 78 82 90 81 70 60 80 100 100 100 100 100 100 100 100 100 100 100 100 86 59 44 38 40 43 54 58 50 37 32 34
77 95 98 94 87 95 85 87 97 95 98 94 73 68 76 74 57 66 94 100 100 100 100 100 100 100 100 100 94 91 74 64 47 38 37 40 50 52 37 31 28 25 19
85 91 84 83 94 98 84 73 84 89 96 83 72 64 79 63 66 97 100 100 98 96 100 98 100 100 100 82 76 74 60 47 36 33 37 42 38 31 31 28 19 13 10
92 99 87 93 100 92 80 82 90 91 91 79 76 80 68 68 92 100 100 97 90 88 95 99 100 100 91 78 68 52 40 32 30 32 32 29 25 25 16 12 11 9 7
100 97 100 100 93 94 99 97 100 99 84 76 70 68 76 90 100 100 100 100 100 100 91 90 91 78 77 64 42 33 28 26 28 27 23 20 14 10 9 7 6 5 4
100 100 100 100 100 94 86 83 84 80 69 70 79 80 96 100 100 100 100 100 100 100 90 79 65 67 52 31 25 24 25 26 22 16 14 9 7 6 5 4 4 3 3
100 100 99 100 95 78 75 76 77 71 67 70 88 98 85 100 100 100 100 95 91 77 63 50 52 38 27 23 21 22 21 16 11 8 6 5 4 3 2 3 3 3 3
100 100 100 85 72 64 80 77 70 64 68 96 89 98 100 97 88 80 73 67 61 46 44 41 26 21 19 20 19 14 9 6 5 4 4 3 3 2 2 2 2 2 2
97 83 71 68 81 90 78 59 60 74 87 97 100 99 84 77 68 62 52 42 37 37 24 18 18 18 17 12 7 6 5 4 3 2 2 2 2 2 2 2 2 2 2
72 80 94 91 79 72 58 69 82 89 96 98 87 84 70 54 43 38 33 31 21 15 15 15 16 12 7 5 4 3 3 2 2 2 2 2 2 2 2 2 2 2 2
94 95 87 67 61 65 78 84 89 93 93 87 78 58 39 31 30 26 18 13 14 14 13 9 6 5 4 3 2 2 2 2 2 2 2 2 2 2 2 1 1 2 2
77 70 69 70 81 88 91 92 88 81 74 68 44 28 26 22 16 13 13 14 12 8 5 4 3 3 2 2 2 2 2 2 2 2 2 2 2 2 1 2 2 2 1
76 75 78 83 87 85 78 72 69 64 41 28 23 20 14 12 12 12 11 7 4 4 3 3 2 2 2 2 2 2 2 2 2 2 2 1 1 1 1 2 1 1 1

GFSGL_250_rhum_081.txt.gz
RH
76 70 80 84 93 96 99 97 95 98 96 100 100 100 100 87 87 81 79 82 87 64 50 44 54 79 86 99 100 100 100 100 100 100 91 62 41 38 39 45 75 88 91
64 89 80 85 89 93 85 75 76 84 99 100 100 100 100 100 100 86 81 81 67 57 57 58 98 100 100 100 100 100 100 100 100 74 65 60 58 52 50 51 64 83 93
38 41 57 82 84 75 66 56 68 86 100 95 95 90 85 93 92 86 74 70 64 64 92 100 100 100 100 100 100 100 100 71 64 63 68 74 80 71 56 51 53 62 75
38 38 40 40 49 74 64 62 67 70 73 83 94 93 91 80 63 59 79 100 100 100 100 100 100 100 100 100 94 79 74 71 73 85 97 80 76 89 85 72 60 57 60
49 46 42 44 44 47 55 73 63 64 67 64 65 75 89 99 98 100 100 100 100 100 100 100 96 80 66 58 59 57 66 76 71 80 93 90 91 96 94 94 82 64 62
63 69 56 47 42 50 75 100 100 100 100 100 99 75 56 52 49 49 50 58 62 63 64 64 61 65 62 60 65 66 74 82 80 82 94 91 88 89 87 94 100 83 59
60 64 62 61 70 64 50 45 44 44 46 48 52 55 61 64 64 65 70 72 76 73 72 68 58 59 59 54 62 78 89 89 96 100 98 89 89 95 99 94 97 96 72
66 58 60 57 54 52 56 58 54 55 58 62 62 62 62 61 63 75 88 90 85 83 82 85 77 71 57 52 51 62 84 92 100 100 89 84 94 99 100 98 96 80 71
83 60 49 51 51 50 48 48 51 53 54 56 61 69 70 70 75 75 74 78 81 79 75 67 80 73 62 53 52 67 76 83 88 88 91 94 94 94 98 88 80 74 68
98 79 67 55 44 47 47 43 41 43 58 68 69 73 87 85 76 77 71 65 63 63 68 72 74 70 63 55 62 70 86 97 91 90 96 96 100 96 100 96 74 60 58
100 91 75 68 69 69 80 73 67 57 60 66 66 68 72 74 83 87 87 87 90 78 75 73 75 64 57 59 70 94 100 94 92 94 98 97 99 100 100 90 62 55 54
100 100 94 69 64 71 74 95 100 85 71 65 72 70 84 84 78 83 89 90 98 100 88 87 80 66 66 65 88 100 100 100 100 100 100 100 100 100 91 72 57 49 44
100 100 100 100 100 64 80 86 100 100 100 98 90 82 92 89 80 70 78 94 98 90 84 80 69 72 74 80 92 100 100 100 100 100 100 100 97 76 66 59 46 40 33
100 82 66 52 43 53 73 80 86 85 86 83 79 87 93 86 84 77 76 81 90 81 76 73 78 83 79 82 99 100 100 100 100 100 91 76 67 60 47 37 34 31 32
100 100 96 95 75 52 74 93 73 72 73 73 94 89 98 94 85 80 86 100 92 87 72 71 78 76 81 97 100 100 100 100 95 82 78 66 51 40 32 28 27 27 29
100 100 100 99 95 92 91 78 69 75 84 97 99 94 96 83 78 88 98 91 95 87 72 74 76 81 96 100 100 100 100 91 82 79 62 44 33 27 25 25 24 23 19
100 100 100 100 100 100 100 97 93 92 100 100 98 91 89 91 98 100 96 88 100 84 69 68 82 94 100 100 100 100 96 89 73 49 35 25 22 21 21 19 15 10 8
100 100 100 87 100 100 100 98 100 100 100 98 100 100 100 100 100 95 77 93 97 68 62 75 98 100 100 100 100 92 82 56 33 22 19 18 17 14 12 8 6 6 5
91 96 99 100 100 99 100 97 89 81 79 99 100 100 100 99 93 80 94 100 74 60 74 90 100 100 100 96 83 62 36 22 17 17 16 14 10 7 6 5 4 3 3
78 81 82 87 82 70 72 77 77 94 92 86 96 96 95 81 75 87 100 71 64 69 86 96 98 92 78 63 36 24 16 16 14 12 9 6 5 4 3 3 2 2 2
89 75 70 68 74 79 78 82 82 69 72 84 80 76 73 77 89 90 66 60 71 88 88 88 71 48 30 21 15 15 14 11 8 5 4 4 3 2 2 2 2 2 2
94 90 91 94 96 93 83 79 84 88 78 79 72 74 89 87 69 60 60 69 73 68 61 37 25 19 15 13 12 10 6 4 4 3 3 2 2 2 2 2 2 2 2
84 86 91 90 81 80 82 84 84 80 72 81 90 94 76 61 59 62 62 57 48 32 22 17 14 12 11 8 5 4 4 3 2 2 2 2 2 2 2 2 2 2 2
85 80 79 78 74 68 66 71 77 79 84 85 73 69 62 61 57 51 43 31 22 15 13 11 11 8 5 4 3 3 2 2 2 2 2 2 2 2 2 2 2 2 1
80 73 75 78 79 83 83 85 81 71 66 75 67 60 59 46 32 28 20 14 13 11 10 8 5 4 3 3 2 2 2 2 2 2 2 2 1 1 2 2 1 1 1
87 84 87 91 91 86 79 71 65 72 65 58 60 41 29 26 17 12 11 11 10 7 5 4 3 3 2 2 2 2 2 2 2 2 1 1 2 2 1 1 1 1 1

GFSGL_250_rhum_084.txt.gz
RH
53 62 83 100 100 97 100 100 100 100 100 100 100 100 100 100 100 100 92 86 90 100 100 100 94 88 70 64 58 88 100 100 100 100 100 100 100 99 92 86 85 92 86
64 62 54 62 73 96 100 100 100 100 100 100 100 100 100 100 100 100 100 99 93 88 89 99 83 70 58 61 100 100 100 100 100 100 93 85 78 70 79 80 91 83 100
30 33 41 59 63 58 52 51 54 57 58 63 59 75 90 100 100 100 100 92 89 100 99 86 68 58 100 100 100 94 99 93 81 74 73 65 70 78 80 84 96 100 99
34 35 34 34 38 45 57 65 66 68 81 93 99 100 100 100 99 99 100 99 100 95 87 89 100 93 67 62 66 73 76 73 68 66 64 62 59 58 64 77 81 80 89
48 45 45 41 37 35 36 43 49 49 53 71 72 73 75 69 71 87 72 57 48 46 46 48 55 66 75 84 89 81 79 79 71 73 68 62 60 56 56 68 80 87 84
75 56 52 50 50 46 43 43 43 40 38 37 36 38 41 44 45 47 50 52 55 62 65 65 68 77 74 68 67 72 78 81 86 88 82 72 68 64 68 81 94 100 100
100 95 75 56 51 49 50 47 44 50 54 55 54 56 63 69 75 75 76 72 71 71 73 73 69 68 74 80 87 85 82 81 74 74 70 65 64 72 77 85 100 99 89
100 97 94 80 66 62 66 57 54 54 54 55 55 55 56 62 68 72 72 69 70 77 83 86 90 97 98 92 91 84 84 78 79 92 84 76 79 77 74 73 97 92 97
100 100 100 92 84 67 54 54 60 58 55 56 48 44 44 50 53 59 66 66 62 56 54 60 66 69 71 77 88 86 88 89 87 96 80 88 85 78 89 86 99 100 100
99 100 94 92 78 82 87 85 77 72 69 70 75 78 62 68 78 83 74 74 68 68 72 76 83 85 87 81 78 81 91 92 92 83 83 87 80 84 93 96 100 100 100
48 87 100 94 91 90 93 88 86 80 83 73 76 64 68 62 64 68 78 89 75 72 83 87 92 89 88 95 90 98 100 100 98 93 85 83 82 84 89 100 100 100 100
72 65 100 100 100 100 100 100 99 97 64 62 78 54 59 77 83 61 69 72 75 80 85 94 96 98 94 91 100 100 100 100 100 100 86 74 78 87 87 100 100 100 100
98 100 99 99 100 100 100 100 100 97 93 64 59 66 62 70 75 73 64 65 76 90 100 98 92 100 100 100 100 100 100 100 100 100 86 73 80 82 100 100 100 100 83
100 100 100 96 82 68 74 82 87 91 100 100 100 100 100 98 85 91 91 92 84 98 100 100 100 100 100 100 100 100 100 100 100 100 79 77 85 97 99 92 90 81 76
100 100 100 100 100 100 100 100 100 100 100 100 100 100 100 100 100 100 100 100 100 100 98 100 100 99 98 100 100 100 99 100 100 89 75 84 86 85 87 82 69 61 38
100 100 100 100 100 100 100 100 100 100 100 100 100 100 100 100 100 100 100 100 100 99 98 94 87 100 99 100 100 91 100 97 92 76 84 81 80 82 74 50 41 22 19
100 100 100 100 100 100 100 100 100 100 100 100 100 98 100 100 100 100 96 91 82 74 70 69 82 86 100 98 89 88 92 96 81 73 66 65 66 47 35 22 16 14 14
98 100 100 100 100 93 100 91 86 79 72 72 92 98 99 99 93 82 75 69 63 66 67 79 84 100 90 86 83 94 93 72 58 52 52 38 22 17 14 12 12 10 6
100 100 100 100 97 88 82 84 92 86 69 71 73 72 70 74 78 74 68 70 72 86 87 90 90 79 82 84 90 83 66 50 44 34 21 16 12 11 10 8 5 4 4
100 100 100 100 100 100 100 100 100 100 99 92 86 89 78 70 69 66 68 77 83 83 73 66 74 85 91 83 68 51 41 32 21 14 11 10 9 7 5 4 3 2 2
100 100 100 100 100 100 100 99 97 96 93 81 76 67 66 67 68 70 71 62 68 69 71 79 82 79 60 47 37 26 19 14 11 10 8 6 4 4 3 2 2 2 2
98 97 83 79 84 86 85 83 80 80 78 68 71 69 68 67 67 67 69 69 73 74 73 72 57 44 37 24 19 15 11 10 7 5 4 3 3 2 2 2 2 2 2
95 96 95 90 87 82 78 76 76 74 69 66 69 74 76 75 73 63 69 68 62 66 56 41 34 23 17 14 11 10 8 5 4 3 2 2 2 2 2 2 2 2 2
79 77 75 75 79 79 74 70 69 69 68 74 85 80 70 53 62 67 54 54 57 45 36 23 15 13 11 10 8 5 4 3 2 2 2 2 2 2 2 2 1 1 1
74 80 82 79 79 84 87 78 74 79 71 60 64 61 59 66 48 50 50 30 26 22 14 13 11 10 7 5 4 3 3 2 2 2 2 2 2 2 2 1 1 1 1
52 59 70 80 76 71 73 67 62 62 62 57 56 66 38 33 34 24 22 19 14 13 11 10 8 6 4 3 3 2 2 2 2 2 2 2 2 2 1 1 1 1 1

GFSGL_250_rhum_087.txt.gz
RH
47 77 98 100 100 100 100 100 100 100 100 100 100 100 100 100 100 99 100 100 100 100 100 100 100 94 72 65 68 74 86 100 77 89 100 100 100 93 67 59 66 74 79
41 48 66 84 88 96 73 89 98 100 100 100 100 100 100 100 100 100 100 100 100 100 100 90 67 59 68 76 89 98 96 82 100 100 90 58 55 69 79 85 85 86 93
27 30 51 56 54 55 98 100 90 82 70 79 94 84 82 94 100 100 100 100 99 98 100 82 71 79 100 100 94 55 46 51 48 53 69 86 90 95 90 89 96 94 84
33 31 28 30 36 49 52 53 61 83 96 97 99 100 100 98 93 88 87 87 78 80 86 93 97 98 65 41 48 56 64 74 82 83 78 80 84 89 95 96 92 84 85
45 41 35 32 30 31 31 31 32 35 37 39 50 62 71 79 70 57 46 43 58 66 74 57 44 56 67 74 80 85 82 85 85 84 95 92 92 92 86 86 89 94 87
60 39 45 41 38 32 34 36 37 34 33 33 35 38 44 48 51 49 47 45 42 46 57 62 68 73 73 68 65 63 63 65 66 71 71 77 79 77 74 82 84 89 87
100 84 59 49 44 43 43 39 35 33 32 33 34 33 33 35 36 38 42 47 58 65 69 70 69 68 65 59 61 67 65 68 70 77 81 83 86 85 92 97 99 100 98
100 100 100 99 79 64 52 48 46 40 38 35 32 33 36 38 40 42 41 40 44 49 57 67 67 68 63 57 62 63 67 70 76 84 90 93 88 87 89 98 100 100 99
100 100 100 100 100 100 88 79 63 54 52 58 56 56 55 57 66 73 75 75 80 76 76 58 52 48 52 51 50 62 75 87 97 99 99 91 88 92 100 100 100 100 100
100 100 100 100 100 100 100 100 82 79 66 57 54 56 67 74 66 65 69 68 58 53 54 57 67 62 56 67 80 84 86 96 100 100 100 100 100 94 100 100 100 100 100
90 100 100 100 100 91 100 100 100 100 95 89 100 100 98 84 68 55 54 52 56 72 71 69 71 80 81 98 100 99 100 100 100 100 100 100 100 100 100 100 100 100 100
79 73 90 100 99 100 94 100 100 100 100 100 100 100 95 94 88 92 97 82 88 90 95 89 95 100 100 100 98 100 97 98 95 100 100 98 96 90 100 100 100 100 100
99 79 85 96 100 99 71 89 77 67 57 56 65 100 100 100 100 100 100 100 100 100 100 100 100 100 100 100 100 100 99 100 100 100 100 96 85 100 100 98 100 99 91
100 100 100 97 100 100 100 100 100 100 100 100 100 100 100 100 100 100 100 100 100 100 100 100 100 100 100 99 98 100 100 100 100 89 75 80 90 91 81 84 89 95 91
100 100 100 100 100 100 100 100 100 100 100 100 100 100 100 100 100 100 99 100 100 100 100 99 98 100 100 100 100 100 96 89 78 66 70 65 70 75 87 95 91 83 65
100 100 100 100 100 100 100 100 100 100 100 96 95 100 100 98 94 97 96 100 100 100 100 94 85 80 73 73 76 74 64 62 64 65 66 75 85 90 90 80 62 43 30
100 100 100 100 100 100 100 100 100 100 100 100 100 100 96 94 100 90 72 69 66 61 54 52 51 63 69 65 63 59 59 63 64 71 82 90 81 72 55 39 26 16 13
100 100 98 93 98 100 99 100 98 97 100 100 99 93 91 92 88 82 75 74 84 69 67 75 78 84 78 60 55 62 63 70 76 85 76 63 47 30 21 15 12 10 9
100 100 100 100 100 100 100 100 100 100 89 86 87 93 89 91 100 92 96 89 94 100 100 100 89 76 66 65 70 71 77 78 73 63 41 24 18 15 12 11 9 8 4
100 100 100 100 100 100 100 100 100 100 100 98 98 100 100 100 100 100 100 100 100 99 88 82 71 72 72 68 68 77 70 67 42 30 23 16 13 10 9 7 5 3 3
100 100 100 100 100 100 100 100 100 100 100 100 100 100 100 100 99 100 100 95 88 72 76 72 70 71 65 70 69 69 55 29 23 17 14 10 9 8 6 3 3 2 2
100 100 100 100 100 100 100 100 100 100 99 99 98 98 99 97 94 91 77 78 86 80 74 73 68 74 72 56 49 33 24 17 13 11 9 8 6 4 3 2 2 2 2
88 97 99 98 98 98 98 98 96 94 92 88 86 86 85 83 78 78 80 70 72 73 63 64 56 48 42 30 25 18 13 11 9 8 6 5 4 2 2 2 2 2 2
64 65 68 76 84 88 90 87 83 83 85 83 79 79 80 77 71 66 66 55 60 64 50 39 34 26 19 17 13 12 9 8 6 5 4 3 2 2 2 2 2 2 2
65 67 61 51 57 69 76 74 74 66 62 72 70 75 80 67 56 54 50 46 32 24 25 21 16 13 11 11 10 9 6 4 4 3 2 2 2 2 2 2 2 2 2
38 42 43 41 40 43 46 46 48 50 51 55 54 49 40 30 28 28 22 20 19 15 12 12 10 10 10 9 6 4 4 3 2 2 2 2 2 2 2 2 2 2 2

GFSGL_250_rhum_093.txt.gz
RH
67 41 26 33 49 90 96 90 99 100 100 100 100 100 100 100 100 100 100 100 100 100 100 100 100 100 89 86 76 100 100 100 94 98 76 72 89 69 54 48 39 50 46
80 70 44 28 27 45 81 97 86 84 71 84 91 97 94 100 100 100 100 100 100 100 100 100 100 96 97 99 100 100 87 91 80 76 69 65 57 53 41 46 48 40 42
100 94 95 52 30 24 38 82 100 95 99 95 81 75 82 84 93 100 100 100 100 100 100 100 100 100 100 99 96 80 70 76 71 71 48 56 53 45 51 43 41 46 54
99 100 100 98 64 37 26 24 43 77 99 99 96 92 76 87 99 100 100 92 93 92 100 100 96 91 88 74 74 77 76 58 46 43 40 38 44 47 47 48 50 60 57
68 96 100 100 100 82 46 28 27 24 26 34 45 68 89 74 66 69 78 66 66 72 76 72 66 58 65 70 63 53 43 37 36 40 44 40 42 44 48 53 65 63 52
100 80 78 100 77 100 96 63 38 35 32 29 26 25 26 34 44 53 51 57 57 50 52 51 47 42 41 42 40 37 38 37 44 54 59 57 61 68 63 61 62 60 78
65 51 45 85 81 84 100 100 88 64 48 41 39 36 34 31 29 29 30 31 30 30 31 31 30 32 34 36 37 34 42 50 52 49 54 59 63 69 74 91 84 60 64
38 57 54 50 75 99 95 98 100 100 97 90 79 73 54 48 46 42 38 37 39 40 38 39 38 40 42 48 48 52 45 41 48 53 66 81 76 60 58 53 70 84 66
56 47 94 100 83 75 95 100 100 96 91 100 100 100 100 94 83 78 65 59 56 52 51 52 52 54 62 62 60 70 78 82 76 77 86 68 71 75 81 91 85 70 78
96 83 72 90 88 78 77 76 76 85 99 92 91 100 100 100 100 100 100 100 100 100 100 100 95 90 100 100 99 99 98 90 84 78 78 78 97 90 83 92 79 68 77
66 64 80 70 86 99 99 95 88 73 79 87 75 92 83 97 100 91 84 97 92 83 85 76 66 74 83 84 87 83 73 70 73 78 93 100 100 97 82 59 69 94 99
100 91 87 86 89 85 76 93 78 99 79 58 80 93 91 89 97 98 72 59 64 72 69 82 89 96 97 90 85 81 74 71 85 94 89 69 57 51 63 79 84 61 55
100 100 77 83 94 97 100 100 100 99 96 75 58 52 98 100 100 100 100 98 98 91 87 91 89 67 64 58 59 63 62 61 50 49 56 56 63 97 64 55 59 53 53
68 84 75 74 74 87 79 73 81 85 80 94 100 100 99 100 100 100 100 100 100 100 98 99 81 74 80 66 69 71 73 85 89 77 96 94 72 63 60 57 61 64 66
45 56 60 66 80 94 97 94 83 90 92 100 100 90 100 98 95 94 100 90 98 100 100 100 100 87 98 94 84 88 86 82 88 88 64 77 76 79 55 58 69 81 77
40 49 61 66 72 82 82 88 92 99 100 100 100 100 100 100 100 100 83 100 99 65 63 91 99 100 98 94 100 100 100 80 67 72 88 79 67 56 64 75 82 83 97
33 42 55 68 82 97 95 100 100 100 100 100 100 100 100 100 100 100 100 100 100 98 100 100 100 100 100 93 77 74 97 97 88 87 65 60 67 75 74 81 88 96 95
36 40 54 69 87 92 98 100 100 100 100 100 100 100 100 100 100 100 100 100 96 100 100 100 100 100 100 100 100 79 89 84 74 57 66 64 74 86 84 95 93 98 81
44 46 58 66 86 100 97 100 100 100 100 100 100 100 100 100 100 90 98 100 100 84 90 100 100 100 100 100 85 70 82 82 66 72 84 86 82 94 93 85 67 54 36
53 62 77 86 100 100 100 100 100 97 85 100 100 85 76 100 100 90 100 100 100 98 100 100 100 100 100 84 74 80 63 68 76 90 96 93 81 72 64 41 35 21 16
58 65 92 98 100 100 100 100 100 100 100 100 100 100 100 100 88 85 92 100 100 100 100 92 74 62 66 68 63 80 90 97 93 70 76 84 71 38 40 24 13 11 8
63 68 63 78 94 100 99 100 100 100 100 98 85 95 100 100 100 96 99 99 87 83 77 69 78 74 68 73 88 82 83 80 77 52 50 59 46 27 17 10 8 8 6
50 53 61 76 86 92 79 91 99 98 100 100 100 100 100 97 93 100 100 77 92 100 90 72 76 78 87 88 69 62 69 57 54 61 24 20 16 11 9 7 7 5 4
38 38 44 47 93 76 66 83 92 92 100 100 100 89 87 100 95 78 75 74 69 62 60 64 79 75 54 55 51 38 26 35 22 18 11 9 8 8 7 5 4 3 3
29 36 41 41 47 54 52 46 45 43 55 67 77 69 60 67 70 67 70 72 69 56 57 49 40 41 32 27 35 32 25 20 12 8 8 8 7 6 4 4 3 2 2
29 29 25 28 32 35 38 40 43 41 43 47 55 62 60 54 56 61 58 50 40 32 36 43 41 32 25 20 20 13 10 10 9 8 6 5 4 4 3 2 2 2 2

GFSGL_250_rhum_096.txt.gz
RH
43 49 50 54 29 32 56 81 100 95 82 88 100 100 100 91 96 100 100 100 100 100 100 100 100 100 100 100 100 100 100 100 99 100 92 96 100 100 97 78 62 49 43
32 68 58 67 62 29 28 43 57 97 100 91 99 100 100 100 100 100 100 100 100 100 100 100 100 100 100 100 100 100 95 100 100 100 100 100 98 86 73 51 44 42 39
36 35 84 86 100 79 36 26 31 62 91 100 100 100 100 100 100 100 100 100 100 97 90 100 99 98 100 100 99 95 100 100 100 98 80 73 62 56 42 36 39 39 43
42 34 50 97 96 95 85 46 28 28 52 100 98 95 89 87 87 90 100 100 100 93 96 100 100 100 100 81 74 72 76 76 69 66 59 49 44 36 36 47 56 59 61
62 43 50 62 88 81 97 91 75 39 28 28 32 63 99 100 99 100 100 89 88 83 66 71 72 73 71 67 62 58 56 50 44 39 38 36 33 33 49 55 52 56 56
81 50 37 53 65 77 86 94 100 92 77 42 31 29 29 28 28 36 46 54 61 60 55 51 44 36 32 30 30 30 31 32 33 35 36 36 34 40 50 42 43 51 54
87 86 71 49 64 50 50 78 73 71 99 100 83 56 40 36 35 34 32 32 32 31 31 32 32 34 36 35 36 38 38 38 40 42 49 45 45 53 47 52 56 56 60
100 100 98 78 78 70 58 42 61 97 79 62 90 100 99 91 78 74 62 51 45 43 42 38 40 42 44 45 46 47 49 51 54 63 60 60 67 60 56 59 59 75 96
65 81 95 91 97 100 89 91 90 76 75 97 78 66 84 90 96 100 100 100 99 96 79 76 77 68 71 86 91 82 79 71 74 79 89 97 94 99 100 100 100 100 78
74 69 58 51 89 99 100 100 71 82 83 59 62 83 94 95 98 98 88 80 68 87 100 100 100 98 93 99 100 93 94 90 89 94 99 95 92 92 99 93 74 92 99
80 73 91 81 81 100 100 100 100 100 90 93 84 83 62 83 78 78 79 90 94 98 100 99 100 100 97 74 64 80 97 94 92 98 100 99 74 68 83 83 85 70 57
88 94 100 100 100 79 89 100 100 100 100 100 97 89 85 66 71 94 78 67 60 65 80 84 81 86 96 99 85 95 100 100 88 97 91 94 71 60 55 50 51 48 42
100 100 100 98 96 98 89 89 100 100 100 100 100 100 100 100 100 92 98 94 76 85 82 99 98 99 99 84 96 91 98 73 92 83 67 87 91 59 65 69 92 91 70
100 100 100 100 100 100 100 100 96 100 100 100 100 100 100 100 98 86 100 100 98 98 95 99 100 100 100 100 100 100 100 100 100 100 100 99 100 94 100 100 83 57 53
78 82 80 81 80 98 100 100 100 100 100 100 100 100 100 100 100 97 99 100 100 99 100 100 100 74 91 100 100 99 100 100 100 100 100 100 100 100 100 76 48 53 73
30 32 36 46 55 62 73 64 78 90 100 100 98 100 98 100 100 98 100 100 100 100 100 100 100 100 96 83 100 100 87 96 99 100 96 100 100 100 83 77 69 85 74
21 20 29 57 64 51 54 53 49 54 60 87 100 97 100 100 100 99 100 100 100 100 100 100 100 100 100 100 96 87 100 100 100 100 100 100 99 84 80 78 60 84 79
45 42 49 36 28 27 27 33 49 56 62 69 100 99 100 100 99 100 100 90 100 100 100 100 100 100 100 100 98 100 100 100 100 100 99 93 78 68 88 67 78 88 71
48 51 41 30 26 30 31 30 39 50 62 71 75 87 94 98 94 93 99 91 88 88 89 100 100 100 98 97 88 94 96 84 85 81 92 89 95 100 84 67 75 67 72
45 59 58 44 34 35 38 40 38 41 56 63 88 95 90 94 100 96 99 100 100 100 100 97 100 100 98 96 95 80 96 82 81 65 90 100 74 79 79 64 66 49 70
52 50 56 45 48 45 45 53 54 55 68 78 71 84 82 75 84 87 82 90 84 75 79 100 100 100 100 91 97 100 91 97 94 88 90 70 62 84 46 66 81 56 29
44 48 46 38 46 55 55 69 73 78 80 88 83 84 100 100 100 99 85 84 78 91 88 88 77 98 100 97 83 86 93 95 88 77 65 55 71 72 55 47 33 18 15
38 43 49 54 53 55 66 64 52 61 64 67 76 77 78 94 98 100 99 87 73 100 93 100 99 95 90 82 82 71 72 76 82 71 51 54 51 48 42 24 13 11 7
32 30 30 28 27 30 39 43 43 37 33 36 37 52 48 43 62 71 77 81 80 64 69 98 84 70 69 58 58 57 56 57 64 49 38 43 32 25 24 11 9 6 4
28 26 26 25 24 24 24 24 26 30 27 27 32 37 45 50 51 53 52 56 56 58 65 83 75 63 61 55 60 63 64 53 40 39 28 24 13 13 8 7 5 5 4
18 18 18 18 18 19 20 21 24 26 28 31 31 33 34 34 42 48 48 52 56 55 56 57 54 48 46 41 35 28 30 28 23 15 14 12 8 7 6 5 4 3 3

GFSGL_250_rhum_099.txt.gz
RH
75 45 31 34 40 50 38 30 58 87 100 100 100 100 100 100 100 100 100 100 100 100 100 100 100 100 100 100 100 100 100 100 100 100 100 100 100 100 100 100 100 100 100
80 52 34 34 64 53 62 41 30 57 89 89 100 98 100 100 100 100 100 100 100 100 100 100 100 100 100 100 100 100 100 100 100 100 100 100 100 100 100 100 100 81 74
82 93 45 38 36 60 63 74 48 28 37 91 100 100 100 100 98 93 97 100 99 99 100 100 100 100 100 100 100 100 96 95 91 100 100 100 99 87 82 78 65 52 48
88 58 59 53 39 35 59 56 73 64 31 30 81 100 98 100 100 100 100 100 100 100 100 100 100 100 100 96 96 99 100 100 100 96 85 77 70 56 50 47 48 48 45
98 65 48 58 53 41 48 73 75 62 78 53 30 39 98 100 100 100 100 100 100 100 100 100 100 99 96 96 91 98 97 91 74 53 41 39 36 37 40 40 41 41 40
100 100 100 100 96 78 49 49 58 91 76 76 82 60 32 31 32 46 66 84 99 99 100 100 99 82 70 65 56 47 37 36 35 34 34 34 35 36 36 38 41 42 44
100 100 100 100 100 90 80 64 48 57 58 72 69 72 85 74 55 43 36 34 31 29 29 29 29 30 31 32 35 35 34 36 38 40 42 44 46 47 46 45 48 52 53
100 100 100 100 100 100 100 100 100 84 75 62 52 59 71 65 73 91 85 83 80 73 73 65 58 55 54 50 48 49 46 50 54 66 74 85 92 94 98 94 86 80 81
100 100 100 100 100 100 100 100 99 73 85 93 90 68 56 64 86 94 84 76 80 91 99 100 100 100 100 100 84 84 100 100 100 100 99 100 100 100 93 96 97 98 100
70 72 88 100 100 100 100 100 100 99 88 85 58 88 93 90 76 73 63 60 79 87 88 81 83 80 79 80 86 93 86 98 100 100 100 100 100 100 100 100 97 100 97
89 91 89 88 89 100 100 95 75 84 98 100 98 86 87 75 78 74 90 86 73 82 75 71 67 71 76 71 69 71 62 66 100 100 93 97 100 100 100 99 88 70 65
65 55 69 99 100 99 91 70 82 87 83 100 100 88 94 92 94 87 84 94 93 81 80 87 92 100 97 98 86 76 78 100 100 100 100 100 100 100 100 100 100 100 82
59 61 87 84 78 78 93 83 97 100 100 100 96 95 96 100 100 100 100 100 89 90 94 94 100 100 100 100 100 100 100 100 100 92 100 100 100 98 100 100 100 100 95
96 100 100 100 100 100 83 69 81 100 100 100 100 100 99 100 98 100 100 84 95 66 100 100 100 100 100 98 96 100 98 98 100 92 96 86 72 97 82 100 100 100 100
100 100 100 100 100 100 100 100 100 100 100 100 100 100 100 100 100 100 100 100 100 100 100 100 100 100 100 100 100 100 100 84 100 100 100 99 100 100 100 97 99 94 90
99 100 100 100 100 100 100 100 100 100 100 100 100 100 100 100 100 100 100 100 100 100 100 98 100 100 100 100 100 100 100 100 100 100 100 100 100 94 89 94 96 96 77
63 63 70 74 78 78 76 78 82 79 88 98 90 89 89 100 100 100 100 100 100 100 100 100 100 100 100 100 100 100 100 100 100 100 100 100 100 100 100 100 100 100 100
68 66 71 70 58 45 35 28 26 32 55 61 70 77 71 70 96 100 100 100 100 100 100 89 95 100 100 73 84 90 95 88 95 100 100 100 100 100 95 98 100 100 91
54 43 37 37 29 23 23 28 33 41 51 35 45 53 50 49 58 78 96 100 100 100 100 100 100 100 92 99 98 96 100 91 91 96 99 94 95 93 75 72 78 80 70
35 27 23 24 26 28 30 33 34 38 42 44 35 33 29 28 33 37 50 74 91 100 100 100 100 100 100 100 100 98 83 75 77 71 66 73 78 70 60 57 53 78 66
27 27 28 30 28 30 32 32 36 39 40 35 29 37 39 33 37 51 52 64 58 75 94 86 78 98 100 94 84 88 77 70 78 80 80 72 57 63 51 50 75 69 64
28 28 28 29 30 28 27 29 29 29 31 36 40 42 37 35 37 42 45 55 54 57 49 57 60 57 51 54 60 74 73 66 71 69 71 81 69 64 59 60 70 46 56
28 28 27 26 26 25 25 30 35 36 35 38 35 36 37 33 32 32 33 32 37 42 42 48 42 38 42 46 47 49 45 55 49 59 58 54 56 47 46 45 43 29 30
19 20 23 26 30 28 26 25 22 21 22 24 24 24 22 21 23 24 24 25 28 26 28 33 38 44 48 45 43 43 42 52 58 49 48 42 42 42 47 25 24 15 14
25 24 23 24 23 22 22 22 23 24 23 23 24 23 24 25 24 25 25 24 22 23 26 30 32 32 30 33 34 35 38 42 33 29 28 27 28 16 16 13 11 10 6
24 22 22 21 20 19 19 20 20 19 18 16 15 15 16 18 20 20 22 23 23 24 24 23 21 20 20 21 22 20 20 20 19 16 11 10 11 10 10 9 6 5 5

GFSGL_250_rhum_102.txt.gz
RH
94 79 75 65 40 29 31 44 45 79 90 86 93 100 100 100 100 100 100 100 100 100 100 82 89 94 87 95 98 72 82 99 100 100 100 100 82 90 100 100 100 100 100
100 49 97 66 39 34 30 38 53 31 70 84 100 100 100 100 100 100 100 98 100 100 100 100 100 100 90 100 100 100 100 100 100 100 100 100 100 100 100 100 100 100 100
100 76 100 56 64 49 36 32 42 69 35 35 72 87 94 97 100 100 100 100 100 100 100 100 100 100 100 100 100 100 100 100 100 100 100 100 100 100 100 100 100 100 100
100 73 100 71 62 63 46 44 35 46 66 55 32 47 83 84 84 96 100 100 100 100 100 100 100 100 100 100 100 100 100 100 100 100 100 100 100 100 100 100 99 83 64
100 100 99 63 90 56 54 69 64 55 65 81 64 52 33 76 100 100 95 72 71 85 93 100 100 100 100 100 100 100 100 100 100 99 99 100 100 100 96 78 51 39 39
100 100 97 78 90 100 98 91 81 52 46 56 89 89 78 66 33 51 89 100 100 100 100 100 100 100 100 100 100 100 96 100 100 100 92 64 47 42 41 41 41 46 54
100 100 100 100 100 100 100 100 99 96 93 63 49 44 67 65 66 77 67 48 40 46 58 61 58 65 70 68 64 53 42 38 38 37 36 37 40 50 56 64 87 100 100
100 100 100 100 100 100 100 81 100 100 100 100 91 76 71 66 56 56 69 87 96 96 92 80 72 60 57 68 77 78 71 74 80 84 83 86 92 96 100 99 97 100 100
100 100 100 100 100 71 80 85 66 50 51 72 72 58 64 69 55 60 54 62 73 77 84 85 96 96 98 99 100 100 99 97 91 88 81 74 68 70 82 68 69 66 92
100 100 100 89 73 66 54 79 100 94 93 96 82 77 78 71 56 55 46 44 58 71 79 84 81 84 82 74 72 75 77 90 86 99 77 80 91 79 70 72 71 69 94
100 100 100 100 100 100 100 100 100 100 100 100 100 100 100 77 75 59 56 58 45 70 59 59 59 45 61 66 58 63 70 66 72 71 56 81 98 66 72 95 99 96 90
100 100 100 100 100 100 79 61 54 72 100 100 100 100 100 99 99 80 70 84 98 84 66 99 95 96 76 71 51 51 58 70 74 93 69 77 80 95 92 71 73 96 72
100 80 86 80 71 80 91 95 98 100 100 100 100 100 93 88 72 65 83 96 100 100 100 99 96 100 100 99 100 100 97 100 100 96 97 100 100 100 100 96 98 94 98
61 65 55 48 54 48 46 55 75 80 79 77 82 73 82 100 96 83 97 91 82 99 100 84 95 100 100 100 100 100 100 100 100 100 100 100 100 100 100 100 100 100 100
100 98 83 83 80 69 71 70 79 87 89 78 75 82 84 92 100 99 100 100 100 94 95 100 91 76 100 100 100 100 67 100 99 100 100 100 100 99 100 100 100 100 100
91 84 74 74 73 78 83 95 99 100 100 100 100 93 96 96 100 100 100 100 100 100 100 100 96 100 100 100 100 100 100 100 100 100 72 97 100 81 100 99 95 100 71
87 99 89 98 100 100 100 100 98 100 100 100 100 100 100 100 100 100 100 100 100 100 100 100 100 100 100 100 100 100 100 100 100 100 100 100 100 100 78 100 84 89 87
81 92 99 95 93 99 100 99 99 99 99 99 97 96 84 73 67 67 63 59 67 91 94 99 99 100 100 100 100 100 100 100 100 96 100 99 100 100 100 97 97 85 100
85 89 87 74 72 75 72 67 69 66 61 61 60 62 63 58 52 40 32 29 29 32 37 40 45 60 73 80 94 100 100 100 100 100 93 100 100 100 100 100 99 100 86
67 64 62 58 58 60 60 62 60 55 49 45 42 38 31 28 26 28 35 45 50 42 39 38 46 66 84 82 74 89 90 98 100 100 100 90 95 87 93 95 81 77 67
58 51 47 43 39 36 33 33 30 28 28 25 26 28 34 36 34 38 41 42 44 46 43 40 33 31 32 34 39 52 87 100 95 76 76 92 76 82 78 57 48 61 50
48 45 38 32 30 28 26 24 24 27 29 29 28 27 28 29 30 32 34 36 37 38 36 32 31 30 27 25 28 30 29 28 29 34 34 36 31 35 36 34 28 24 26
33 32 31 30 29 28 27 27 27 26 25 24 24 24 23 21 19 18 18 17 18 19 18 18 17 17 18 20 21 20 19 21 22 24 24 24 22 23 23 21 22 23 22
28 28 27 25 25 24 23 21 20 18 18 18 17 16 15 16 16 16 16 16 16 19 20 21 22 22 22 21 20 19 19 20 21 22 22 20 19 19 19 18 16 12 10
23 21 18 16 17 18 19 19 18 17 17 16 16 17 19 20 20 19 19 19 20 20 20 19 19 19 19 17 17 17 16 16 14 13 13 14 14 12 11 11 11 10 10
17 18 19 19 17 17 16 16 16 16 17 18 17 16 17 17 15 13 12 11 10 10 10 10 11 10 10 10 10 11 11 11 10 11 11 11 12 11 10 9 9 7 5

GFSGL_250_rhum_105.txt.gz
RH
98 94 90 72 82 53 55 33 27 37 46 78 53 38 93 100 100 100 78 82 74 78 83 77 83 63 73 65 81 99 99 91 98 80 47 60 55 73 91 100 100 100 96
100 90 99 80 88 75 52 40 30 30 77 45 95 60 59 100 100 100 100 100 100 100 100 100 100 98 97 88 81 86 97 68 77 72 99 100 100 100 100 100 100 93 89
98 100 100 91 84 88 75 51 39 29 40 93 53 96 95 100 100 94 99 100 100 100 100 100 100 100 100 100 100 99 100 100 100 100 100 100 100 100 100 100 100 100 100
100 100 100 100 83 90 100 79 53 37 28 42 70 66 89 100 95 96 97 98 100 100 100 100 100 97 100 100 100 100 100 100 100 100 100 100 100 100 100 100 100 100 100
100 100 100 100 100 100 100 79 52 69 55 49 38 58 75 52 88 100 100 100 100 100 100 100 99 89 99 100 100 100 100 100 100 100 100 100 100 100 100 100 100 100 100
100 100 100 100 100 100 100 100 92 89 96 86 50 46 66 65 76 50 68 99 100 100 100 100 100 100 100 100 100 100 100 96 100 100 100 100 100 100 100 99 58 54 100
100 100 100 66 100 100 100 100 100 100 100 93 71 59 55 61 65 77 86 82 75 77 94 100 100 100 100 100 100 100 100 100 97 94 92 81 72 82 99 100 100 100 100
100 100 100 86 100 100 100 100 100 81 85 88 79 68 70 60 54 56 57 56 59 58 69 74 72 70 66 63 61 60 60 67 76 80 88 93 100 100 100 100 100 96 88
100 100 98 100 100 100 100 94 59 48 51 46 48 56 53 70 51 39 47 38 34 37 36 53 55 61 63 62 73 78 79 83 86 88 88 78 74 75 80 84 77 75 71
100 100 100 100 100 100 81 40 45 47 43 46 54 68 69 70 68 60 56 61 76 74 46 49 41 40 47 63 88 85 78 81 72 65 84 83 79 81 82 73 62 62 55
100 100 100 100 100 100 100 64 81 86 75 74 73 90 92 78 70 60 66 80 72 84 80 67 63 60 76 90 95 57 59 64 73 89 82 68 61 65 73 60 62 63 66
100 100 100 100 100 100 100 100 100 100 100 100 100 94 78 74 71 64 60 63 79 99 100 91 73 96 93 66 100 98 82 75 92 86 79 78 78 66 71 69 98 100 100
100 100 100 100 100 100 100 100 100 100 100 100 100 98 90 84 85 100 100 100 100 100 99 90 85 77 70 95 100 100 100 100 100 100 100 90 100 100 100 91 92 100 100
100 100 100 100 100 100 100 100 100 100 100 100 100 91 89 97 99 100 100 98 86 93 94 82 62 63 53 91 99 100 100 100 100 100 100 100 100 93 100 100 100 100 100
100 97 100 100 100 100 100 100 100 100 97 84 68 63 66 66 69 74 80 80 82 82 91 95 100 100 100 58 70 86 93 100 100 100 100 100 100 100 100 100 100 98 100
64 99 100 100 100 100 97 83 83 80 88 73 65 58 74 68 51 56 63 70 76 72 71 84 95 96 100 100 100 76 84 100 100 100 100 100 100 94 100 100 100 100 100
88 100 100 75 58 56 51 55 48 52 52 51 84 88 68 55 68 92 100 96 96 86 80 76 94 96 100 100 99 100 100 100 100 100 100 100 99 84 100 100 100 100 100
94 95 92 81 61 61 61 100 100 96 98 90 74 77 68 81 99 97 99 93 96 97 89 83 81 74 68 66 63 63 71 78 86 93 99 100 98 100 100 100 100 100 100
100 100 95 84 88 93 100 100 100 92 100 84 68 76 88 95 91 82 78 80 70 64 63 66 59 54 54 53 47 41 36 32 30 32 36 39 68 100 100 100 100 100 96
100 97 100 100 94 90 99 96 93 82 74 68 84 99 82 73 72 76 69 65 60 58 49 42 41 39 28 23 23 23 24 24 27 29 32 38 37 38 41 40 40 38 39
100 100 98 97 94 87 65 70 73 72 86 92 76 62 59 57 50 48 40 36 31 26 23 24 25 25 26 29 35 34 28 28 31 31 33 35 32 31 32 27 26 26 28
68 70 73 75 77 78 75 76 77 74 65 50 41 35 29 27 25 24 23 22 23 26 29 29 28 27 26 26 25 25 26 26 25 26 26 26 24 21 21 20 20 19 20
73 72 70 67 64 59 53 48 44 38 32 28 25 24 23 23 25 26 26 25 24 24 21 19 17 16 16 16 17 18 18 19 18 18 20 20 20 20 20 19 17 16 16
35 35 34 33 32 31 30 28 28 27 27 26 25 25 26 26 24 22 18 16 15 15 16 17 16 16 19 21 21 20 19 18 18 18 17 15 14 13 13 13 13 13 12
35 35 35 33 32 31 30 27 26 24 25 25 24 20 17 16 16 16 16 14 13 14 15 16 16 16 17 18 14 12 11 11 12 13 13 13 13 14 14 13 13 12 9
26 24 24 23 22 22 21 20 19 19 19 18 17 17 16 14 14 16 16 15 16 17 16 12 10 10 10 11 12 12 14 14 14 12 10 10 10 10 10 10 10 8 6

GFSGL_250_rhum_108.txt.gz
RH
54 53 52 78 66 68 70 68 49 45 32 38 50 50 48 43 67 100 100 100 100 100 100 100 100 94 91 98 96 81 100 100 100 100 100 100 100 100 100 93 72 79 67
45 47 56 67 73 75 69 82 58 45 37 32 63 55 73 48 58 100 98 100 100 100 100 100 100 100 94 95 86 80 67 84 85 66 58 77 66 97 66 56 76 100 100
40 43 58 64 89 84 71 99 64 52 49 33 32 54 80 80 56 100 100 98 93 84 99 99 100 98 100 99 94 87 98 100 100 94 100 97 100 100 100 100 100 100 100
49 51 53 92 81 100 75 100 81 68 74 70 37 39 54 96 99 76 100 100 100 100 98 85 81 84 90 89 98 100 100 100 96 100 100 100 100 100 100 100 100 100 100
37 42 71 99 83 96 89 98 90 89 76 57 55 58 44 64 81 100 100 100 100 100 100 100 100 100 100 100 100 100 100 100 100 86 98 100 87 100 100 100 100 100 92
46 72 100 93 100 100 100 100 100 100 77 74 64 58 54 59 84 70 82 100 100 100 100 100 100 100 100 100 100 100 100 100 100 100 100 100 100 100 100 96 100 100 99
87 100 100 100 100 100 100 100 100 100 99 84 85 61 43 40 45 69 85 76 76 98 100 100 100 100 100 100 100 100 100 100 100 100 100 100 100 99 95 71 68 77 85
100 100 100 100 100 100 100 100 100 100 100 100 100 100 87 49 40 36 44 63 74 83 78 79 81 79 82 85 86 85 88 92 93 91 89 98 93 96 100 99 98 100 100
100 100 100 100 100 100 100 100 100 100 100 100 82 78 90 84 69 64 71 70 67 50 47 51 46 47 49 46 45 45 45 44 51 58 59 66 72 71 68 73 69 62 69
100 100 100 100 100 100 100 99 100 100 100 82 94 81 77 77 69 57 63 73 83 64 52 42 35 36 48 43 44 54 55 45 44 40 39 46 56 67 74 78 78 79 78
100 97 100 100 100 100 100 96 84 69 65 62 72 71 65 58 49 58 64 80 68 56 52 42 42 55 50 46 50 58 66 66 64 59 64 67 76 88 93 96 87 100 98
100 95 100 100 100 100 100 100 87 57 50 41 58 60 62 78 83 82 70 63 60 65 69 68 64 60 57 56 72 95 98 89 81 73 69 62 57 70 61 70 73 78 99
100 100 100 100 100 90 100 100 98 99 99 100 100 99 93 100 95 91 88 89 81 89 87 89 84 88 82 100 100 100 100 80 85 83 68 66 82 100 98 98 98 73 90
100 100 100 100 100 100 100 100 100 100 99 98 100 100 100 100 100 100 100 100 100 97 95 98 98 100 99 96 90 90 83 65 59 66 75 67 59 86 93 100 100 100 100
100 100 100 100 100 100 100 100 100 100 100 100 100 100 100 100 100 100 100 100 100 100 93 83 82 59 56 56 57 60 66 88 83 96 100 100 100 100 90 96 99 100 100
100 100 100 91 75 100 100 100 100 100 100 100 100 100 100 100 100 100 100 95 87 73 68 68 57 62 63 51 63 92 95 100 100 100 94 87 96 100 100 100 100 100 100
100 100 100 100 100 76 88 99 100 100 100 100 100 100 100 100 100 98 90 76 68 68 53 54 64 72 69 71 93 98 96 100 100 100 92 76 65 63 61 66 67 73 83
85 72 89 90 74 89 93 94 65 64 76 88 97 91 81 75 68 62 61 53 53 58 51 77 95 99 76 84 98 88 76 76 72 76 69 60 55 49 41 37 37 42 45
86 95 91 90 83 97 90 92 76 69 58 65 75 67 61 60 54 52 49 56 83 81 91 98 82 88 89 100 94 84 82 70 50 43 39 34 29 27 24 22 23 23 24
100 100 100 100 100 100 100 100 75 83 88 87 66 64 72 69 76 93 97 97 84 90 78 59 76 89 92 71 62 50 38 29 25 25 25 24 26 27 26 26 25 25 25
100 100 100 100 100 94 100 100 100 92 71 79 97 98 94 98 88 83 100 96 91 78 71 66 57 42 45 42 35 28 27 27 26 27 27 26 24 22 20 20 19 20 20
99 100 97 87 89 90 93 84 68 68 99 100 87 82 92 88 77 71 69 68 57 50 37 41 36 28 28 26 24 23 22 23 23 21 19 17 17 18 20 21 22 21 21
98 93 94 96 90 89 84 86 97 88 85 74 78 85 78 74 67 54 44 35 33 28 25 25 26 26 23 21 20 18 16 16 16 17 17 18 19 21 21 21 19 16 12
66 70 77 85 90 92 84 84 81 83 73 65 56 46 42 38 32 28 25 24 25 28 30 25 21 21 19 18 17 16 18 18 18 19 20 19 15 12 11 11 12 13 13
38 43 47 47 48 52 53 51 46 43 38 34 32 29 27 27 28 27 29 29 26 21 19 17 16 15 16 18 20 20 19 17 15 12 10 10 11 11 11 11 9 9 9
31 31 32 32 32 33 32 32 31 30 29 28 28 27 26 25 25 23 19 18 16 15 14 16 18 19 17 15 13 12 10 10 11 11 11 10 9 8 8 9 11 10 8

GFSGL_250_rhum_111.txt.gz
RH
99 75 59 57 60 65 64 65 60 73 70 54 44 32 32 41 52 43 38 63 100 100 100 100 100 100 100 100 100 93 100 100 100 89 90 100 98 91 100 100 100 100 100
74 65 62 65 52 50 56 57 62 82 75 50 46 30 32 57 42 53 36 58 100 100 100 100 100 100 100 99 100 100 100 77 58 84 75 68 73 100 100 91 84 100 94
74 83 78 69 48 48 53 55 62 96 75 54 48 32 34 45 52 66 44 47 98 100 100 100 100 100 100 100 100 100 100 100 99 86 100 100 100 99 99 59 63 75 70
69 60 52 52 54 57 62 56 63 100 80 60 49 44 45 37 63 91 80 48 81 100 100 100 100 100 100 100 100 100 100 100 100 94 100 99 82 89 89 90 89 100 100
53 46 42 44 58 70 86 68 86 99 93 67 63 50 42 42 43 68 99 92 71 100 100 100 100 100 100 100 100 100 100 100 100 100 73 94 99 91 92 88 100 100 95
36 36 36 44 62 87 98 91 95 98 100 74 80 78 43 43 47 42 64 96 100 100 100 100 100 94 88 97 77 89 91 92 99 100 100 100 100 100 100 100 100 90 85
32 31 32 44 68 100 97 93 91 92 85 69 95 92 59 59 61 54 43 50 67 99 100 100 100 100 100 100 100 100 100 100 100 100 100 100 100 100 100 100 100 100 99
41 42 39 50 88 99 100 93 90 95 100 100 100 100 95 66 77 60 50 46 45 62 71 83 98 100 100 100 100 100 100 100 100 100 100 100 97 90 77 60 55 50 47
60 82 94 100 100 100 98 100 100 100 100 100 100 100 100 100 97 92 77 52 40 41 46 60 71 82 90 93 93 90 82 79 73 63 59 53 44 39 38 37 38 48 55
83 100 100 100 100 100 100 100 100 100 100 100 100 100 88 62 48 71 76 66 46 41 38 39 39 48 55 54 52 52 50 45 38 43 44 41 43 50 58 64 61 70 75
100 100 100 100 100 100 100 100 100 100 100 100 100 100 100 82 86 65 52 48 45 36 43 48 52 67 67 57 40 37 41 46 45 53 53 49 44 52 68 94 96 98 83
100 100 100 100 100 100 99 90 95 99 100 100 100 80 81 78 95 92 90 76 66 52 64 72 67 58 49 50 51 59 59 50 61 53 53 48 77 100 100 100 100 96 79
100 100 100 100 100 100 100 100 100 100 100 100 100 98 93 100 100 78 88 84 90 92 94 86 86 69 73 65 70 77 83 86 74 78 80 83 76 68 62 53 57 65 74
100 99 88 98 100 100 100 100 100 100 99 100 100 99 56 39 50 67 65 70 51 61 100 98 79 67 60 97 100 100 100 100 94 87 99 90 81 80 78 64 64 68 72
100 71 100 88 100 100 100 100 100 98 87 100 100 88 82 100 100 100 100 94 99 100 92 91 99 94 95 100 100 100 100 99 94 80 77 74 58 82 78 91 98 100 100
100 100 96 82 89 100 100 93 100 100 100 100 100 100 100 100 100 100 100 100 100 100 100 100 100 100 100 99 100 100 98 88 76 54 52 69 57 70 68 79 97 97 94
100 82 81 95 100 100 100 100 100 85 95 100 100 100 100 100 100 100 100 100 98 100 100 100 100 100 100 100 100 91 76 66 51 69 95 85 83 98 91 82 82 88 80
100 100 100 75 100 100 100 100 100 100 87 80 94 97 100 100 100 100 100 100 100 100 100 100 100 100 98 75 56 61 68 62 94 85 94 98 91 89 88 97 84 75 56
100 100 100 100 100 85 64 76 72 92 100 100 90 74 74 70 64 72 73 88 86 87 83 79 67 73 72 69 63 66 99 80 72 89 81 89 80 75 67 71 43 29 29
100 100 100 100 100 100 98 100 100 98 97 100 100 90 81 71 66 67 85 78 70 53 54 68 69 64 53 55 70 78 77 83 63 62 67 57 48 37 27 25 23 23 25
96 100 100 96 91 67 100 100 96 88 100 97 93 82 58 56 60 85 90 100 98 68 94 100 76 79 78 89 91 69 67 63 51 54 42 27 28 24 23 23 23 20 18
100 92 87 82 78 88 100 100 100 78 66 75 71 58 78 100 100 99 100 94 90 89 73 92 85 75 92 71 73 62 41 38 30 27 26 24 22 21 20 19 17 16 18
100 99 94 94 91 87 95 100 85 65 59 58 78 100 97 98 98 98 91 90 90 90 71 85 81 67 84 54 38 30 28 28 26 20 20 20 18 17 17 17 19 18 16
76 88 75 73 72 74 77 72 70 74 99 100 87 80 80 84 81 81 80 75 73 78 68 61 69 42 27 28 28 23 21 21 20 18 17 16 17 20 18 15 13 12 10
72 76 77 72 68 80 91 94 92 85 77 77 83 78 79 93 94 77 73 66 47 42 32 26 27 25 23 23 21 20 20 17 17 17 17 16 12 13 10 10 10 11 12
71 72 79 80 76 78 88 92 95 93 90 87 86 60 41 34 33 33 31 28 27 26 24 23 23 21 19 19 17 17 16 16 16 15 12 12 10 10 10 10 11 10 11

GFSGL_250_rhum_114.txt.gz
RH
79 72 97 77 64 66 59 52 54 75 81 64 80 66 66 42 43 31 30 36 41 33 37 100 100 100 100 100 100 100 100 84 100 100 100 97 100 100 100 100 100 100 100
100 100 100 93 78 64 61 63 57 60 70 57 76 71 72 51 42 29 41 43 53 38 45 100 100 100 100 100 100 100 100 100 100 100 100 100 100 100 100 100 99 91 85
99 75 91 100 71 74 75 77 66 67 60 49 82 72 78 49 39 29 37 42 63 40 45 100 100 100 100 100 100 100 100 100 100 100 100 100 97 95 81 74 76 100 100
100 92 84 80 64 68 68 78 60 64 61 51 68 77 77 51 44 38 33 40 50 58 47 94 100 100 100 100 99 100 100 100 100 100 100 100 100 100 100 100 100 85 77
82 71 80 82 66 59 58 64 72 63 62 54 67 88 71 53 50 46 34 44 44 68 50 91 100 100 100 100 100 100 100 100 100 100 100 100 100 100 95 99 88 73 67
62 57 56 52 51 51 57 63 63 73 76 67 73 100 72 57 56 43 34 40 46 66 82 66 100 100 100 100 100 100 100 100 100 100 80 74 100 87 100 100 100 100 100
67 65 66 56 45 51 49 50 73 93 80 78 87 100 77 63 68 63 36 37 43 48 84 100 88 100 100 100 100 100 100 100 100 100 88 99 100 100 98 100 100 100 100
70 67 46 38 45 43 41 50 96 86 89 82 94 96 76 64 82 87 62 46 36 45 44 60 100 100 97 100 100 100 100 100 100 100 100 100 100 100 100 100 100 100 86
48 48 48 40 34 34 35 54 70 87 92 90 94 87 90 100 100 100 100 99 78 55 47 39 37 48 77 100 100 100 100 100 100 100 100 100 100 100 100 88 73 60 46
82 65 52 45 39 38 46 76 92 92 100 100 94 87 100 100 100 100 100 100 98 78 72 53 39 36 35 36 43 58 68 78 90 94 99 99 88 58 50 40 40 46 52
76 88 100 100 100 88 99 98 100 100 100 100 100 100 100 100 100 100 98 89 92 70 74 83 74 57 43 42 49 54 52 53 55 54 52 50 46 40 39 45 50 50 54
100 100 100 100 100 100 100 100 100 100 100 100 100 100 100 100 100 100 90 59 49 44 46 49 54 54 61 65 59 48 48 48 44 47 49 46 49 48 49 64 80 73 97
100 100 100 100 100 100 100 100 100 100 100 100 100 100 100 100 83 89 65 71 73 81 99 91 93 86 84 84 69 47 64 64 51 40 36 36 36 48 61 74 96 94 100
100 100 100 100 100 100 100 100 100 100 97 100 100 100 93 82 96 88 96 97 100 100 100 99 89 91 83 90 97 72 75 74 71 66 52 51 67 97 92 98 94 94 93
100 100 100 100 100 100 100 100 100 97 100 100 100 100 100 100 100 100 100 100 72 56 54 60 81 93 100 100 100 100 100 100 100 98 100 100 100 100 100 100 100 100 99
100 100 100 94 100 100 100 97 100 100 100 100 100 100 94 87 75 65 78 83 70 77 90 86 92 84 74 56 56 100 100 100 100 100 100 100 100 100 100 97 72 73 64
100 100 88 80 82 100 100 100 100 100 100 100 100 100 99 98 100 100 100 100 100 100 100 100 100 100 100 100 100 100 100 100 100 100 100 100 98 84 84 72 53 60 63
100 100 100 95 97 67 74 84 100 100 100 100 100 100 100 100 100 100 100 100 100 100 100 100 100 100 100 100 100 100 100 100 100 100 100 94 76 58 54 79 85 89 92
100 100 100 100 100 100 100 100 100 100 100 100 100 100 100 100 100 100 100 100 100 100 100 100 97 96 84 86 81 64 66 70 65 56 51 60 74 74 80 91 74 68 54
100 100 100 100 100 100 100 100 100 92 100 74 95 88 100 100 100 100 98 94 86 80 83 69 60 55 54 55 66 68 63 57 60 81 79 93 81 84 90 74 57 50 63
100 100 100 100 100 100 100 100 100 100 100 100 87 73 85 100 100 100 100 86 66 82 74 84 83 72 96 84 88 76 65 66 75 94 92 74 82 66 70 36 34 28 27
100 100 100 100 100 100 100 100 100 100 95 98 80 80 90 89 86 100 92 65 79 70 65 72 74 80 80 73 69 58 67 90 92 96 79 68 63 59 43 28 24 22 21
84 90 95 95 100 100 99 99 98 99 100 100 100 98 100 100 99 92 91 88 75 62 85 96 79 69 74 72 53 67 73 82 79 91 65 37 27 23 24 22 19 17 15
76 76 80 75 72 71 74 81 99 100 83 75 78 100 100 100 96 91 76 82 61 58 54 68 87 88 88 90 76 75 83 70 59 27 22 23 21 21 18 16 14 14 15
74 68 71 69 64 57 67 81 76 66 51 56 69 68 76 85 89 86 78 67 71 80 92 96 87 73 54 62 69 74 83 53 25 21 20 19 17 14 14 15 14 12 10
50 61 66 74 71 66 76 82 79 72 80 77 76 74 64 62 70 64 84 97 97 73 54 65 82 65 48 40 22 21 21 21 20 16 14 14 13 12 11 9 9 10 10

GFSGL_250_rhum_117.txt.gz
RH
100 99 98 54 84 78 94 74 100 100 85 72 54 49 47 79 91 80 73 44 39 37 24 29 25 22 100 100 100 99 99 100 100 100 93 100 99 100 100 100 100 100 88
68 84 98 81 100 100 100 98 100 83 66 62 51 57 52 74 98 80 77 45 44 31 31 33 35 29 59 100 100 100 100 96 98 100 100 100 100 100 100 100 100 100 100
100 100 100 97 87 100 100 100 100 100 82 77 66 62 54 61 85 76 74 50 42 26 35 46 50 42 49 100 100 100 100 100 100 100 100 100 100 100 100 100 100 100 100
100 100 100 100 90 97 100 100 100 99 85 74 70 75 57 60 62 74 79 49 40 33 33 64 71 47 94 100 100 100 100 99 100 100 100 100 100 100 100 100 100 94 93
100 100 100 100 100 95 100 100 100 94 63 64 71 69 55 62 60 70 79 54 48 39 32 59 77 68 100 100 100 100 100 100 100 99 95 100 100 100 100 97 96 98 100
100 100 86 99 100 100 100 100 99 78 69 86 69 76 60 67 59 63 79 56 50 36 32 42 89 98 100 100 100 100 100 100 100 100 100 100 100 100 100 100 100 100 86
100 100 100 100 100 100 100 89 96 65 52 61 69 65 67 73 64 78 78 55 52 39 47 53 58 97 98 100 100 100 100 100 100 100 100 100 100 100 100 94 89 78 79
96 90 91 98 99 88 81 78 58 55 58 61 83 85 78 82 71 94 75 58 56 45 55 49 44 68 100 100 100 100 100 100 100 100 100 100 100 100 100 100 100 100 99
69 61 62 71 68 65 65 58 54 53 62 64 89 93 87 80 82 91 71 61 68 64 76 63 45 40 48 97 100 97 100 100 100 100 100 100 100 100 100 100 100 100 100
58 60 64 68 63 52 44 46 51 52 62 82 98 93 96 83 87 80 70 80 100 100 100 100 80 44 37 32 30 39 62 83 98 99 99 99 99 100 100 100 100 100 100
70 72 64 58 55 47 43 39 39 43 51 78 82 79 82 83 76 84 98 100 100 100 100 100 75 74 64 61 53 45 39 40 40 39 44 53 54 54 61 60 53 52 50
43 39 51 55 67 59 46 38 40 42 62 88 96 96 99 90 89 100 100 100 100 72 66 85 90 80 71 62 67 66 63 62 69 70 56 42 42 45 47 50 45 38 34
50 61 78 80 86 99 97 96 99 100 100 100 100 99 100 100 100 100 100 100 100 100 90 92 78 59 57 65 79 86 96 91 84 79 72 67 63 49 35 32 34 42 40
95 100 100 100 100 99 100 100 100 100 100 100 100 100 100 100 100 100 100 100 100 91 86 85 81 84 100 90 100 100 100 95 79 79 69 59 51 42 37 68 61 60 90
90 93 100 100 100 100 100 100 100 100 100 100 100 100 100 97 85 100 100 100 100 98 99 100 99 100 91 66 74 71 58 52 45 52 61 76 59 96 100 100 100 100 100
97 99 100 100 100 100 100 100 100 100 100 100 97 99 100 100 100 100 100 100 100 100 100 100 96 100 100 100 99 82 90 95 97 78 62 93 100 100 100 100 100 100 100
100 100 100 100 100 100 100 100 100 100 100 88 83 100 100 100 72 94 92 100 100 100 100 100 100 100 100 100 98 81 77 85 100 100 100 100 100 100 100 100 95 80 87
100 100 100 100 100 100 100 96 100 100 100 100 100 100 100 100 100 100 100 100 100 100 100 100 84 65 90 100 100 100 100 100 100 100 100 100 100 99 89 72 67 55 62
84 100 99 100 100 100 100 100 100 100 100 100 94 100 100 100 100 100 100 85 93 84 99 100 100 100 100 100 100 100 100 100 100 100 100 93 74 63 86 78 70 65 71
100 100 100 100 100 100 100 100 100 100 100 100 100 97 94 100 100 100 100 100 100 100 100 100 100 100 92 100 99 97 89 85 87 88 73 78 60 51 54 71 83 91 100
100 100 100 100 100 100 100 100 100 100 100 100 100 100 100 100 100 100 100 100 100 100 100 100 100 100 95 84 88 91 89 98 97 93 77 85 61 75 88 68 68 79 88
100 100 100 100 100 100 100 100 100 100 100 99 100 100 100 100 100 100 100 100 100 100 100 100 100 99 94 83 76 72 76 72 88 100 66 72 93 94 76 80 61 72 72
77 89 100 100 100 99 93 100 100 100 100 100 100 97 98 92 97 95 100 98 100 100 97 91 98 100 88 74 96 97 85 84 86 100 83 88 76 82 61 81 90 76 49
98 79 68 74 100 100 98 99 84 84 100 100 99 100 99 100 100 98 92 93 94 92 98 93 71 77 91 99 100 100 89 57 87 100 77 86 90 72 46 64 43 37 24
89 96 85 86 72 68 77 83 93 96 100 100 100 100 100 100 100 100 100 100 100 100 100 100 97 95 99 80 77 89 79 64 91 81 88 67 48 44 26 45 17 15 14
64 73 87 77 76 78 82 88 81 84 80 86 98 100 100 98 99 92 96 94 92 99 97 91 82 68 59 61 49 56 63 69 75 66 87 38 38 22 14 14 12 11 12

GFSGL_250_rhum_120.txt.gz
RH
96 89 97 94 100 99 100 100 99 72 86 100 99 75 77 75 58 53 51 56 67 71 74 78 39 35 27 29 37 100 97 53 67 91 100 100 100 100 100 100 93 89 100
93 91 88 87 94 100 100 100 74 73 100 100 100 100 91 78 78 67 58 54 71 87 80 73 39 37 27 30 31 82 100 100 92 51 100 100 100 100 100 100 91 89 72
100 100 100 100 100 100 100 100 81 89 97 100 100 100 100 100 97 74 58 59 57 90 84 61 44 29 32 35 37 32 97 100 100 96 98 78 55 97 100 88 79 59 80
86 98 91 92 99 100 97 72 87 98 95 100 71 100 100 100 99 78 57 58 54 70 90 64 42 35 35 44 48 46 33 100 100 100 97 100 98 76 78 100 100 100 100
98 100 100 84 74 85 97 100 100 100 100 100 100 94 100 100 100 81 66 58 56 58 98 62 45 41 32 53 51 52 92 100 100 100 100 100 100 92 100 100 100 100 100
100 100 100 98 91 100 100 100 100 100 100 100 100 76 100 100 98 83 86 62 58 62 98 60 51 40 42 67 69 99 97 100 100 100 100 100 100 100 100 100 100 100 100
99 100 100 98 100 100 100 100 100 100 100 100 100 100 100 100 93 80 69 62 56 66 100 60 53 40 41 70 82 100 100 100 100 100 100 100 97 100 94 96 91 91 96
100 100 97 100 100 100 100 100 90 96 100 100 100 100 93 99 85 77 68 66 56 61 94 66 58 59 46 45 95 98 100 100 100 100 100 100 100 100 100 100 100 100 89
100 100 91 98 98 95 94 100 100 100 100 95 84 86 90 72 75 88 77 86 65 61 90 69 67 66 68 63 56 100 100 100 100 100 100 100 100 82 72 95 96 97 100
100 100 100 100 99 100 98 99 78 73 69 64 57 58 62 64 88 91 87 96 63 71 90 71 81 72 84 85 66 51 99 100 100 100 100 100 100 100 100 100 100 100 100
90 92 78 80 73 86 94 92 80 61 56 67 54 61 66 62 80 80 91 80 59 88 84 84 92 100 100 100 100 62 45 43 47 59 72 79 82 82 78 75 71 65 61
69 70 70 71 74 73 73 70 58 52 86 86 85 100 91 69 78 87 99 71 62 98 100 100 100 100 100 100 100 86 88 74 62 55 51 56 56 55 54 58 63 64 53
58 63 60 68 73 67 60 60 62 47 50 71 100 75 86 96 99 100 96 74 74 100 100 100 100 100 89 80 90 67 60 68 59 60 65 65 69 66 68 72 69 60 55
59 59 56 60 56 53 49 57 75 64 56 52 70 88 95 98 100 100 100 100 100 100 100 100 100 100 95 80 85 99 97 70 63 62 76 94 94 94 96 80 71 68 57
50 49 45 47 49 56 87 100 94 96 99 98 100 100 100 100 100 100 100 100 100 100 100 100 100 100 96 82 75 70 58 64 63 79 89 82 98 98 86 69 58 62 55
41 44 44 64 99 100 94 100 100 100 100 100 100 100 100 100 100 100 100 100 100 100 100 100 100 100 100 96 77 73 89 94 76 74 70 76 78 72 63 70 58 73 97
42 51 87 100 100 100 100 100 100 100 100 100 100 100 100 100 100 100 100 100 100 100 97 78 100 100 89 63 85 89 87 87 99 100 85 71 62 62 78 92 100 100 100
52 87 100 100 100 100 100 100 100 100 100 100 100 100 100 100 100 100 100 99 100 87 97 96 88 95 100 100 100 100 100 100 100 89 74 69 75 100 100 100 87 83 100
70 100 100 100 100 100 100 100 100 100 100 100 100 100 98 95 100 94 76 97 92 93 100 97 88 87 87 100 98 80 81 94 75 46 56 92 100 100 100 100 99 95 85
74 100 100 97 100 100 100 100 100 100 100 100 90 100 100 100 100 100 99 75 97 95 76 88 99 100 100 100 70 67 54 52 92 100 100 100 98 90 100 96 98 91 80
60 100 100 92 88 100 100 100 100 100 100 100 100 100 100 95 87 95 96 100 98 91 100 100 90 79 100 100 100 100 100 98 100 100 100 100 100 100 100 100 84 100 87
30 93 100 100 100 100 91 95 100 100 100 100 100 100 100 100 100 100 100 98 73 95 100 100 100 100 100 100 100 100 100 100 100 100 100 100 100 100 100 100 94 80 74
27 43 86 100 100 100 100 100 72 83 93 95 100 100 100 100 100 100 100 100 100 100 100 100 100 100 100 100 100 100 100 100 100 100 98 100 95 94 74 77 93 86 96
28 31 55 80 85 92 98 93 93 84 85 98 100 100 100 100 100 100 100 100 100 100 100 100 100 100 100 100 100 100 100 100 92 93 92 73 81 84 99 88 94 99 83
19 28 33 71 85 84 78 86 89 91 86 92 95 100 100 100 86 100 100 100 100 100 100 100 100 100 100 100 95 80 83 91 79 73 78 87 86 95 100 99 77 82 81
14 17 22 28 56 81 85 84 69 67 73 86 82 87 95 76 78 100 85 65 71 73 69 72 74 63 61 67 66 63 64 69 86 93 83 89 95 85 90 86 68 63 34